[[{"header":{"parameterUnit":"m.s-1","parameterCategory":1,"la1":30.6,"la2":29.2853,"lo1":-89.7004,"lo2":-87.6739,"dy":0.0162,"dx":0.0183,"nx":112,"ny":82,"refTime":"2025-05-19T18:00:00:Z","depth":0,"parameterNumber":2,"parameterNumberName":"U-component_of_WINDS"},"data":[0.0,0.0,0.0,0.0,0.0,0.0,0.0,0.0,0.0,0.0,0.0,0.0,0.0,0.0,0.0,0.0,0.0,0.0,0.0,0.0,0.0,0.0,0.0,0.0,0.0,0.0,0.0,0.0,0.0,0.0,0.0,0.0,0.0,0.0,0.0,0.0,0.0,0.0,0.0,0.0,0.0,0.0,0.0,0.0,0.0,0.0,0.0,0.0,0.0,0.0,0.0,0.0,0.0,0.0,0.0,0.0,0.0,0.0,0.0,0.0,0.0,0.0,0.0,0.0,0.0,0.0,0.0,0.0,0.0,0.0,0.0,0.0,0.0,0.0,0.0,0.0,0.0,0.0,0.0,0.0,0.0,0.0,0.0,0.0,0.0,0.0,0.0,0.0,0.0,0.0,-5.3555,-5.5859,-5.9453,-6.1719,-6.1719,-6.0555,-5.8067,-5.3953,0.0,0.0,0.0,0.0,0.0,0.0,0.0,0.0,0.0,0.0,0.0,0.0,0.0,0.0,0.0,0.0,0.0,0.0,0.0,0.0,0.0,0.0,0.0,0.0,0.0,0.0,0.0,0.0,0.0,0.0,0.0,0.0,0.0,0.0,0.0,0.0,0.0,0.0,0.0,0.0,0.0,0.0,0.0,0.0,0.0,0.0,0.0,0.0,0.0,0.0,0.0,0.0,0.0,0.0,0.0,0.0,0.0,0.0,0.0,0.0,0.0,0.0,0.0,0.0,0.0,0.0,0.0,0.0,0.0,0.0,0.0,0.0,0.0,0.0,0.0,0.0,0.0,0.0,0.0,0.0,0.0,0.0,0.0,0.0,0.0,0.0,0.0,0.0,0.0,0.0,0.0,0.0,0.0,0.0,0.0,0.0,0.0,0.0,0.0,0.0,0.0,0.0,0.0,0.0,-5.4492,-5.914,-6.0859,-6.1719,-6.1719,-6.0091,-5.7528,-5.3918,0.0,0.0,0.0,0.0,0.0,0.0,0.0,0.0,0.0,0.0,0.0,0.0,0.0,0.0,0.0,0.0,0.0,0.0,0.0,0.0,0.0,0.0,0.0,0.0,0.0,0.0,0.0,0.0,0.0,0.0,0.0,0.0,0.0,0.0,0.0,0.0,0.0,0.0,0.0,0.0,0.0,0.0,0.0,0.0,0.0,0.0,0.0,0.0,0.0,0.0,0.0,0.0,0.0,0.0,0.0,0.0,0.0,0.0,0.0,0.0,0.0,0.0,0.0,0.0,0.0,0.0,0.0,0.0,0.0,0.0,0.0,0.0,0.0,0.0,0.0,0.0,0.0,0.0,0.0,0.0,0.0,0.0,0.0,0.0,0.0,0.0,0.0,0.0,0.0,0.0,0.0,0.0,0.0,0.0,0.0,0.0,0.0,0.0,0.0,0.0,0.0,0.0,0.0,-5.273,-5.539,-6.0547,-6.1445,-6.1523,-6.1055,-5.9706,-5.719,-5.3251,-5.0726,0.0,0.0,0.0,0.0,0.0,0.0,0.0,0.0,0.0,0.0,0.0,0.0,0.0,0.0,0.0,0.0,0.0,0.0,0.0,0.0,0.0,0.0,0.0,0.0,0.0,0.0,0.0,0.0,0.0,0.0,0.0,0.0,0.0,0.0,0.0,0.0,0.0,0.0,0.0,0.0,0.0,0.0,0.0,0.0,0.0,0.0,0.0,0.0,0.0,0.0,0.0,0.0,0.0,0.0,0.0,0.0,0.0,0.0,0.0,0.0,0.0,0.0,0.0,0.0,0.0,0.0,0.0,0.0,0.0,0.0,0.0,0.0,0.0,0.0,0.0,0.0,0.0,0.0,0.0,0.0,0.0,0.0,0.0,0.0,0.0,0.0,0.0,0.0,0.0,0.0,0.0,0.0,0.0,0.0,0.0,0.0,0.0,0.0,0.0,0.0,0.0,0.0,-5.5234,-5.664,-6.1211,-6.1523,-6.1133,-6.0469,-5.8733,-5.6218,-5.2628,-4.926,0.0,0.0,0.0,0.0,0.0,0.0,0.0,0.0,0.0,0.0,0.0,0.0,0.0,0.0,0.0,0.0,0.0,0.0,0.0,0.0,0.0,0.0,0.0,0.0,0.0,0.0,0.0,0.0,0.0,0.0,0.0,0.0,0.0,0.0,0.0,0.0,0.0,0.0,0.0,0.0,0.0,0.0,0.0,0.0,0.0,0.0,0.0,0.0,0.0,0.0,0.0,0.0,0.0,0.0,0.0,0.0,0.0,0.0,0.0,0.0,0.0,0.0,0.0,0.0,0.0,0.0,0.0,0.0,0.0,0.0,0.0,0.0,0.0,0.0,0.0,0.0,0.0,0.0,0.0,0.0,0.0,0.0,0.0,0.0,0.0,0.0,0.0,0.0,0.0,0.0,0.0,0.0,0.0,0.0,0.0,0.0,0.0,0.0,0.0,0.0,0.0,0.0,-5.5703,-5.8672,-6.1406,-6.0976,-6.0469,-6.039,-5.663,-5.3732,-5.2472,-4.76,0.0,0.0,0.0,0.0,0.0,0.0,0.0,0.0,0.0,0.0,0.0,0.0,0.0,0.0,0.0,0.0,0.0,0.0,0.0,0.0,0.0,0.0,0.0,0.0,0.0,0.0,0.0,0.0,0.0,0.0,0.0,0.0,0.0,0.0,0.0,0.0,0.0,0.0,0.0,0.0,0.0,0.0,0.0,0.0,0.0,0.0,0.0,0.0,0.0,0.0,0.0,0.0,0.0,0.0,0.0,0.0,0.0,0.0,0.0,0.0,0.0,0.0,0.0,0.0,0.0,0.0,0.0,0.0,0.0,0.0,0.0,0.0,0.0,0.0,0.0,0.0,0.0,0.0,0.0,0.0,0.0,0.0,0.0,0.0,0.0,0.0,0.0,0.0,0.0,0.0,0.0,0.0,0.0,0.0,0.0,0.0,0.0,0.0,0.0,0.0,0.0,0.0,-5.3984,-5.668,-5.9805,-6.0312,-5.9961,-5.8945,-5.6834,-5.4195,-5.0996,0.0,0.0,0.0,0.0,0.0,0.0,0.0,0.0,0.0,0.0,0.0,0.0,0.0,0.0,0.0,0.0,0.0,0.0,0.0,0.0,0.0,0.0,0.0,0.0,0.0,0.0,0.0,0.0,0.0,0.0,0.0,0.0,0.0,0.0,0.0,0.0,0.0,0.0,0.0,0.0,0.0,0.0,0.0,0.0,0.0,0.0,0.0,0.0,0.0,0.0,0.0,0.0,0.0,0.0,0.0,0.0,0.0,0.0,0.0,0.0,0.0,0.0,0.0,0.0,0.0,0.0,0.0,0.0,0.0,0.0,0.0,0.0,0.0,0.0,0.0,0.0,0.0,0.0,0.0,0.0,0.0,0.0,0.0,0.0,0.0,0.0,0.0,0.0,0.0,0.0,0.0,0.0,0.0,0.0,0.0,0.0,0.0,0.0,0.0,0.0,0.0,0.0,-5.0312,-5.3008,-5.5625,-5.8867,-5.9453,-5.9023,-5.7617,-5.5663,-5.2947,-4.9243,0.0,0.0,0.0,0.0,0.0,0.0,0.0,0.0,0.0,0.0,0.0,0.0,0.0,0.0,0.0,0.0,0.0,0.0,0.0,0.0,0.0,0.0,0.0,0.0,0.0,0.0,0.0,0.0,0.0,0.0,0.0,0.0,0.0,0.0,0.0,0.0,0.0,0.0,0.0,0.0,0.0,0.0,0.0,0.0,0.0,0.0,0.0,0.0,0.0,0.0,0.0,0.0,0.0,0.0,0.0,0.0,0.0,0.0,0.0,0.0,0.0,0.0,0.0,0.0,0.0,0.0,0.0,0.0,0.0,0.0,0.0,0.0,0.0,0.0,0.0,0.0,0.0,0.0,0.0,0.0,0.0,0.0,0.0,0.0,0.0,0.0,0.0,0.0,0.0,0.0,0.0,0.0,0.0,0.0,0.0,0.0,0.0,0.0,0.0,0.0,0.0,0.0,-4.9726,-5.3164,-5.6289,-5.8906,-5.8398,-5.7539,-5.664,-5.2567,-4.9243,0.0,0.0,0.0,0.0,0.0,0.0,0.0,0.0,0.0,0.0,0.0,0.0,0.0,0.0,0.0,0.0,0.0,0.0,0.0,0.0,0.0,0.0,0.0,0.0,0.0,0.0,0.0,0.0,0.0,0.0,0.0,0.0,0.0,0.0,0.0,0.0,0.0,0.0,0.0,0.0,0.0,0.0,0.0,0.0,0.0,0.0,0.0,0.0,0.0,0.0,0.0,0.0,0.0,0.0,0.0,0.0,0.0,0.0,0.0,0.0,0.0,0.0,0.0,0.0,0.0,0.0,0.0,0.0,0.0,0.0,0.0,0.0,0.0,0.0,0.0,0.0,0.0,0.0,0.0,0.0,0.0,0.0,0.0,0.0,0.0,0.0,0.0,0.0,0.0,0.0,0.0,0.0,0.0,0.0,0.0,0.0,0.0,0.0,0.0,0.0,0.0,0.0,0.0,-4.8828,-5.2812,-5.582,-5.7226,-5.7148,-5.664,-5.5742,-5.2811,-4.9677,-4.6665,0.0,0.0,0.0,0.0,0.0,0.0,0.0,0.0,0.0,0.0,0.0,0.0,0.0,0.0,0.0,0.0,0.0,0.0,0.0,0.0,0.0,0.0,0.0,0.0,0.0,0.0,0.0,0.0,0.0,0.0,0.0,0.0,0.0,0.0,0.0,0.0,0.0,0.0,0.0,0.0,0.0,0.0,0.0,0.0,0.0,0.0,0.0,0.0,0.0,0.0,0.0,0.0,0.0,0.0,0.0,0.0,0.0,0.0,0.0,0.0,0.0,0.0,0.0,0.0,0.0,0.0,0.0,0.0,0.0,0.0,0.0,0.0,0.0,0.0,0.0,0.0,0.0,0.0,0.0,0.0,0.0,0.0,0.0,0.0,0.0,0.0,0.0,0.0,0.0,0.0,0.0,0.0,0.0,0.0,0.0,0.0,0.0,0.0,0.0,0.0,0.0,0.0,-4.7929,-5.1523,-5.4219,-5.543,-5.5547,-5.5195,-5.4336,-5.2226,-4.9412,-4.5869,0.0,0.0,0.0,0.0,0.0,0.0,0.0,0.0,0.0,0.0,0.0,0.0,0.0,0.0,0.0,0.0,0.0,0.0,0.0,0.0,0.0,0.0,0.0,0.0,0.0,0.0,0.0,0.0,0.0,0.0,0.0,0.0,0.0,0.0,0.0,0.0,0.0,0.0,0.0,0.0,0.0,0.0,0.0,0.0,0.0,0.0,0.0,0.0,0.0,0.0,0.0,0.0,0.0,0.0,0.0,0.0,0.0,0.0,0.0,0.0,0.0,0.0,0.0,0.0,0.0,0.0,0.0,0.0,0.0,0.0,0.0,0.0,0.0,0.0,0.0,0.0,0.0,0.0,0.0,0.0,0.0,0.0,0.0,0.0,0.0,0.0,0.0,0.0,0.0,0.0,0.0,0.0,0.0,0.0,0.0,0.0,0.0,0.0,0.0,0.0,0.0,0.0,-4.7148,-4.9805,-5.207,-5.3828,-5.3945,-5.3555,-5.2773,-5.1094,-4.8631,-4.5252,0.0,0.0,0.0,0.0,0.0,0.0,0.0,0.0,0.0,0.0,0.0,0.0,0.0,0.0,0.0,0.0,0.0,0.0,0.0,0.0,0.0,0.0,0.0,0.0,0.0,0.0,0.0,0.0,0.0,0.0,0.0,0.0,0.0,0.0,0.0,0.0,0.0,0.0,0.0,0.0,0.0,0.0,0.0,0.0,0.0,0.0,0.0,0.0,0.0,0.0,0.0,0.0,0.0,0.0,0.0,0.0,0.0,0.0,0.0,0.0,-5.1021,-4.9754,0.0,0.0,0.0,0.0,0.0,0.0,0.0,0.0,0.0,0.0,0.0,0.0,0.0,0.0,0.0,0.0,0.0,0.0,0.0,0.0,0.0,0.0,0.0,0.0,0.0,0.0,0.0,0.0,0.0,0.0,0.0,0.0,0.0,0.0,0.0,0.0,0.0,0.0,0.0,0.0,-4.7148,-4.9805,-5.207,-5.3828,-5.3398,-5.2891,-5.2734,-5.0547,-4.8281,-4.6132,-4.2967,0.0,0.0,0.0,0.0,0.0,0.0,0.0,0.0,0.0,0.0,0.0,0.0,0.0,0.0,0.0,0.0,0.0,0.0,0.0,0.0,0.0,0.0,0.0,0.0,0.0,0.0,0.0,0.0,0.0,0.0,0.0,0.0,0.0,0.0,0.0,0.0,0.0,0.0,0.0,0.0,0.0,0.0,0.0,0.0,0.0,0.0,0.0,0.0,0.0,0.0,0.0,0.0,0.0,0.0,0.0,0.0,0.0,0.0,0.0,-5.3795,-5.2808,0.0,0.0,0.0,0.0,0.0,0.0,0.0,0.0,0.0,0.0,0.0,0.0,0.0,0.0,0.0,0.0,0.0,0.0,0.0,0.0,0.0,0.0,0.0,0.0,0.0,0.0,0.0,0.0,0.0,0.0,0.0,0.0,0.0,0.0,0.0,0.0,0.0,0.0,0.0,0.0,-4.6523,-4.8867,-5.0859,-5.2578,-5.1992,-5.1484,-5.1484,-4.9531,-4.7695,-4.6367,-4.3867,0.0,0.0,0.0,0.0,0.0,0.0,0.0,0.0,0.0,0.0,0.0,0.0,0.0,0.0,0.0,0.0,0.0,0.0,0.0,0.0,0.0,0.0,0.0,0.0,0.0,0.0,0.0,0.0,0.0,0.0,0.0,0.0,0.0,0.0,0.0,0.0,0.0,0.0,0.0,0.0,0.0,0.0,0.0,0.0,0.0,0.0,0.0,0.0,0.0,0.0,0.0,0.0,0.0,-5.6973,-5.7011,-5.7011,-5.7065,-5.7521,-5.8192,-5.7063,-5.6676,-5.664,-5.418,0.0,0.0,0.0,0.0,0.0,0.0,0.0,0.0,0.0,0.0,0.0,0.0,0.0,0.0,0.0,0.0,0.0,0.0,0.0,0.0,0.0,0.0,-4.8828,-5.0117,-4.9844,-4.8516,-4.5508,0.0,0.0,0.0,0.0,0.0,0.0,0.0,0.0,0.0,0.0,0.0,-4.6094,-4.7773,-4.9336,-5.1016,-5.0469,-4.9961,-4.9961,-4.8516,-4.7305,-4.6562,-4.4883,-4.2969,0.0,0.0,0.0,0.0,0.0,0.0,0.0,0.0,0.0,0.0,0.0,0.0,0.0,0.0,0.0,0.0,0.0,0.0,0.0,0.0,0.0,0.0,0.0,0.0,0.0,0.0,0.0,0.0,0.0,0.0,0.0,0.0,-5.3498,-5.551,0.0,0.0,0.0,0.0,0.0,0.0,0.0,0.0,0.0,0.0,0.0,0.0,0.0,-5.855,-6.0089,-6.087,-6.1254,-6.1254,-6.1973,-6.232,-6.2281,-6.246,-6.2209,-6.1668,-6.157,0.0,-5.7578,-5.5703,0.0,0.0,0.0,0.0,0.0,0.0,0.0,0.0,0.0,0.0,0.0,0.0,0.0,0.0,0.0,0.0,0.0,0.0,0.0,0.0,0.0,0.0,-5.1875,-5.1367,-5.1133,-5.0742,-4.9609,-4.6289,-4.3476,-4.3242,-4.2031,-4.0703,0.0,0.0,0.0,0.0,0.0,0.0,-4.6992,-4.7617,-4.8437,-5.0156,-4.9609,-4.9062,-4.9062,-4.8164,-4.7539,-4.7422,-4.5781,-4.4687,-4.4336,-4.2109,0.0,0.0,0.0,0.0,0.0,0.0,0.0,0.0,0.0,0.0,0.0,0.0,0.0,0.0,0.0,0.0,0.0,0.0,0.0,0.0,0.0,0.0,0.0,0.0,0.0,0.0,0.0,0.0,0.0,-5.3625,-5.5775,-5.6139,-5.6365,-5.6128,0.0,0.0,0.0,0.0,0.0,0.0,0.0,0.0,0.0,-6.0358,-6.0435,-6.1012,-6.2204,-6.2589,-6.2781,-6.2781,-6.3128,-6.3308,-6.332,-6.3372,-6.3011,-6.2305,-6.2369,-6.1427,-5.9693,-5.8014,-5.6307,-5.4669,0.0,0.0,0.0,0.0,-5.2461,-5.1953,-5.4258,-5.418,-5.3047,-5.2891,0.0,0.0,0.0,0.0,0.0,0.0,0.0,-4.9375,-5.0703,-5.2226,-5.3476,-5.3555,-5.3203,-5.2773,-5.2422,-4.9726,-4.6914,-4.5469,-4.457,-4.332,-4.1016,-4.0625,0.0,0.0,0.0,-4.4023,-4.6562,-4.7305,-4.8086,-4.9336,-4.8672,-4.8164,-4.8164,-4.7383,-4.6875,-4.6875,-4.6133,-4.5508,-4.5039,-4.3476,-4.1562,0.0,0.0,0.0,0.0,0.0,0.0,0.0,0.0,0.0,0.0,0.0,0.0,0.0,0.0,0.0,0.0,0.0,0.0,0.0,0.0,0.0,0.0,0.0,0.0,0.0,0.0,0.0,0.0,-5.5184,-5.7151,-5.6722,-5.779,-5.8113,0.0,0.0,0.0,0.0,0.0,0.0,-5.9858,-6.0704,-6.182,-6.3332,-6.3178,-6.3474,-6.4282,-6.4089,-6.3974,-6.3974,-6.3974,-6.3974,-6.3974,-6.3974,-6.3438,-6.2549,-6.2549,-6.2043,-6.1056,-5.9759,-5.8376,-5.6974,-5.6245,-5.5039,-5.3867,-5.539,-5.5156,-5.4414,-5.7265,-5.7226,-5.5898,-5.5469,-5.3984,-5.1992,-4.9883,0.0,0.0,0.0,0.0,-5.1211,-5.293,-5.3867,-5.4453,-5.4883,-5.4453,-5.3867,-5.3437,-5.1836,-4.9883,-4.7734,-4.7109,-4.6016,-4.3008,-4.25,0.0,-4.2226,-4.3242,-4.4648,-4.6406,-4.6992,-4.7617,-4.8476,-4.7773,-4.7266,-4.7266,-4.668,-4.6289,-4.6289,-4.6289,-4.6016,-4.5351,-4.4726,-4.3242,-4.0937,0.0,0.0,0.0,0.0,0.0,0.0,0.0,0.0,0.0,0.0,0.0,0.0,0.0,0.0,0.0,0.0,0.0,0.0,0.0,0.0,0.0,0.0,0.0,0.0,0.0,0.0,0.0,0.0,0.0,-5.7822,-5.9026,0.0,0.0,0.0,0.0,-6.0488,-6.205,-6.3358,-6.4243,-6.5089,-6.5974,-6.6821,-6.609,-6.609,-6.6898,-6.6128,-6.5782,-6.5782,-6.5782,-6.5782,-6.5782,-6.5782,-6.4871,-6.3255,-6.3255,-6.2344,-6.0779,-6.0316,-5.9586,-5.8697,-5.8043,-5.7226,-5.6523,-5.7422,-5.7695,-5.7773,-5.8789,-5.8555,-5.789,-5.8672,-5.7187,-5.4922,-5.3984,-5.2539,0.0,0.0,-5.2539,-5.2969,-5.4726,-5.5195,-5.5039,-5.4258,-5.4023,-5.3555,-5.1875,-5.1445,-5.1055,-5.0195,-4.9336,-4.8203,-4.6367,0.0,-4.5742,-4.4922,-4.4883,-4.5547,-4.7305,-4.6836,-4.6719,-4.7578,-4.6875,-4.6367,-4.6367,-4.6328,-4.6289,-4.6289,-4.6289,-4.6289,-4.625,-4.6172,-4.5312,-4.3555,-4.1055,0.0,0.0,0.0,0.0,0.0,0.0,0.0,0.0,0.0,0.0,0.0,0.0,0.0,0.0,0.0,0.0,0.0,0.0,0.0,0.0,0.0,0.0,0.0,0.0,0.0,0.0,0.0,0.0,-6.0199,-6.1653,0.0,-6.2165,-6.2589,-6.3182,-6.4014,-6.5128,-6.5897,-6.6205,-6.7051,-6.7628,-6.7936,-6.709,-6.6821,-6.709,-6.6282,-6.5897,-6.5897,-6.5897,-6.5897,-6.5897,-6.5897,-6.4936,-6.3308,-6.3308,-6.2358,-6.0789,-6.0724,-6.0616,-6.0438,-6.0263,-5.9756,-5.914,-6.0039,-6.0,-5.9648,-6.0508,-6.0234,-5.9297,-5.7969,-5.6914,-5.5859,-5.4414,-5.3555,-5.3242,-5.4141,-5.4375,-5.4648,-5.582,-5.6133,-5.5937,-5.5039,-5.4414,-5.3672,-5.25,-5.1797,-5.1328,-5.1016,-5.0312,-4.918,-4.7422,-4.7617,-4.75,-4.6055,-4.6328,-4.6719,-4.6758,-4.6484,-4.6406,-4.6719,-4.6484,-4.6289,-4.6289,-4.6289,-4.6289,-4.6289,-4.6289,-4.6289,-4.6289,-4.5742,-4.4922,-4.3711,-4.1758,-3.9453,0.0,0.0,0.0,0.0,0.0,0.0,0.0,0.0,0.0,0.0,0.0,0.0,0.0,0.0,0.0,0.0,0.0,0.0,0.0,0.0,0.0,0.0,0.0,0.0,0.0,-5.8547,-6.0713,-6.1484,-6.3319,-6.457,-6.4784,-6.5068,-6.5769,-6.7076,-6.7667,-6.809,-6.8359,-6.8936,-6.9244,-6.9244,-6.8129,-6.7552,-6.7552,-6.6436,-6.5897,-6.5897,-6.5897,-6.5897,-6.5897,-6.5897,-6.4936,-6.3308,-6.3308,-6.2358,-6.0804,-6.0923,-6.1053,-6.1227,-6.1417,-6.1229,-6.0898,-6.1484,-6.1328,-6.0937,-6.1484,-6.1133,-6.0078,-5.8125,-5.7265,-5.6758,-5.5312,-5.4883,-5.5,-5.5586,-5.5742,-5.5859,-5.6445,-5.6601,-5.6328,-5.5156,-5.4414,-5.3672,-5.25,-5.1797,-5.1406,-5.1406,-5.0976,-5.0156,-4.8711,-4.8945,-4.875,-4.6992,-4.7226,-4.7305,-4.6406,-4.6289,-4.6289,-4.6289,-4.6289,-4.6289,-4.6289,-4.6289,-4.6289,-4.6289,-4.6016,-4.5859,-4.5859,-4.5039,-4.4297,-4.3711,-4.1758,-3.9609,-3.7305,0.0,0.0,0.0,0.0,0.0,0.0,0.0,0.0,0.0,0.0,0.0,0.0,0.0,0.0,0.0,0.0,0.0,0.0,0.0,0.0,0.0,0.0,0.0,-5.6932,-5.9024,-6.0823,-6.163,-6.3906,-6.5495,-6.5726,-6.6445,-6.7706,-6.9613,-6.9744,-7.009,-7.086,-7.0898,-7.0898,-7.0898,-6.9283,-6.8385,-6.8385,-6.6744,-6.5897,-6.5897,-6.5897,-6.5897,-6.5897,-6.5897,-6.4936,-6.3308,-6.3308,-6.2358,-6.0781,-6.0781,-6.0882,-6.1048,-6.1344,-6.1579,-6.168,-6.1719,-6.1719,-6.1719,-6.1719,-6.1133,-6.0273,-5.9453,-5.8594,-5.7734,-5.6875,-5.6601,-5.6601,-5.6601,-5.6601,-5.6601,-5.6601,-5.6601,-5.6172,-5.4414,-5.3984,-5.3516,-5.1797,-5.1406,-5.1406,-5.1406,-5.1406,-5.1133,-5.0351,-5.0234,-4.9648,-4.7891,-4.7656,0.0,-4.6406,-4.6289,-4.6289,-4.6289,-4.6289,-4.6289,-4.6289,-4.6289,-4.6289,-4.625,-4.5469,-4.5,-4.5,-4.4141,-4.3672,-4.3672,-4.125,-3.9101,-3.7383,0.0,0.0,0.0,0.0,0.0,0.0,0.0,0.0,0.0,0.0,0.0,0.0,0.0,0.0,0.0,0.0,0.0,0.0,0.0,0.0,0.0,-5.735,-5.8951,-6.0126,-6.1887,-6.3576,-6.4971,-6.6256,-6.7629,-6.908,-6.886,-6.9397,-7.1381,-7.0937,-7.0667,-7.0898,-7.0898,-7.0898,-7.0898,-6.9283,-6.8385,-6.8385,-6.6744,-6.5897,-6.5897,-6.5897,-6.5897,-6.5897,-6.5897,-6.4936,-6.3308,-6.3308,-6.2358,-6.0781,-6.0781,-6.0882,-6.1031,-6.1271,-6.1421,-6.1575,-6.1678,-6.1719,-6.1719,-6.1719,-6.1133,-6.0273,-5.9453,-5.8594,-5.7734,-5.6875,-5.6601,-5.6601,-5.6601,-5.6601,-5.6601,-5.6601,-5.6601,-5.6172,-5.4414,-5.3984,-5.3516,-5.1797,-5.1406,-5.1406,-5.1406,-5.1406,-5.1328,-5.1094,-5.1055,-5.0508,-4.8789,-4.8555,-4.8008,-4.6484,-4.6289,-4.6289,-4.6289,-4.6289,-4.6289,-4.6289,-4.6289,-4.6016,-4.5391,-4.5117,-4.5,-4.5,-4.4141,-4.3398,-4.2773,-4.207,-4.0898,0.0,0.0,0.0,0.0,0.0,0.0,0.0,0.0,0.0,0.0,0.0,0.0,0.0,0.0,0.0,0.0,0.0,0.0,0.0,0.0,0.0,0.0,-5.9685,-6.141,-6.3356,-6.42,-6.5081,-6.6329,-6.7504,-6.8851,-7.0437,-7.0105,-7.046,-7.2073,-7.1398,-7.0898,-7.0898,-7.0898,-7.0898,-7.0898,-6.9283,-6.8385,-6.8385,-6.6744,-6.5897,-6.5897,-6.5897,-6.5897,-6.5897,-6.5897,-6.4936,-6.3308,-6.3308,-6.2358,-6.0781,-6.0781,-6.0856,-6.0945,0.0,0.0,0.0,0.0,-6.1637,-6.1719,-6.1719,-6.1133,-6.0273,-5.9453,-5.8594,-5.7734,-5.6875,-5.6601,-5.6601,-5.6601,-5.6601,-5.6601,-5.6601,-5.6328,-5.5703,-5.4336,-5.3711,-5.3086,-5.1719,-5.1406,-5.1406,-5.1406,-5.1406,0.0,-5.1406,-5.1133,-5.043,-4.9101,-4.8594,-4.7851,-4.6484,-4.6289,-4.6289,-4.6289,-4.6289,-4.6289,-4.6289,-4.6289,0.0,0.0,0.0,-4.4844,-4.4453,-4.3984,0.0,0.0,0.0,0.0,0.0,0.0,0.0,0.0,-4.125,-4.1211,0.0,0.0,0.0,0.0,0.0,0.0,0.0,0.0,0.0,0.0,0.0,0.0,0.0,0.0,0.0,0.0,-6.2034,-6.3906,-6.6182,-6.5962,-6.5852,-6.6549,-6.7951,-6.9371,-7.0588,-7.0657,-7.1085,-7.2265,-7.1552,-7.1014,-7.0898,-7.0898,0.0,0.0,0.0,-6.8385,-6.8385,-6.6744,-6.5897,-6.5897,-6.5897,-6.5897,-6.5897,-6.5897,-6.4936,-6.3308,-6.3308,-6.2358,-6.0781,-6.0781,-6.0781,-6.0816,-6.0944,-6.1128,-6.1306,-6.1432,-6.1579,-6.1679,-6.168,0.0,0.0,-5.9414,-5.8555,-5.7617,-5.6836,-5.6601,-5.6601,-5.6601,-5.6601,-5.6601,-5.6601,-5.5937,-5.5078,-5.4219,-5.332,-5.2461,-5.1601,-5.1406,-5.1406,-5.1406,-5.1406,-5.1367,-5.1289,-5.0664,-4.9883,-4.9023,-4.8164,-4.7305,-4.6406,-4.6289,-4.6289,-4.6289,0.0,0.0,-4.6289,-4.6289,-4.625,-4.6172,-4.543,-4.4648,-4.3867,-4.3945,-4.3945,-4.3867,-4.3945,-4.4336,-4.5,-4.5117,-4.5547,-4.6211,-4.2383,-4.1836,0.0,0.0,0.0,0.0,0.0,0.0,0.0,0.0,0.0,0.0,0.0,0.0,0.0,0.0,0.0,-6.2071,-6.3723,-6.5228,-6.6329,-6.6916,-6.7283,-6.743,-6.8109,-6.936,-7.1367,-7.1352,-7.1799,-7.3164,-7.2437,-7.1629,-7.0937,-7.0898,-7.0898,-7.0898,-6.9283,-6.8385,-6.8385,-6.6744,-6.5897,-6.5897,-6.5897,0.0,-6.5897,-6.5897,-6.4936,-6.3308,-6.3308,-6.2358,-6.0781,-6.0781,-6.0781,-6.0816,-6.0944,-6.1128,-6.1306,-6.1432,-6.1512,-6.1532,-6.1677,-6.0703,-5.9414,-5.9258,-5.8125,-5.6836,-5.664,-5.6601,0.0,-5.6601,-5.6601,-5.6601,-5.6601,-5.5937,-5.5078,-5.4219,-5.332,-5.2461,-5.1601,-5.1406,-5.1406,-5.1406,-5.1406,-5.1172,-5.0547,-5.0312,-4.9883,-4.9023,-4.8164,-4.7305,-4.6406,-4.6289,-4.6289,-4.6289,-4.6289,-4.6289,-4.6289,-4.6289,-4.6016,-4.5312,-4.5078,-4.4922,-4.4766,-4.543,-4.5469,-4.4766,-4.543,-4.5547,-4.5,-4.5703,-4.6133,-4.6289,-4.5469,-4.5312,0.0,0.0,0.0,0.0,0.0,0.0,0.0,0.0,0.0,0.0,0.0,-6.0058,-6.1032,0.0,-6.3107,-6.4434,-6.5705,-6.6769,-6.7577,-6.8054,-6.8128,-6.7724,-6.8531,-6.9812,-7.1614,-7.1541,-7.1942,-7.3394,-7.2283,-7.136,-7.0937,-7.0898,-7.0898,-7.0898,-6.9283,-6.8385,-6.8385,-6.6744,-6.5897,-6.5897,-6.5897,-6.5897,-6.5897,-6.5436,-6.4551,-6.3281,-6.2858,-6.1973,-6.0781,-6.0781,-6.0781,-6.0804,-6.0871,-6.1009,-6.1172,-6.122,-6.1378,-6.1509,-6.1579,-6.0542,-5.9219,-5.9219,-5.8008,-5.6601,-5.6601,-5.6601,-5.6601,-5.6601,-5.6601,-5.6601,-5.6601,-5.5625,-5.4531,-5.4101,-5.3008,-5.1914,-5.1484,-5.1406,-5.1406,-5.1406,-5.1406,-5.1133,-5.0351,-4.9844,-4.9258,-4.8398,-4.75,-4.6797,-4.6367,-4.6289,-4.6289,-4.6289,-4.6289,-4.6289,-4.6289,-4.6289,-4.6094,-4.5664,-4.5664,-4.5664,-4.5664,-4.6055,-4.6094,-4.5664,-4.6094,-4.6094,-4.5664,-4.6094,-4.6289,-4.6289,-4.6289,-4.6289,0.0,0.0,0.0,0.0,0.0,0.0,0.0,-5.8165,-5.9511,-6.0319,-6.2013,-6.3616,-6.4536,-6.5049,-6.5691,-6.675,-6.75,-6.8201,-6.9009,-6.9009,-6.8696,-6.8157,-6.9026,-7.0181,-7.157,-7.1593,-7.1947,-7.3178,-7.1937,-7.1091,-7.0898,-7.0898,-7.0898,-7.0898,-6.9283,-6.8385,-6.8385,-6.6744,-6.5897,-6.5897,-6.5897,-6.5897,-6.5859,-6.5013,-6.4128,-6.3231,-6.2281,-6.1447,-6.0781,-6.0781,-6.0781,-6.0781,-6.0781,-6.086,-6.0973,-6.0988,-6.1175,-6.1417,-6.1491,-6.0444,-5.9139,-5.9179,-5.8008,-5.6601,-5.6601,-5.6601,-5.6601,-5.6561,-5.656,-5.656,-5.6517,-5.5269,-5.3943,-5.3943,-5.2656,-5.1406,-5.1406,-5.1406,-5.1406,-5.1406,-5.1406,-5.1094,-5.0117,-4.9375,-4.8594,-4.7734,-4.6875,-4.6289,-4.6289,-4.6289,-4.6289,-4.6289,-4.6289,-4.6289,-4.6289,-4.6289,-4.6289,-4.6289,-4.6289,-4.6289,-4.6289,-4.6289,-4.6289,-4.6289,-4.6289,-4.6289,-4.6289,-4.6289,-4.6289,-4.6289,-4.6289,-4.6289,-5.7176,-5.6791,-5.706,-5.7819,-5.855,-5.9473,0.0,-6.2089,-6.3012,-6.3858,-6.5063,-6.5998,-6.614,-6.6628,-6.7296,-6.8118,-6.8524,-6.9045,-6.9853,-6.9339,-6.9068,-6.9422,-6.9394,-6.9886,-7.1324,-7.1835,-7.2164,-7.2322,-7.2168,-7.1706,-7.0937,-7.0898,-7.0898,-7.0898,-6.9283,-6.8385,-6.8385,-6.6744,-6.5897,-6.5897,-6.5897,-6.5897,-6.5859,-6.5013,-6.4128,-6.3205,-6.1627,-6.0896,-6.0781,-6.0781,-6.0781,-6.0781,-6.0781,-6.0804,-6.0834,-6.0963,-6.1031,-6.1089,-6.1404,-6.0375,-5.8946,-5.9138,-5.8008,-5.6601,-5.6601,-5.6601,-5.6562,-5.6456,-5.6402,-5.6389,-5.6264,-5.5057,-5.3821,-5.3821,-5.2567,-5.1406,-5.1406,-5.1406,-5.1406,-5.1406,-5.1406,-5.0898,-4.9336,-4.8945,-4.8594,-4.7734,-4.6875,-4.6289,-4.6289,-4.6289,-4.6289,-4.6289,-4.6289,-4.6289,-4.6289,-4.6289,-4.6289,-4.6289,-4.6289,-4.6289,-4.6289,-4.6289,-4.6289,-4.6289,-4.6289,-4.6289,-4.6289,-4.6289,-4.6289,-4.6289,-4.6289,-4.6289,-5.9242,-5.96,-6.0062,-6.0435,-6.1127,-6.1897,-6.2627,-6.3858,-6.4936,-6.5282,-6.6932,-6.8219,-6.7855,-6.8148,-6.8622,-6.9117,-6.9425,-6.9889,-7.0697,-7.011,-6.989,-7.075,-6.9938,-6.9871,-7.1281,-7.1436,-7.1629,-7.2168,-7.1745,-7.1283,-7.0937,-7.0898,-7.0898,-7.0898,-6.9283,-6.8385,-6.8385,-6.6744,-6.5897,-6.5897,-6.5897,-6.5628,-6.5128,-6.4243,-6.3128,-6.182,-6.1089,-6.0781,-6.0781,-6.0781,-6.0781,-6.0781,-6.0781,-6.0781,-6.0804,-6.085,-6.0916,-6.1031,-6.1161,-6.0139,-5.881,-5.8897,-5.7779,-5.6374,-5.6374,-5.6374,-5.6365,-5.6285,-5.6273,-5.6143,-5.559,-5.4558,-5.358,-5.3034,-5.2054,-5.1222,-5.1222,-5.1222,-5.1222,-5.1222,-5.1254,-5.0765,-4.9085,-4.8864,-4.8437,-4.7031,-4.6523,-4.6289,-4.6289,-4.6289,-4.6289,-4.6289,-4.6289,-4.6289,-4.6289,-4.6289,-4.6289,-4.6289,-4.6289,-4.6289,-4.6289,-4.6289,-4.6289,-4.6289,-4.6289,-4.6289,-4.6289,-4.6289,-4.6289,-4.6289,-4.6289,-4.6289,-6.0935,-6.1639,-6.2139,-6.2358,-6.3243,-6.3935,-6.3705,-6.5166,-6.6513,-6.6282,-6.7898,-6.9201,-6.8755,-6.8935,-6.9393,-7.0029,-7.0239,-7.0706,-7.1738,-7.0873,-7.046,-7.1389,-7.0206,-6.9738,-7.0937,-7.0938,-7.1168,-7.1783,-7.1245,-7.0898,-7.0898,-7.0898,-7.0783,-7.0591,-6.9167,-6.8282,-6.8052,-6.6628,-6.5897,-6.5897,-6.5897,-6.5551,-6.4936,-6.382,-6.2397,-6.0781,-6.0781,-6.0781,-6.0781,-6.0781,-6.0781,-6.0781,-6.0781,-6.0781,-6.0781,-6.0781,-6.085,-6.0944,-6.0979,-5.998,-5.8661,-5.8671,-5.7553,-5.6191,-5.6191,-5.6191,-5.6186,-5.6141,-5.6128,-5.5922,-5.5029,-5.4155,-5.333,-5.2441,-5.1652,-5.1089,-5.1089,-5.1089,-5.1089,-5.1089,-5.1125,-5.0631,-4.8969,-4.8771,-4.8279,-4.6562,-4.6289,-4.6289,-4.6289,-4.6289,-4.6289,-4.6289,-4.6289,-4.6289,-4.6289,-4.6289,-4.6289,-4.6289,-4.6289,-4.6289,-4.6289,-4.6289,-4.6289,-4.6289,-4.6289,-4.6289,-4.6289,-4.6289,-4.6289,-4.6289,-4.6289,-4.6289,-6.1831,-6.2101,-6.2281,-6.3089,-6.4551,-6.559,-6.4743,-6.6513,-6.809,-6.7244,-6.7782,-6.8423,-6.841,-6.8633,-6.9375,-7.0979,-7.1046,-7.1442,-7.3105,-7.1458,-7.031,-7.0871,-6.997,-6.9511,-7.0099,-7.0608,-7.0898,-7.0937,-7.0898,-7.0898,-7.0898,-7.0898,-7.0552,-6.9744,-6.8859,-6.7975,-6.7128,-6.632,-6.5897,-6.5897,-6.5897,-6.5897,-6.5782,-6.4089,-6.2397,-6.0781,-6.0781,-6.0781,-6.0781,-6.0781,-6.0781,-6.0781,-6.0781,-6.0781,-6.0781,-6.0781,-6.0793,-6.08,-6.0954,-5.9913,-5.8513,-5.8674,-5.7553,-5.6191,-5.6191,-5.6191,-5.6164,-5.5947,-5.5932,-5.5689,-5.4756,-5.3944,-5.3174,-5.2322,-5.1605,-5.1089,-5.1089,-5.1089,-5.1089,-5.1089,-5.1094,-5.0586,-4.8962,-4.8701,-4.8175,-4.6523,-4.6289,-4.6289,-4.6289,-4.6289,-4.6289,-4.6289,-4.6289,-4.6289,-4.6289,-4.6289,-4.6289,-4.6289,-4.6289,-4.6289,-4.6289,-4.6289,-4.6289,-4.6289,-4.6289,-4.6289,-4.6289,-4.6289,-4.6289,-4.6289,-4.6289,-4.6289,-6.2024,-6.3332,-6.4666,-6.4974,-6.632,-6.7321,-6.6474,-6.7359,-6.8167,-6.7282,-6.7321,-6.7552,-6.7552,-6.7308,-6.7697,-6.9358,-7.0209,-7.1081,-7.2336,-7.1923,-7.1467,-7.1464,-7.0637,-7.0252,-7.0601,-7.0791,-7.0898,-7.0898,-7.0898,-7.0898,-7.0898,-7.0898,-7.0514,-6.9744,-6.8859,-6.7975,-6.709,-6.6282,-6.5897,-6.5897,-6.4743,-6.4166,-6.4128,-6.2435,-6.132,-6.0781,-6.0781,-6.0781,-6.0781,-6.0781,-6.0781,-6.0781,-6.0781,-6.0781,-6.0781,-6.0781,-6.0781,-6.0804,-6.0867,-5.977,-5.8353,-5.8414,-5.7282,-5.5852,-5.5852,-5.5852,-5.5834,-5.5789,-5.576,-5.5431,-5.3993,-5.3455,-5.2906,-5.1527,-5.1009,-5.0827,-5.0827,-5.0827,-5.0827,-5.0827,-5.0896,-5.0446,-4.882,-4.8626,-4.8135,-4.6523,-4.6289,-4.6289,-4.6289,-4.6289,-4.6289,-4.6289,-4.6289,-4.6289,-4.6289,-4.6289,-4.6289,-4.6289,-4.6289,-4.6289,-4.6289,-4.6289,-4.6248,-4.6153,-4.6153,-4.6153,-4.6153,-4.6153,-4.6203,-4.6289,-4.6289,-4.6289,-6.3294,-6.4859,-6.6397,-6.6705,-6.7859,-6.8552,-6.7359,-6.7782,-6.7975,-6.6513,-6.6205,-6.609,-6.5782,-6.5698,-6.6353,-6.8342,-6.9599,-7.0846,-7.2211,-7.2309,-7.2123,-7.1899,-7.1353,-7.101,-7.1084,-7.1238,-7.1245,-7.0937,-7.0898,-7.0898,-7.0898,-7.0629,-7.009,-6.9244,-6.8398,-6.7513,-6.6667,-6.6167,-6.5897,-6.5859,-6.4436,-6.3589,-6.3231,-6.1897,-6.1089,-6.0781,-6.0781,-6.0781,-6.0781,-6.0781,-6.0781,-6.0781,-6.0781,-6.0781,-6.0781,-6.0781,-6.0781,-6.0781,-6.0781,-5.9704,-5.8319,-5.8319,-5.7126,-5.5703,-5.5703,-5.5703,-5.5703,-5.5703,-5.5703,-5.5318,-5.3626,-5.3203,-5.2779,-5.1097,-5.0712,-5.0712,-5.0712,-5.0712,-5.0712,-5.0712,-5.0756,-5.0317,-4.8782,-4.8122,-4.7487,-4.6445,-4.6289,-4.6289,-4.6289,-4.6289,-4.6289,-4.6289,-4.6289,-4.6289,-4.6289,-4.6248,-4.6245,-4.6245,-4.6196,-4.615,-4.615,-4.615,-4.6136,-4.6014,-4.6014,-4.6014,-4.6014,-4.6014,-4.6089,-4.6245,-4.6245,-4.6248,-6.5487,-6.659,-6.7436,-6.8282,-6.909,-6.9244,-6.7552,-6.7744,-6.759,-6.5128,-6.4551,-6.4205,-6.332,-6.3935,-6.5359,-6.7821,-6.9284,-7.0834,-7.2717,-7.2641,-7.2322,-7.2285,-7.2049,-7.1765,-7.1468,-7.1912,-7.1822,-7.0975,-7.0898,-7.0898,-7.0898,-7.0129,-6.9321,-6.8436,-6.7552,-6.6705,-6.5897,-6.5897,-6.5859,-6.582,-6.4936,-6.4089,-6.3205,-6.2397,-6.1601,-6.0781,-6.0781,-6.0781,-6.0781,-6.0781,-6.0781,-6.0781,-6.0781,-6.0781,-6.0781,-6.0781,-6.0781,-6.0781,-6.0781,-5.9704,-5.8319,-5.8319,-5.7126,-5.5703,-5.5703,-5.5703,-5.5703,-5.5703,-5.5703,-5.5318,-5.3626,-5.3203,-5.2779,-5.1097,-5.0712,-5.0712,-5.0712,-5.0721,-5.0731,-5.0731,-5.0673,-5.0199,-4.8732,-4.7301,-4.6367,-4.6328,-4.6289,-4.6289,-4.6289,-4.6289,-4.6289,-4.6289,-4.6289,-4.6289,-4.6289,-4.6152,-4.6084,-4.6084,-4.5974,-4.5879,-4.5879,-4.5879,-4.5918,-4.587,-4.587,-4.587,-4.587,-4.587,-4.5967,-4.6084,-4.6084,-4.615,-6.655,-6.7898,-6.909,-6.9321,-6.9552,-6.9398,-6.8321,-6.7282,-6.6167,-6.4859,-6.3589,-6.2474,-6.1589,-6.2627,-6.4051,-6.5359,-6.8471,-7.1168,-7.2507,-7.3649,-7.4141,-7.3533,-7.3422,-7.2993,-7.2095,-7.2112,-7.1822,-7.0975,-7.0898,-7.0898,-7.0898,-7.0129,-6.9321,-6.8436,-6.7552,-6.6705,-6.5897,-6.5897,-6.5551,-6.4936,-6.4051,-6.3205,-6.2358,-6.1512,-6.1012,-6.0781,-6.0781,-6.0781,-6.0781,-6.0781,-6.0781,-6.0781,-6.0781,-6.0781,-6.0781,-6.0781,-6.0781,-6.0781,-6.0781,-5.9704,-5.8319,-5.8319,-5.7126,-5.5703,-5.5703,-5.5703,-5.5703,-5.5703,-5.5703,-5.5318,-5.3626,-5.3203,-5.2779,-5.1097,-5.0712,-5.0712,-5.0712,-5.0773,-5.0851,-5.0851,-5.0485,-4.9837,-4.8706,-4.781,-4.7031,-4.6406,-4.6289,-4.6289,-4.6289,-4.6289,-4.6248,-4.6152,-4.6147,-4.6093,-4.6001,-4.5974,-4.5963,-4.5963,-4.5935,-4.5879,-4.5879,-4.5879,-4.5877,-4.5846,-4.5846,-4.5846,-4.5846,-4.5846,-4.588,-4.5963,-4.5963,-4.5974,-6.8064,-6.9206,-7.0244,-7.0244,-6.9975,-6.936,-6.8129,-6.6821,-6.532,-6.332,-6.2166,-6.1166,-5.9935,-6.0781,-6.2166,-6.3782,-6.6974,-6.9875,-7.1769,-7.3509,-7.4519,-7.4442,-7.4442,-7.3968,-7.2856,-7.2783,-7.2245,-7.0975,-7.0898,-7.0744,-7.0398,-6.959,-6.8744,-6.7859,-6.7013,-6.6359,-6.5897,-6.5897,-6.5474,-6.4589,-6.3743,-6.2897,-6.2062,-6.1204,-6.0781,-6.0781,-6.0781,-6.0781,-6.0781,-6.0781,-6.0781,-6.0781,-6.0781,-6.0781,-6.0781,-6.0781,-6.0781,-6.0742,-6.0358,-5.9396,-5.8319,-5.8319,-5.7126,-5.5703,-5.5703,-5.5703,-5.5703,-5.5703,-5.5703,-5.5318,-5.3626,-5.3203,-5.2779,-5.1097,-5.0712,-5.0712,-5.0712,-5.0816,-5.0889,-5.0889,-5.0407,-4.9811,-4.9192,-4.8527,-4.7803,-4.6906,-4.6736,-4.6566,-4.6177,-4.6194,-4.615,-4.6014,-4.6005,-4.5985,-4.5927,-4.5872,-4.5875,-4.5875,-4.5813,-4.577,-4.577,-4.577,-4.5764,-4.5696,-4.5696,-4.5696,-4.5696,-4.5696,-4.5757,-4.5875,-4.5875,-4.5867,-6.9731,-7.0388,-7.0914,-7.0912,-7.0129,-6.8975,-6.7436,-6.6128,-6.4359,-6.1396,-6.0627,-6.0012,-5.8588,-5.905,-6.0473,-6.2885,-6.5436,-6.8084,-7.0861,-7.2758,-7.4149,-7.4969,-7.5045,-7.4647,-7.3587,-7.3399,-7.2668,-7.1014,-7.0783,-7.0437,-6.9744,-6.8859,-6.7936,-6.6974,-6.6244,-6.5897,-6.5897,-6.5782,-6.5282,-6.4436,-6.3551,-6.2704,-6.1908,-6.1127,-6.0781,-6.0781,-6.0781,-6.0781,-6.0781,-6.0781,-6.0781,-6.0781,-6.0781,-6.0781,-6.0781,-6.0781,-6.0781,-6.0704,-5.9935,-5.9088,-5.828,-5.8165,-5.7011,-5.5703,-5.5703,-5.5703,-5.5703,-5.5703,-5.5703,-5.5318,-5.378,-5.328,-5.2818,-5.1241,-5.0789,-5.0721,-5.0712,-5.0827,-5.0925,-5.0925,-5.0481,-5.0066,-4.9834,-4.9251,-4.853,-4.7677,-4.7338,-4.6921,-4.6168,-4.6066,-4.605,-4.5909,-4.5896,-4.5891,-4.5872,-4.5795,-4.5782,-4.5782,-4.5665,-4.5594,-4.5594,-4.5594,-4.5594,-4.5594,-4.5594,-4.5594,-4.5594,-4.5594,-4.5657,-4.5782,-4.5782,-4.5789,-7.0816,-7.1031,-7.1131,-7.094,-6.9206,-6.7475,-6.7167,-6.4282,-6.1512,-6.0935,-5.9704,-5.8627,-5.8357,-5.955,-6.1166,-6.3012,-6.5436,-6.7987,-7.0609,-7.2491,-7.3874,-7.4681,-7.4758,-7.4442,-7.3577,-7.286,-7.2014,-7.0975,-7.0283,-6.986,-6.9706,-6.8859,-6.7705,-6.6167,-6.5974,-6.5897,-6.5897,-6.5205,-6.4397,-6.3512,-6.2704,-6.1858,-6.1012,-6.0858,-6.0781,-6.0781,-6.0781,-6.0781,-6.0781,-6.0781,-6.0781,-6.0781,-6.0781,-6.0781,-6.0781,-6.0781,-6.0781,-6.0781,-6.0627,-5.9588,-5.8165,-5.7473,-5.6511,-5.5703,-5.5703,-5.5703,-5.5703,-5.5703,-5.5703,-5.5472,-5.4511,-5.3741,-5.2972,-5.1923,-5.1164,-5.073,-5.0835,-5.0985,-5.1058,-5.1058,-5.0977,-5.0651,-4.9789,-4.9621,-4.9322,-4.8422,-4.7674,-4.7121,-4.6836,-4.6299,-4.5905,-4.584,-4.5821,-4.5764,-4.5642,-4.5632,-4.5616,-4.5616,-4.5612,-4.5594,-4.5594,-4.5594,-4.5594,-4.5594,-4.5594,-4.5594,-4.5594,-4.5594,-4.5612,-4.5616,-4.5616,-4.5632,-7.1084,-7.1221,-7.1148,-7.0953,-6.8975,-6.6974,-6.6551,-6.3512,-6.055,-5.9665,-5.8511,-5.7473,-5.7011,-5.8357,-5.9896,-6.1127,-6.3474,-6.6167,-6.9167,-7.0706,-7.2168,-7.386,-7.4091,-7.3745,-7.2899,-7.2437,-7.1822,-7.0975,-7.0167,-6.9513,-6.9052,-6.7821,-6.6744,-6.5936,-6.5897,-6.5897,-6.5897,-6.5051,-6.4166,-6.3269,-6.2474,-6.1639,-6.0781,-6.0781,-6.0781,-6.0781,-6.0781,-6.0781,-6.0781,-6.0781,-6.0781,-6.0781,-6.0781,-6.0781,-6.0781,-6.0781,-6.0781,-6.0742,-6.0281,-5.9319,-5.8165,-5.728,-5.6406,-5.5703,-5.5703,-5.5703,-5.5703,-5.5703,-5.5703,-5.5511,-5.4703,-5.3857,-5.2972,-5.2115,-5.1279,-5.074,-5.0883,-5.0959,-5.1017,-5.1017,-5.1042,-5.0931,-5.0368,-5.0332,-5.0079,-4.9219,-4.8257,-4.7502,-4.7016,-4.625,-4.5736,-4.5681,-4.5712,-4.5673,-4.5603,-4.5594,-4.5594,-4.5594,-4.5594,-4.5594,-4.5594,-4.5594,-4.5594,-4.5594,-4.5594,-4.5594,-4.5594,-4.5594,-4.5594,-4.5594,-4.6086,-4.6278,-7.0899,-7.1144,-7.1164,-7.0785,-6.8771,-6.6628,-6.582,-6.282,-5.9896,-5.8588,-5.7473,-5.656,-5.6049,-5.7088,-5.8396,-5.9588,-6.1473,-6.3974,-6.7398,-6.8783,-7.0321,-7.2668,-7.3129,-7.2937,-7.2283,-7.2014,-7.1552,-7.0706,-6.9706,-6.8859,-6.8167,-6.6705,-6.5897,-6.5897,-6.5897,-6.582,-6.5628,-6.4743,-6.3897,-6.3051,-6.2204,-6.1447,-6.0781,-6.0781,-6.0781,-6.0781,-6.0781,-6.0781,-6.0781,-6.0781,-6.0781,-6.0781,-6.0781,-6.0781,-6.0781,-6.0781,-6.0781,-6.0704,-6.0012,-5.9127,-5.8204,-5.7511,-5.6549,-5.5703,-5.5703,-5.5703,-5.5703,-5.5703,-5.5703,-5.5549,-5.4934,-5.4126,-5.3203,-5.2154,-5.1318,-5.0764,-5.0898,-5.0889,-5.0889,-5.0889,-5.0972,-5.0998,-5.089,-5.0867,-5.0635,-4.9939,-4.902,-4.8163,-4.7509,-4.6663,-4.6133,-4.6133,-4.5825,-4.5594,-4.5594,-4.5594,-4.5594,-4.5594,-4.5594,-4.5594,-4.5594,-4.5594,-4.5594,-4.5594,-4.5594,-4.571,-4.5902,-4.5902,-4.5979,-4.6172,-4.6855,-4.7154,-7.0402,-7.1026,-7.121,-7.0244,-6.7977,-6.5782,-6.4936,-6.1512,-5.8511,-5.8319,-5.6973,-5.6049,-5.6753,-5.7022,-5.7907,-6.0281,-6.0896,-6.2204,-6.5628,-6.7513,-6.9167,-7.0937,-7.1822,-7.2283,-7.2206,-7.1475,-7.0667,-6.986,-6.8282,-6.7282,-6.7205,-6.6359,-6.5897,-6.5897,-6.5897,-6.5513,-6.4743,-6.3858,-6.3012,-6.2216,-6.132,-6.0858,-6.0781,-6.0781,-6.0781,-6.0781,-6.0781,-6.0781,-6.0781,-6.0781,-6.0781,-6.0781,-6.0781,-6.0781,-6.0781,-6.0781,-6.0781,-6.0781,-6.0704,-5.9627,-5.828,-5.8204,-5.7049,-5.5703,-5.5703,-5.5703,-5.5703,-5.5703,-5.5703,-5.5665,-5.5588,-5.4972,-5.3972,-5.2308,-5.137,-5.0867,-5.0889,-5.0889,-5.0889,-5.0889,-5.0795,-5.073,-5.0712,-5.0702,-5.0702,-5.0625,-4.9836,-4.924,-4.9163,-4.8394,-4.7855,-4.7855,-4.6509,-4.5594,-4.5594,-4.5594,-4.5594,-4.5594,-4.5594,-4.5594,-4.5594,-4.5594,-4.5594,-4.5594,-4.5594,-4.597,-4.6778,-4.6778,-4.7163,-4.7855,-4.7971,-4.8009,-6.9408,-7.0196,-7.0572,-7.005,-6.7872,-6.5667,-6.4782,-6.132,-5.8319,-5.8319,-5.6896,-5.5818,-5.6126,-5.6637,-5.7522,-5.905,0.0,-6.1012,-6.3935,-6.4897,-6.6359,-6.909,-6.9706,-7.0321,-7.1321,-7.1091,-7.036,-6.9013,-6.7782,-6.6898,-6.6397,-6.6051,-6.5897,-6.5897,-6.5397,-6.4936,-6.4589,-6.3243,-6.2397,-6.2101,-6.1216,-6.0781,-6.0781,-6.0781,-6.0781,-6.0781,-6.0781,-6.0781,-6.0781,-6.0781,-6.0781,-6.0781,-6.0781,-6.0781,-6.0781,-6.0781,-6.0781,-6.0781,-6.0781,-5.9704,-5.8319,-5.8319,-5.7126,-5.5703,-5.5703,-5.5703,-5.5703,-5.5703,-5.5703,-5.5703,-5.5703,-5.5088,-5.4049,-5.2308,-5.1693,-5.1382,-5.0889,-5.0773,-5.0773,-5.0773,-5.074,-5.0712,-5.0712,-5.0712,-5.0712,-5.0712,-4.9971,-4.9394,-4.9394,-4.8625,-4.8086,-4.8086,-4.7509,-4.7086,-4.7086,-4.7086,-4.7086,-4.7086,-4.6663,-4.6394,-4.6394,-4.5902,-4.5864,-4.6355,-4.6394,-4.6778,-4.7625,-4.7625,-4.7778,-4.8125,-4.8625,-4.8894,-6.8062,-6.9133,-6.9731,-6.9326,-6.736,-6.5282,-6.4397,-6.1166,-5.8319,-5.8319,-5.6896,-5.5703,-5.5703,-5.6214,-5.6907,0.0,0.0,-5.9935,-6.2243,-6.3012,-6.4282,-6.6974,-6.7513,-6.8321,-7.0014,-7.0167,-6.9552,-6.8129,-6.7244,-6.6513,-6.5936,-6.5667,-6.5513,-6.5513,-6.4936,-6.4359,-6.3858,-6.2666,-6.1985,-6.1716,-6.1089,-6.0781,-6.0781,-6.0781,-6.0781,-6.0781,-6.0781,-6.0781,-6.0781,-6.0781,-6.0781,-6.0781,-6.0781,-6.0781,-6.0781,-6.0781,-6.0781,-6.0781,-6.0781,-5.9858,-5.8627,-5.8396,-5.728,-5.6049,-5.578,-5.5703,-5.5703,-5.5703,-5.5703,-5.5703,-5.5703,-5.5088,-5.4203,-5.2972,-5.2462,-5.2038,-5.1241,-5.1048,-5.0971,-5.075,-5.0712,-5.0712,-5.0712,-5.0712,-5.0712,-5.0712,-5.0164,-4.9779,-4.9779,-4.924,-4.8856,-4.8856,-4.8856,-4.8663,-4.8125,-4.8086,-4.8086,-4.8086,-4.7586,-4.7231,-4.7231,-4.6663,-4.6624,-4.724,-4.7231,-4.7663,-4.8471,-4.8471,-4.8625,-4.8894,-4.951,-4.9779,-6.6445,-6.7904,-6.8722,-6.7911,-6.6157,-6.4397,-6.3512,-6.0704,-5.8319,-5.8319,-5.6896,-5.5703,-5.5703,-5.5703,-5.6011,-5.6868,0.0,0.0,-6.0589,-6.2243,-6.3628,-6.4551,-6.5397,-6.659,-6.8282,-6.8436,-6.8052,-6.7167,-6.6359,-6.5897,-6.5897,-6.5089,-6.4628,-6.4628,-6.4589,-6.3782,-6.2139,-6.2101,-6.1678,-6.0819,-6.0781,-6.0781,-6.0781,-6.0781,-6.0781,-6.0781,-6.0781,-6.0781,-6.0781,-6.0781,-6.0781,-6.0781,-6.0781,-6.0781,-6.0781,-6.0781,-6.0781,-6.0781,-6.0781,-6.0204,-5.9358,-5.855,-5.7703,-5.683,-5.5972,-5.5703,-5.5703,-5.5703,-5.5703,-5.5703,-5.5703,-5.5088,-5.4511,-5.4472,-5.3818,-5.2972,-5.2077,-5.1885,-5.1654,-5.0856,-5.0712,-5.0712,-5.0712,-5.0712,-5.0712,-5.0712,-5.0712,-5.0712,-5.0712,-5.0673,-5.0673,-5.0673,-5.0673,-4.9971,-4.824,-4.8086,-4.8086,-4.8086,-4.8086,-4.8086,-4.8086,-4.8086,-4.8086,-4.8086,-4.8086,-4.8509,-4.9394,-4.9394,-4.9817,-5.0673,-5.0673,-5.0712,-6.3906,-6.525,-6.6108,-6.5258,-6.4366,-6.3358,-6.1935,-5.9896,-5.8127,-5.7511,-5.6511,-5.5703,-5.5703,-5.5703,-5.6165,-5.7665,-5.8127,0.0,-6.055,-6.1781,-6.3012,-6.4436,-6.6397,-6.7821,-6.8359,-6.7859,-6.7398,-6.7128,-6.6359,-6.5628,-6.5051,-6.4743,-6.4589,-6.4589,-6.3474,-6.2627,-6.2101,-6.1524,-6.105,-6.0781,-6.0781,-6.0781,-6.0781,-6.0781,-6.0781,-6.0781,-6.0781,-6.0781,-6.0781,-6.0781,-6.0781,-6.0781,-6.0781,-6.0781,-6.0781,-6.0781,-6.0781,-6.0781,-6.0781,-6.0242,-5.9358,-5.855,-5.7703,-5.683,-5.5972,-5.5703,-5.5703,-5.5703,-5.5703,-5.5703,-5.5703,-5.5511,-5.5164,-5.4626,-5.428,-5.3703,-5.2231,-5.1885,-5.1654,-5.0866,-5.0712,-5.0712,-5.0712,-5.0712,-5.0712,-5.0712,-5.0712,-5.0712,-5.0712,-5.0712,-5.0712,-5.0712,-5.0712,-5.0481,-4.9933,-4.9894,-4.9894,-4.9894,-4.9317,-4.8971,-4.8971,-4.8432,-4.8394,-4.8971,-4.8971,-4.9433,-5.0289,-5.0289,-5.0442,-5.0712,-5.0712,-5.0712,-6.2109,-6.3533,-6.4474,-6.3935,-6.3088,-6.2089,-6.105,-5.9242,-5.7665,-5.7099,-5.6329,-5.5703,-5.5703,-5.5748,-5.6097,-5.7148,-5.7906,-5.8708,-5.9715,-6.1127,-6.2589,-6.3935,-6.609,-6.7321,-6.7013,-6.7051,-6.6974,-6.6667,-6.5859,-6.5166,-6.4628,-6.4012,-6.3666,-6.3666,-6.2627,-6.1947,-6.1589,-6.105,-6.0781,-6.0781,-6.0781,-6.0781,-6.0781,-6.0781,-6.0781,-6.0781,-6.0781,-6.0781,0.0,-6.0781,-6.0781,-6.0781,-6.0781,-6.0781,-6.0781,-6.0781,-6.0781,-6.0781,-6.0781,-6.0242,-5.9358,-5.855,-5.7473,-5.6406,-5.5857,-5.5703,-5.5703,-5.5703,-5.5703,-5.5703,-5.5703,-5.5703,-5.5549,-5.5049,-5.4934,-5.4472,-5.2769,-5.2385,-5.2049,-5.0943,-5.0712,-5.0712,-5.0712,-5.0712,-5.0712,-5.0712,-5.0712,-5.0712,-5.0712,-5.0712,-5.0712,-5.0712,-5.0712,-5.0712,-5.0712,-5.0712,-5.0712,-5.0712,-5.0202,-4.9894,-4.9894,-4.9356,-4.9356,-4.9894,-4.9894,-5.0164,-5.0712,-5.0712,-5.0712,-5.0712,-5.0712,-5.0712,0.0,-6.2398,-6.3423,-6.3339,-6.1956,-6.0589,-6.055,-5.8715,0.0,-5.6907,-5.6252,-5.5703,-5.578,-5.5827,-5.5909,-5.5899,-5.7342,-5.8442,-5.8391,-6.0589,-6.2512,-6.3397,-6.4897,-6.559,-6.4782,-6.609,-6.6667,-6.5859,-6.5051,-6.4551,-6.4436,-6.2935,-6.2062,-6.2024,-6.2024,-6.1639,-6.0819,-6.0781,-6.0781,-6.0781,-6.0781,-6.0781,-6.0781,-6.0781,-6.0781,-6.0781,-6.0781,-6.0781,-6.0781,-6.0781,-6.0781,-6.0781,-6.0781,-6.0781,-6.0781,-6.0781,-6.0781,-6.0781,-6.0781,-6.0281,-5.9435,-5.8588,-5.7126,-5.5703,-5.5703,-5.5703,-5.5703,-5.5703,-5.5703,-5.5703,-5.5703,-5.5703,-5.5703,-5.5703,-5.5703,-5.5241,-5.3626,-5.328,-5.2818,-5.1087,-5.0789,-5.0789,-5.0712,-5.0712,-5.0712,-5.0712,-5.0712,-5.0712,-5.0712,-5.0712,-5.0712,-5.0712,-5.0712,-5.0712,-5.0712,-5.0712,-5.0712,-5.0712,-5.0712,-5.0712,-5.0712,-5.0712,-5.0712,-5.0712,-5.0712,-5.0712,-5.0712,-5.0712,-5.0712,-5.0712,-5.0712,-5.0712,-5.8495,0.0,-5.9703,-5.8947,-5.88,-5.8704,0.0,-5.7445,-5.683,-5.6126,-5.5818,-5.5895,-5.656,-5.6179,-5.6162,-5.7484,-5.8066,-5.855,-5.9138,-6.1396,-6.3589,-6.5128,-6.5628,-6.582,-6.559,-6.5936,-6.582,-6.4974,-6.4705,-6.4051,-6.2755,-6.2332,-6.1793,-6.1127,-6.1089,-6.1012,-6.0781,-6.0781,-6.0781,-6.0781,-6.0781,-6.0781,-6.0781,-6.0781,-6.0781,-6.0781,-6.0781,-6.0781,-6.0781,-6.0781,-6.0781,-6.0781,-6.0781,-6.0781,-6.0781,-6.0781,-6.0781,-6.0781,-6.0781,-6.0666,-6.0242,-5.8781,-5.7126,-5.5703,-5.5703,-5.5703,-5.5703,-5.5703,-5.5703,-5.5703,-5.5703,-5.5703,-5.5703,-5.5703,-5.5703,-5.5434,-5.4395,-5.4203,-5.3664,-5.1972,-5.1625,-5.1433,-5.0827,-5.0712,-5.0712,-5.0712,-5.0712,-5.0712,-5.0712,-5.0712,-5.0712,-5.0712,-5.0712,-5.0712,-5.0712,-5.0712,-5.0712,-5.0712,-5.0712,-5.0712,-5.0712,-5.0712,-5.0712,-5.0712,-5.0712,-5.0712,-5.0712,-5.0712,-5.0712,-5.0712,-5.0712,-5.0712,-5.706,-5.8116,-5.9147,-5.8537,-5.8336,-5.8165,-5.7703,-5.6703,-5.5703,-5.5241,-5.4818,-5.4818,-5.5703,-5.5807,-5.6194,-5.7495,-5.8389,-5.9461,-6.1023,-6.2435,-6.3935,-6.5705,-6.5897,-6.5897,-6.5897,-6.5551,-6.5128,-6.4628,-6.3897,-6.3051,-6.2139,-6.1716,-6.1293,-6.0819,-6.0781,-6.0781,-6.0781,-6.0781,-6.0781,-6.0781,-6.0781,-6.0781,-6.0781,-6.0781,-6.0781,-6.0781,-6.0781,-6.0781,-6.0781,-6.0781,-6.0781,-6.0781,-6.0781,-6.0781,-6.0781,-6.0781,-6.0781,-6.0781,-6.0781,-6.0281,-5.9358,-5.7665,-5.6472,-5.5703,-5.5703,-5.5703,-5.5703,-5.5703,-5.5703,-5.5703,-5.5703,-5.5703,-5.5703,-5.5703,-5.5703,-5.5472,-5.4664,-5.4511,-5.4087,-5.2779,-5.2154,-5.1769,-5.1318,-5.0933,-5.0712,-5.0712,-5.0712,-5.0712,-5.0712,-5.0712,-5.0712,-5.0712,-5.0712,-5.0712,-5.0712,-5.0712,-5.0712,-5.0712,-5.0712,-5.0712,-5.0712,-5.0712,-5.0712,-5.0712,-5.0712,-5.0712,-5.0712,-5.0712,-5.0712,-5.0712,-5.0712,-5.0712,-5.6388,-5.8054,-5.9717,-5.9271,-5.8615,-5.8088,-5.7934,-5.6242,-5.4664,-5.4664,-5.4087,-5.3857,-5.4703,-5.5538,-5.6307,-5.7093,-5.8597,-6.0538,-6.2959,-6.3308,-6.3935,-6.5705,-6.5782,-6.5705,-6.5705,-6.4897,-6.4359,-6.4243,-6.2897,-6.2062,-6.1908,-6.1204,-6.0781,-6.0781,-6.0781,-6.0781,-6.0781,-6.0781,-6.0781,-6.0781,-6.0781,-6.0781,-6.0781,-6.0781,-6.0781,-6.0781,-6.0781,0.0,-6.0781,-6.0781,-6.0781,-6.0781,-6.0781,-6.0781,-6.0781,-6.0781,-6.0781,-6.0781,-6.0666,-5.9588,-5.805,-5.6434,-5.5818,-5.5703,-5.5703,-5.5703,-5.5703,-5.5703,-5.5703,-5.5703,-5.5703,-5.5703,-5.5703,-5.5703,-5.5703,-5.5511,-5.4818,-5.4664,-5.4434,-5.3587,-5.2818,-5.2192,-5.1962,-5.1318,-5.0827,-5.0712,-5.0712,-5.0712,-5.0712,-5.0712,-5.0712,-5.0712,-5.0712,-5.0712,-5.0712,-5.0712,-5.0712,-5.0712,-5.0712,-5.0712,-5.0712,-5.0712,-5.0712,-5.0712,-5.0712,-5.0712,-5.0712,-5.0712,-5.0712,-5.0712,-5.0712,-5.0712,-5.7108,-5.8048,-5.8474,-5.6744,-5.6785,-5.7022,-5.628,-5.578,-5.5511,-5.5511,-5.5395,-5.5588,-5.6445,-5.6746,-5.7103,-5.7945,-5.8891,-6.0404,-6.2935,-6.3308,-6.3935,-6.5705,-6.5243,-6.4782,-6.4782,-6.4012,-6.3205,-6.2524,-6.2255,-6.1793,-6.105,-6.0858,-6.0781,-6.0781,-6.0781,-6.0781,-6.0781,-6.0781,-6.0781,-6.0781,-6.0781,-6.0781,-6.0781,-6.0781,-6.0781,-6.0781,0.0,-6.0781,-6.0781,-6.0781,-6.0781,-6.0781,-6.0781,-6.0781,-6.0781,-6.0781,-6.0781,-6.0704,-5.9973,-5.9088,-5.8127,-5.7137,-5.6291,-5.5703,-5.5703,-5.5703,-5.5703,-5.5703,-5.5703,-5.5703,-5.5703,-5.5703,-5.5703,-5.5703,-5.5703,-5.5665,-5.5549,-5.5511,-5.528,-5.4472,-5.4203,-5.3626,-5.2154,-5.1808,-5.1471,-5.0789,-5.0712,-5.0712,-5.0712,-5.0712,-5.0712,-5.0712,-5.0712,-5.0712,-5.0712,-5.0712,-5.0712,-5.0712,-5.0712,-5.0712,-5.0712,-5.0712,-5.0712,-5.0712,-5.0712,-5.0712,-5.0712,-5.0712,-5.0712,-5.0712,-5.0712,-5.0712,-5.6013,-5.6628,-5.694,-5.5961,-5.7049,-5.8242,-5.7857,-5.7049,-5.6291,-5.578,-5.5357,-5.5164,-5.5588,-5.6406,-5.7599,-5.9358,-5.9973,-6.0781,-6.2435,-6.2666,-6.3128,-6.4359,-6.4128,-6.3897,-6.3897,-6.3128,-6.2512,-6.2139,-6.1678,-6.1204,-6.0819,-6.0781,-6.0781,-6.0781,-6.0781,-6.0781,-6.0781,-6.0781,-6.0781,-6.0781,-6.0781,-6.0781,-6.0781,-6.0781,-6.0781,-6.0781,0.0,-6.0781,-6.0781,-6.0781,-6.0781,-6.0781,-6.0781,-6.0781,-6.0781,-6.0781,-6.0781,-6.0666,-5.9819,-5.9281,-5.8742,-5.7407,-5.6714,-5.6329,-5.5818,-5.5703,-5.5703,-5.5703,-5.5703,-5.5703,-5.5703,-5.5703,-5.5703,-5.5703,-5.5703,-5.5703,-5.5703,-5.5703,-5.5588,-5.5203,-5.478,-5.4241,-5.3433,-5.25,-5.1769,-5.1395,-5.0971,-5.0712,-5.0712,-5.0712,-5.0712,-5.0712,-5.0712,-5.0712,-5.0712,-5.0712,-5.0712,-5.0712,-5.0712,-5.0712,-5.0712,-5.0712,-5.0712,-5.0712,-5.0712,-5.0712,-5.0712,-5.0712,-5.0712,-5.0712,-5.0712,-5.0712,-5.519,-5.5437,-5.5675,-5.571,-5.7165,-5.8704,-5.9127,-5.7896,-5.6637,-5.6357,-5.5818,-5.5395,-5.5395,-5.6588,-5.828,-6.0435,-6.0781,-6.1089,-6.1985,-6.2101,-6.2397,-6.3192,-6.3128,-6.3012,-6.3012,-6.2281,-6.1793,-6.1793,-6.1166,-6.0781,-6.0781,-6.0781,-6.0781,-6.0781,-6.0781,-6.0781,-6.0781,-6.0781,-6.0781,-6.0781,-6.0781,-6.0781,-6.0781,-6.0781,-6.0781,-6.0781,-6.0781,-6.0781,-6.0781,-6.0781,-6.0781,-6.0781,-6.0781,-6.0781,-6.0781,-6.0781,-6.0781,-6.0666,-5.9819,-5.9511,-5.9204,-5.7561,-5.6983,-5.683,-5.5972,-5.5703,-5.5703,-5.5703,-5.5703,-5.5703,-5.5703,-5.5703,-5.5703,-5.5703,-5.5703,-5.5703,-5.5703,-5.5703,-5.5703,-5.5703,-5.5203,-5.4703,-5.4511,-5.3395,-5.2385,-5.1962,-5.1395,-5.0894,-5.0712,-5.0712,-5.0712,-5.0712,-5.0712,-5.0712,-5.0712,-5.0712,-5.0712,-5.0712,-5.0712,-5.0712,-5.0712,-5.0712,-5.0712,-5.0712,-5.0712,-5.0712,-5.0712,-5.0712,-5.0712,-5.0712,-5.0712,-5.0712,-5.5948,-5.5558,-5.5081,-5.5567,-5.5818,-5.6395,-5.8011,-5.7049,-5.6242,-5.778,-5.8088,-5.805,-5.805,-5.8742,-5.9627,-6.0627,-6.0781,-6.1089,-6.1985,-6.2101,-6.2397,-6.3192,-6.2627,-6.2178,-6.2178,-6.1396,-6.0896,-6.0896,-6.0819,-6.0781,-6.0781,-6.0781,-6.0781,-6.0781,-6.0781,-6.0781,-6.0781,-6.0781,-6.0781,-6.0781,-6.0781,-6.0781,-6.0781,-6.0781,-6.0781,-6.0781,-6.0781,-6.0781,-6.0781,-6.0781,-6.0781,-6.0781,-6.0781,-6.0781,-6.0781,-6.0781,-6.0781,-6.0666,-5.9819,-5.9511,-5.9204,-5.7561,-5.6983,-5.683,-5.5972,-5.5703,-5.5703,-5.5703,-5.5703,-5.5703,-5.5703,-5.5703,-5.5703,-5.5703,-5.5703,-5.5703,-5.5703,-5.5703,-5.5703,-5.5703,-5.5665,-5.5395,-5.4626,-5.4395,-5.378,-5.2154,-5.1846,-5.1548,-5.0789,-5.0712,-5.0712,-5.0712,-5.0712,-5.0712,-5.0712,-5.0712,-5.0712,-5.0712,-5.0712,-5.0712,-5.0712,-5.0712,-5.0712,-5.0712,-5.0712,-5.0712,-5.0712,-5.0712,-5.0712,-5.0712,-5.0712,-5.0712,-5.4537,-5.4684,-5.4793,-5.4911,-5.5742,-5.6819,-5.805,-5.8165,-5.8242,-5.8896,-5.905,-5.905,-5.905,-5.9281,-5.9781,-6.0666,-6.0781,-6.0935,-6.1243,-6.1281,-6.1396,-6.1704,-6.1473,-6.1281,-6.1281,-6.0713,-6.0482,-6.0769,-6.0521,-6.0495,-6.0769,-6.0781,-6.0781,-6.0781,-6.0781,-6.0781,-6.0781,-6.0781,-6.0781,-6.0781,-6.0781,-6.0781,-6.0781,-6.0781,-6.0781,-6.0781,-6.0781,-6.0781,-6.0781,-6.0781,-6.0781,-6.0781,-6.0781,-6.0781,-6.0781,-6.0781,-6.0781,-6.0742,-6.0435,-6.0319,-6.0127,-5.8934,-5.8204,-5.7665,-5.6791,-5.6126,-5.5703,-5.5703,-5.5703,-5.5703,-5.5703,-5.5703,-5.5703,-5.5703,-5.5703,-5.5703,-5.5703,-5.5703,-5.5703,-5.5703,-5.5703,-5.5588,-5.528,-5.4818,-5.428,-5.3626,-5.2577,-5.1769,-5.151,-5.101,-5.0712,-5.0712,-5.0712,-5.0712,-5.0712,-5.0712,-5.0712,-5.0712,-5.0712,-5.0712,-5.0712,-5.0712,-5.0712,-5.0712,-5.0712,-5.0712,-5.0712,-5.0712,-5.0712,-5.0712,-5.0712,-5.0712,-5.3641,-5.3784,-5.4041,-5.44,-5.5357,-5.6588,-5.7973,-5.8742,-5.9281,-5.9819,-5.9896,-5.9896,-5.9896,-5.9896,-6.0127,-6.0704,-6.0781,-6.0781,-6.0781,-6.0781,-6.0781,-6.0781,-6.0781,-6.0781,-6.0781,-6.0365,-6.0297,-6.0757,-6.0365,-6.0311,-6.0769,-6.0781,-6.0781,-6.0781,-6.0781,-6.0781,-6.0781,-6.0781,-6.0781,-6.0781,-6.0781,-6.0781,-6.0781,-6.0781,-6.0781,-6.0781,-6.0781,-6.0781,-6.0781,-6.0781,-6.0781,-6.0781,-6.0781,-6.0781,-6.0781,-6.0781,-6.0781,-6.0781,-6.0781,-6.0781,-6.0666,-5.9781,-5.8973,-5.8127,-5.7253,-5.6406,-5.5703,-5.5703,-5.5703,-5.5703,-5.5703,-5.5703,-5.5703,-5.5703,-5.5703,-5.5703,-5.5703,-5.5703,-5.5703,-5.5703,-5.5703,-5.5703,-5.5703,-5.5241,-5.478,-5.4549,-5.3472,-5.25,-5.1962,-5.1433,-5.0971,-5.075,-5.0712,-5.0712,-5.0712,-5.0712,-5.0712,-5.0712,-5.0712,-5.0712,-5.0712,-5.0712,-5.0712,-5.0712,-5.0712,-5.0712,-5.0712,-5.0712,-5.0712,-5.0712,-5.0712,-5.0712,-5.365,-5.2962,-5.2657,-5.414,-5.4511,-5.5203,-5.7742,-5.8319,-5.8781,-6.0473,-6.0781,-6.0781,-6.0781,-6.0781,-6.0781,-6.0781,-6.0781,-6.0781,-6.0781,-6.0781,-6.0781,-6.0781,-6.0781,-6.0781,-6.0781,-6.0365,-6.0297,-6.0757,-6.0351,-6.0311,-6.0757,-6.0781,-6.0781,-6.0781,-6.0781,-6.0781,-6.0781,-6.0781,-6.0781,-6.0781,-6.0781,-6.0781,-6.0781,-6.0781,-6.0781,-6.0781,-6.0781,-6.0781,-6.0781,-6.0781,-6.0781,-6.0781,-6.0781,-6.0781,-6.0781,-6.0781,-6.0781,-6.0781,-6.0781,-6.0781,-6.0666,-5.9781,-5.8973,-5.8127,-5.7253,-5.6406,-5.5703,-5.5703,-5.5703,-5.5703,-5.5703,-5.5703,-5.5703,-5.5703,-5.5703,-5.5703,-5.5703,-5.5703,-5.5703,-5.5703,-5.5703,-5.5703,-5.5703,-5.5703,-5.5434,-5.4626,-5.4511,-5.3857,-5.2115,-5.1885,-5.1587,-5.0789,-5.0712,-5.0712,-5.0712,-5.0712,-5.0712,-5.0712,-5.0712,-5.0712,-5.0712,-5.0712,-5.0712,-5.0712,-5.0712,-5.0712,-5.0712,-5.0712,-5.0712,-5.0712,-5.0712,-5.0712,-5.2169,-5.2827,-5.3935,-5.4398,-5.628,-5.8204,-5.8973,-5.9127,-5.9473,-6.055,-6.0781,-6.0781,-6.0781,-6.0781,-6.0781,-6.0781,-6.0781,-6.0781,-6.0781,-6.0781,-6.0781,-6.0781,-6.0781,-6.0781,-6.0781,-6.0089,-5.9808,-6.0283,-5.987,-5.9823,-6.0297,-6.0622,-6.0781,-6.0781,-6.0482,-6.0311,-6.0311,-5.9962,-5.9977,-6.0311,-6.0311,-6.0482,-6.0781,-6.0781,-6.0781,-6.0781,-6.0781,-6.0781,-6.0781,-6.0781,-6.0781,-6.0781,-6.0781,-6.0781,-6.0781,-6.0781,-6.0781,-6.0781,-6.0781,-6.0781,-6.0666,-5.9781,-5.8973,-5.8127,-5.7253,-5.6406,-5.5703,-5.5703,-5.5703,-5.5703,-5.5703,-5.5703,-5.5703,-5.5703,-5.5703,-5.5703,-5.5703,-5.5703,-5.5703,-5.5703,-5.5703,-5.5703,-5.5703,-5.5703,-5.5626,-5.5395,-5.4857,-5.3857,-5.2115,-5.1885,-5.1587,-5.0789,-5.0712,-5.0712,-5.0712,-5.0712,-5.0712,-5.0712,-5.0712,-5.0712,-5.0712,-5.0712,-5.0712,-5.0712,-5.0712,-5.0712,-5.0712,-5.0712,-5.0712,-5.0712,-5.0712,-5.0712,-5.2621,-5.3582,-5.4805,-5.5773,-5.755,-5.9204,-5.9858,-6.0012,-6.0165,-6.0704,-6.0781,-6.0781,-6.0781,-6.0781,-6.0781,-6.0781,-6.0781,-6.0781,-6.0781,-6.0781,-6.0781,-6.0781,-6.0781,-6.0781,-6.0781,-5.9946,-5.9576,-6.0074,-5.9475,-5.9407,-6.0074,-6.0365,-6.061,-6.0781,-6.0338,-6.0103,-6.0103,-5.9625,-5.9526,-5.9823,-5.9823,-5.9883,-6.0022,-6.0568,-6.0781,-6.0781,-6.0781,-6.0781,-6.0781,-6.0781,-6.0781,-6.0781,-6.0781,-6.0781,-6.0781,-6.0781,-6.0781,-6.0781,-6.0781,-6.055,-6.0204,-5.9665,-5.8704,-5.7703,-5.7176,-5.6406,-5.5703,-5.5703,-5.5703,-5.5703,-5.5703,-5.5703,-5.5703,-5.5703,-5.5703,-5.5703,-5.5703,-5.5703,-5.5703,-5.5703,-5.5703,-5.5703,-5.5703,-5.5703,-5.5703,-5.5703,-5.5011,-5.401,-5.2577,-5.2115,-5.1587,-5.0789,-5.0712,-5.0712,-5.0712,-5.0712,-5.0712,-5.0712,-5.0712,-5.0712,-5.0712,-5.0712,-5.0712,-5.0712,-5.0712,-5.0712,-5.0712,-5.0712,-5.0712,-5.0712,-5.0712,-5.0712,-5.392,-5.4621,-5.5268,-5.7692,-5.8396,-5.8934,-6.0435,-6.0781,-6.0781,-6.0781,-6.0781,-6.0781,-6.0781,-6.0781,-6.0781,-6.0781,-6.0804,-6.0827,-6.0827,-6.0811,-6.0861,-6.0827,-6.0827,-6.0816,-6.0793,-5.9946,-5.9559,-5.9991,-5.9194,-5.9047,-5.9916,-6.0036,-6.0245,-6.0544,-6.0168,-5.9854,-5.9748,-5.9282,-5.9075,-5.9111,-5.9111,-5.8987,-5.873,-6.0022,-6.0604,-6.055,-6.055,-6.055,-6.055,-6.055,-6.0627,-6.0666,-6.0666,-6.0742,-6.0781,-6.0781,-6.0781,-6.0781,-6.0781,-6.0242,-5.9473,-5.9396,-5.8319,-5.6983,-5.6907,-5.6329,-5.5703,-5.5703,-5.5703,-5.5703,-5.5703,-5.5703,-5.5703,-5.5703,-5.5703,-5.5703,-5.5703,-5.5703,-5.5703,-5.5703,-5.5703,-5.5703,-5.5703,-5.5703,-5.5703,-5.5703,-5.5088,-5.428,-5.3318,-5.25,-5.1702,-5.0789,-5.0712,-5.0712,-5.0712,-5.0682,-5.0634,-5.0634,-5.0614,-5.0594,-5.0594,-5.0644,-5.0702,-5.0634,-5.0634,-5.0624,-5.0594,-5.0594,-5.0594,-5.0594,-5.0594,-5.0614,-5.1696,-5.3143,-5.516,-5.7676,-5.9281,-6.0358,-6.0704,-6.0781,-6.0781,-6.0781,-6.0781,-6.0781,-6.0781,-6.0781,-6.0781,-6.0781,-6.0902,-6.0963,-6.0963,-6.1073,-6.112,-6.0982,-6.0963,-6.0915,-6.0804,-5.9946,-5.9441,-5.9526,-5.9009,-5.8776,-5.9009,-5.9712,-5.971,-5.8796,-5.8662,-5.8144,-5.7115,-5.6655,-5.6594,-5.6987,-5.6987,-5.7267,-5.7905,-5.8814,-5.9077,-5.8858,-5.8858,-5.8858,-5.8858,-5.8858,-5.9204,-5.9781,-5.9781,-6.0204,-6.0781,-6.0781,-6.0781,-6.0781,-6.0781,-6.0242,-5.9396,-5.8781,-5.7857,-5.6868,-5.6214,-5.5857,-5.5703,-5.5703,-5.5703,-5.5703,-5.5703,-5.5703,-5.5703,-5.5703,-5.5703,-5.5703,-5.5703,-5.5703,-5.5703,-5.5703,-5.5703,-5.5703,-5.5703,-5.5703,-5.5703,-5.5703,-5.5549,-5.4895,-5.3395,-5.3049,-5.2356,-5.0866,-5.0712,-5.0712,-5.0712,-5.0391,-5.0218,-5.0218,-4.9936,-4.9779,-4.9779,-5.0358,-5.0535,-5.0218,-5.0218,-5.0049,-4.9779,-4.9779,-4.9779,-4.9779,-4.9779,-4.9924,-5.1792,-5.3615,-5.578,-5.8742,-6.0165,-6.0781,-6.0781,-6.0781,-6.0781,-6.0781,-6.0781,-6.0781,-6.0781,-6.0781,-6.0827,-6.0892,-6.0954,-6.104,-6.1135,-6.1234,-6.1253,-6.1165,-6.1065,-6.0836,-6.0354,-5.9417,-5.8652,-5.822,-5.76,-5.7295,-5.7521,-5.801,-5.8081,-5.7628,-5.7406,-5.6967,-5.6293,-5.5802,-5.5711,-5.5969,-5.5969,-5.622,-5.6717,-5.7987,-5.8462,-5.8319,-5.8319,-5.8319,-5.8319,-5.8319,-5.855,-5.8934,-5.8934,-5.9435,-6.0165,-6.0165,-6.0435,-6.0742,-6.0319,-5.9627,-5.8781,-5.7934,-5.7088,-5.6291,-5.5818,-5.5703,-5.5703,-5.5703,-5.5703,-5.5703,-5.5703,-5.5703,-5.5703,-5.5703,-5.5703,-5.5703,-5.5703,-5.5703,-5.5703,-5.5703,-5.5703,-5.5703,-5.5703,-5.5703,-5.5703,-5.5703,-5.5703,-5.5241,-5.3972,-5.3818,-5.3164,-5.1471,-5.109,-5.0823,-5.0429,-5.0024,-4.9832,-4.9832,-4.9603,-4.9489,-4.9489,-4.9911,-5.0012,-4.9832,-4.9832,-4.97,-4.9489,-4.9489,-4.9489,-4.9489,-4.9489,-4.9603,-5.2024,-5.4373,-5.6665,-5.9781,-6.0704,-6.0781,-6.0781,-6.0781,-6.0742,-6.0589,-6.0704,-6.0742,-6.0589,-6.0589,-6.0575,-6.0574,-6.0605,-6.0662,-6.0873,-6.1032,-6.1154,-6.1095,-6.0946,-6.0544,-5.9891,-5.8689,-5.767,-5.6958,-5.6095,-5.5776,-5.6174,-5.6254,-5.6388,-5.6561,-5.6257,-5.5993,-5.5785,-5.5391,-5.517,-5.517,-5.5279,-5.5315,-5.5404,-5.6954,-5.7716,-5.7857,-5.7762,-5.7739,-5.7739,-5.7739,-5.7855,-5.7981,-5.8066,-5.8588,-5.9281,-5.9281,-5.9742,-6.0281,-5.955,-5.8781,-5.7973,-5.7253,-5.6406,-5.5703,-5.5703,-5.5703,-5.5703,-5.5703,-5.5703,-5.5703,-5.5703,-5.5703,-5.5703,-5.5703,-5.5703,-5.5703,-5.5703,-5.5703,-5.5703,-5.5703,-5.5703,-5.5703,-5.5703,-5.5703,-5.5703,-5.5703,-5.5703,-5.5395,-5.4587,-5.4511,-5.3874,-5.2207,-5.1717,-5.1231,-5.0482,-4.992,-4.9612,-4.9612,-4.9401,-4.9295,-4.9295,-4.9295,-4.9295,-4.9295,-4.9356,-4.9356,-4.9295,-4.9295,-4.9295,-4.9295,-4.9295,-4.9326,-4.9586,-5.3403,-5.7291,-5.9204,-6.0242,-6.0781,-6.0781,-6.0781,-6.0589,-5.9819,-6.0281,-6.055,-5.9819,-5.9665,-5.9485,-5.8931,-5.8937,-5.9054,-5.9205,-5.9976,-6.0493,-6.036,-6.0224,-6.0041,-5.9822,-5.8154,-5.7033,-5.692,-5.6095,-5.5618,-5.5705,-5.6075,-5.582,-5.4764,-5.5094,-5.474,-5.3645,-5.3561,-5.3518,-5.3518,-5.3879,-5.4056,-5.4092,-5.47,-5.541,-5.6038,-5.5695,-5.553,-5.553,-5.553,-5.595,-5.6677,-5.7036,-5.7703,-5.8473,-5.8473,-5.855,-5.8627,-5.8511,-5.7896,-5.7137,-5.706,-5.6406,-5.5703,-5.5703,-5.5703,-5.5703,-5.5703,-5.5703,-5.5703,-5.5703,-5.5703,-5.5703,-5.5703,-5.5703,-5.5703,-5.5703,-5.5703,-5.5703,-5.5703,-5.5703,-5.5703,-5.5703,-5.5703,-5.5703,-5.5703,-5.5703,-5.5395,-5.4587,-5.4511,-5.3991,-5.2665,-5.2476,-5.2205,-5.1676,-5.0649,-5.0027,-5.0027,-4.9028,-4.8458,-4.8458,-4.8458,-4.8458,-4.8458,-4.8796,-4.8813,-4.8458,-4.8458,-4.8458,-4.8458,-4.8458,-4.8658,-5.0773,-5.3591,-5.6126,-5.828,-5.9127,-5.9396,-5.9396,-5.9396,-5.9281,-5.8896,-5.9127,-5.9281,-5.8896,-5.8819,-5.8767,-5.8637,-5.8674,-5.8797,-5.9042,-5.9451,-5.9726,-5.9638,-5.9428,-5.9054,-5.8512,-5.7332,-5.6323,-5.5632,-5.4951,-5.4494,-5.4274,-5.4469,-5.4306,-5.3739,-5.3916,-5.3789,-5.3225,-5.3203,-5.3203,-5.3225,-5.338,-5.3585,-5.3795,-5.4013,-5.443,-5.504,-5.4833,-5.476,-5.4775,-5.5026,-5.5349,-5.5719,-5.6092,-5.678,-5.755,-5.755,-5.7896,-5.8242,-5.7742,-5.733,-5.6907,-5.6445,-5.6011,-5.5703,-5.5703,-5.5703,-5.5703,-5.5703,-5.5703,-5.5703,-5.5703,-5.5543,-5.5375,-5.5375,-5.5186,-5.5107,-5.5338,-5.5554,-5.5703,-5.5703,-5.5703,-5.5703,-5.5703,-5.5703,-5.5703,-5.5703,-5.5703,-5.5549,-5.5203,-5.4983,-5.4433,-5.3391,-5.2853,-5.2124,-5.0991,-5.0228,-4.9621,-4.9104,-4.8604,-4.8306,-4.8306,-4.8306,-4.8306,-4.8306,-4.8477,-4.8495,-4.8306,-4.8306,-4.8306,-4.8306,-4.8306,-4.8383,-5.0933,-5.2549,-5.3818,-5.6357,-5.7319,-5.7703,-5.7934,-5.8127,-5.8242,-5.8011,-5.7973,-5.7896,-5.7665,-5.7819,-5.7998,-5.8052,-5.8059,-5.8191,-5.8475,-5.8711,-5.8867,-5.8867,-5.8556,-5.8104,-5.7448,-5.6606,-5.5617,-5.4591,-5.4066,-5.3643,-5.3209,-5.3203,-5.3203,-5.3203,-5.3203,-5.3203,-5.3203,-5.3203,-5.3203,-5.3203,-5.3203,-5.3359,-5.3662,-5.3662,-5.3833,-5.419,-5.4272,-5.4322,-5.4338,-5.4671,-5.4848,-5.5012,-5.5399,-5.6033,-5.6676,-5.6676,-5.7088,-5.755,-5.6907,-5.6676,-5.656,-5.5895,-5.5703,-5.5703,-5.5703,-5.5621,-5.5554,-5.5554,-5.5458,-5.5399,-5.5399,-5.5173,-5.4933,-5.4933,-5.4716,-5.4594,-5.4988,-5.5411,-5.5703,-5.5703,-5.5703,-5.5703,-5.5703,-5.5703,-5.5703,-5.5703,-5.5599,-5.5554,-5.5554,-5.5199,-5.4662,-5.3865,-5.3245,-5.2363,-5.099,-5.0283,-4.9627,-4.8967,-4.8526,-4.8306,-4.8306,-4.8306,-4.8306,-4.8306,-4.8306,-4.8306,-4.8306,-4.8306,-4.8306,-4.8306,-4.8306,-4.8306,-4.7855,-4.9009,-5.0279,-5.2818,-5.4664,-5.6049,-5.6868,-5.7703,-5.8088,-5.7253,-5.706,-5.683,-5.5972,-5.6522,-5.6927,-5.6413,-5.6347,-5.6437,-5.6717,-5.7461,-5.7969,-5.7969,-5.7662,-5.7448,-5.7409,-5.6067,-5.4995,-5.4516,-5.4066,-5.3643,-5.3209,-5.3203,-5.3203,-5.3203,-5.3203,-5.3203,-5.3203,-5.3203,-5.3203,-5.3203,-5.3203,-5.3225,-5.3209,-5.3209,-5.323,-5.3293,-5.3644,-5.3814,-5.3832,-5.3851,-5.4135,-5.4563,-5.496,-5.5375,-5.578,-5.578,-5.578,-5.5818,-5.578,-5.578,-5.5742,-5.5703,-5.5703,-5.5703,-5.5703,-5.5423,-5.5134,-5.5134,-5.4848,-5.4547,-5.4547,-5.4532,-5.4516,-5.4516,-5.45,-5.4594,-5.4988,-5.5411,-5.5703,-5.5703,-5.5703,-5.5703,-5.5703,-5.5703,-5.5703,-5.5703,-5.5387,-5.5134,-5.5134,-5.4775,-5.4355,-5.3831,-5.3777,-5.3551,-5.3088,-5.161,-5.0729,-5.0655,-4.9187,-4.8306,-4.8306,-4.8306,-4.8306,-4.8306,-4.8306,-4.8306,-4.8306,-4.8306,-4.8306,-4.8306,-4.8306,-4.8306,-4.7625,-4.8317,-4.9048,-5.1087,-5.2433,-5.3356,-5.3664,-5.4395,-5.5088,-5.5318,-5.4934,-5.4626,-5.4895,-5.5588,-5.6135,-5.6024,-5.6128,-5.6256,-5.6452,-5.6793,-5.707,-5.707,-5.68,-5.6625,-5.6625,-5.5932,-5.5338,-5.4905,-5.45,-5.4048,-5.3624,-5.3339,-5.3203,-5.3203,-5.3203,-5.3203,-5.3203,-5.3203,-5.3203,-5.3203,-5.3203,-5.3203,-5.3203,-5.3203,-5.3203,-5.3225,-5.3359,-5.3404,-5.3424,-5.3683,-5.3887,-5.4118,-5.4833,-5.5053,-5.4947,-5.5212,-5.53,-5.5262,-5.504,-5.5107,-5.5262,-5.4988,-5.4919,-5.4919,-5.4919,-5.4819,-5.4701,-5.4701,-5.4594,-5.4484,-5.4484,-5.4272,-5.4015,-5.372,-5.3851,-5.4101,-5.4217,-5.4833,-5.5224,-5.496,-5.5147,-5.5224,-5.496,-5.4919,-5.4919,-5.4919,-5.4804,-5.4701,-5.4701,-5.4338,-5.3977,-5.3795,-5.3565,-5.3138,-5.2511,-5.1426,-5.0582,-5.0068,-4.893,-4.8306,-4.8306,-4.8306,-4.8306,-4.8306,-4.8306,-4.8306,-4.8306,-4.8306,-4.8306,-4.8306,-4.8306,-4.8306,-4.6971,-4.7278,-4.7663,-4.9394,-5.024,-5.0846,-5.1692,-5.2346,-5.301,-5.3895,-5.3587,-5.3395,-5.3972,-5.4511,-5.4988,-5.5426,-5.5663,-5.5891,-5.6341,-5.6514,-5.6562,-5.6557,-5.6351,-5.6175,-5.6116,-5.5843,-5.5543,-5.5134,-5.4716,-5.4288,-5.3814,-5.3404,-5.3078,-5.2821,-5.2527,-5.2527,-5.2784,-5.2821,-5.2931,-5.3203,-5.3203,-5.3203,-5.3203,-5.3203,-5.3203,-5.3203,-5.3203,-5.3203,-5.3209,-5.3504,-5.3663,-5.3851,-5.443,-5.4609,-5.4516,-5.479,-5.489,-5.4848,-5.4579,-5.4671,-5.4848,-5.4579,-5.4484,-5.4484,-5.4484,-5.4387,-5.4255,-5.4255,-5.4153,-5.4068,-5.4068,-5.3833,-5.3506,-5.3272,-5.3383,-5.3604,-5.3604,-5.4288,-5.4804,-5.4547,-5.4701,-5.4804,-5.4532,-5.4484,-5.4484,-5.4484,-5.4355,-5.4255,-5.4255,-5.3888,-5.3604,-5.3604,-5.3359,-5.3004,-5.2454,-5.1426,-5.0582,-5.0051,-4.893,-4.8306,-4.8306,-4.8306,-4.8306,-4.8306,-4.8306,-4.8306,-4.8306,-4.8306,-4.8306,-4.8306,-4.8306,-4.8306,0.0,0.0,0.0,-4.7625,-4.8048,-4.8702,-5.1192,-5.1769,-5.2038,-5.2933,-5.3126,-5.3087,-5.3164,-5.3126,-5.3446,-5.4459,-5.4737,-5.519,-5.6182,-5.6434,-5.6481,-5.6321,-5.623,-5.609,-5.5862,-5.575,-5.5554,-5.5147,-5.4731,-5.4305,-5.3832,-5.3404,-5.2821,-5.1977,-5.1206,-5.1169,-5.194,-5.194,-5.238,-5.3167,-5.3167,-5.3167,-5.3203,-5.3203,-5.3203,-5.3203,-5.3203,-5.3203,-5.3203,-5.3203,-5.3424,-5.3758,-5.3814,-5.4066,-5.4452,-5.4468,-5.4468,-5.4468,-5.449,-5.4452,-5.4468,-5.449,-5.4452,-5.4452,-5.4452,-5.4135,-5.3758,-5.3758,-5.3504,-5.3203,-5.3203,-5.3203,-5.3203,-5.3203,-5.3203,-5.3203,-5.3203,-5.3833,-5.4452,-5.4452,-5.4452,-5.4468,-5.4452,-5.4452,-5.4452,-5.4452,-5.4066,-5.3758,-5.3758,-5.3407,-5.3188,-5.3151,-5.3151,-5.3151,-5.3151,-5.1683,-5.0765,-5.0765,-4.9224,-4.8306,-4.8306,-4.8306,-4.8306,-4.8306,-4.8306,-4.8306,-4.8306,-4.8306,-4.8306,-4.8306,-4.8306,-4.8306,-4.5594,0.0,0.0,0.0,0.0,0.0,-4.8115,-4.8731,-4.9586,-5.1087,-5.0894,-5.0818,-5.2038,-5.1779,-5.1655,-5.2531,-5.3402,-5.4066,-5.4333,-5.4582,-5.4684,-5.453,-5.4944,-5.5196,-5.5056,-5.5442,-5.5632,-5.5554,-5.4876,-5.4436,-5.4305,-5.3029,-5.1977,-5.1169,-5.0912,-5.0912,-5.1132,-5.1132,-5.1536,-5.2344,-5.2344,-5.2637,-5.3203,-5.3203,-5.3203,-5.3203,-5.3203,-5.3203,-5.3203,-5.3203,-5.3272,-5.34,-5.3683,-5.3683,-5.3602,-5.3888,-5.3995,-5.3941,-5.3643,-5.3758,-5.3923,-5.3643,-5.3563,-5.3563,-5.3563,-5.3444,-5.3359,-5.3359,-5.3293,-5.3203,-5.3203,-5.3203,-5.3203,-5.3203,-5.3203,-5.3203,-5.3203,-5.338,-5.3563,-5.3563,-5.3777,-5.3906,-5.3622,-5.3563,-5.3563,-5.3563,-5.3461,-5.3158,-5.2569,-5.241,-5.2123,-5.1536,-5.1463,-5.1463,-5.1463,-5.0508,-4.9941,-4.9941,-4.8893,-4.8306,-4.8306,-4.8306,-4.8306,-4.8306,-4.8306,-4.8306,-4.8306,-4.8306,-4.8306,-4.8306,-4.8306,-4.8306,-4.571,-4.5594,-4.571,-4.6047,0.0,0.0,-4.724,-4.7509,-4.7971,-4.9356,-4.9202,-4.9163,-5.0115,-4.9933,-4.9894,-5.0741,-5.1478,-5.2313,-5.3457,-5.3769,-5.3886,-5.3741,-5.4051,-5.4354,-5.4577,-5.4959,-5.5318,-5.5665,-5.4947,-5.4188,-5.3493,-5.1894,-5.0785,-5.0288,-4.9958,-4.9921,-5.0288,-5.0288,-5.0692,-5.1499,-5.183,-5.205,-5.2234,-5.2564,-5.2527,-5.2234,-5.2564,-5.2711,-5.2747,-5.3078,-5.3203,-5.3209,-5.3464,-5.342,-5.3209,-5.3464,-5.3546,-5.3524,-5.3293,-5.3359,-5.3524,-5.3272,-5.3203,-5.3203,-5.3203,-5.3203,-5.3203,-5.3203,-5.3203,-5.3203,-5.3203,-5.3203,-5.3203,-5.3203,-5.3203,-5.3203,-5.3203,-5.3203,-5.3203,-5.3203,-5.34,-5.3484,-5.323,-5.3203,-5.3203,-5.3203,-5.2931,-5.2527,-5.205,-5.172,-5.1316,-5.0839,-5.0802,-5.0802,-5.0802,-5.0068,-4.961,-4.961,-4.8783,-4.8306,-4.8306,-4.8306,-4.8306,-4.8306,-4.8306,-4.8306,-4.8306,-4.8306,-4.8306,-4.8306,-4.8306,-4.8306,-4.5896,-4.5666,-4.5858,-4.654,-4.6299,0.0,-4.7548,-4.7355,-4.7077,-4.7817,-4.7971,-4.8009,-4.8086,-4.8086,-4.8355,-4.9125,-4.9443,-5.0455,-5.298,-5.3447,-5.3468,-5.3327,-5.3295,-5.3528,-5.4157,-5.428,-5.4664,-5.5357,-5.4666,-5.3501,-5.1818,-5.0381,-4.9537,-4.9463,-4.871,-4.8673,-4.9463,-4.9463,-4.9848,-5.0692,-5.1389,-5.1389,-5.0839,-5.1536,-5.1463,-5.0839,-5.1573,-5.1903,-5.205,-5.2784,-5.3093,-5.3203,-5.3203,-5.3203,-5.3203,-5.3203,-5.3203,-5.3203,-5.3203,-5.3203,-5.3203,-5.3203,-5.3203,-5.3203,-5.3203,-5.3203,-5.3203,-5.3203,-5.3203,-5.3203,-5.3203,-5.3203,-5.3203,-5.3203,-5.3203,-5.3203,-5.3203,-5.3203,-5.3203,-5.3203,-5.3203,-5.3203,-5.3203,-5.3203,-5.3167,-5.3078,-5.2454,-5.194,-5.1756,-5.1096,-5.0618,-5.0545,-5.0508,-5.0508,-5.0508,-4.9848,-4.9463,-4.9463,-4.871,-4.8306,-4.8306,-4.8306,-4.8306,-4.8306,-4.8306,-4.8306,-4.8306,-4.8306,-4.8306,-4.8306,-4.8306,-4.8306,-4.6396,-4.6167,-4.6052,-4.5583,-4.655,0.0,-4.6317,-4.6509,-4.6923,-4.7077,-4.7115,-4.7317,-4.7971,-4.8086,-4.8163,-4.8317,-4.9056,-5.0067,-5.1385,-5.1624,-5.1628,-5.16,-5.2046,-5.2351,-5.2415,-5.3049,-5.351,-5.3664,-5.293,-5.1778,-5.0147,-4.9721,-4.9224,-4.8563,-4.8379,-4.8379,-4.8563,-4.8563,-4.8967,-4.9831,-4.9978,-5.0325,-5.0802,-5.0949,-5.0949,-5.0802,-5.0986,-5.1389,-5.2013,-5.216,-5.2637,-5.3203,-5.3203,-5.3203,-5.3203,-5.3203,-5.3203,-5.3203,-5.3203,-5.3203,-5.3203,-5.3203,-5.3203,-5.3203,-5.3203,-5.3203,-5.3203,-5.3203,-5.3203,-5.3203,-5.3203,-5.3203,-5.3203,-5.3203,-5.3203,-5.3203,-5.3203,-5.3203,-5.3203,-5.3203,-5.3203,-5.3203,-5.3203,-5.3203,-5.3004,-5.2344,-5.2087,-5.1557,-5.0235,-4.9941,-4.9574,-4.8857,-4.8783,-4.8783,-4.8783,-4.8636,-4.8563,-4.8563,-4.8379,-4.8306,-4.8306,-4.8306,-4.8306,-4.8306,-4.8306,-4.8306,-4.8306,-4.8306,-4.8306,-4.8306,-4.8306,-4.8306,-4.5972,-4.543,-4.5468,-4.5444,-4.6031,0.0,0.0,-4.611,-4.624,-4.624,-4.5893,-4.574,-4.6124,-4.6201,-4.6355,-4.6778,-4.7653,-4.857,-4.9568,-5.0097,-5.0518,-5.0945,-5.0859,-5.1073,-5.1828,-5.2308,-5.2576,-5.2616,-5.185,-5.0858,-4.9669,-4.915,-4.871,-4.8306,-4.8306,-4.8306,-4.8306,-4.8306,-4.8526,-4.8967,-4.939,-4.9554,-4.9591,-4.9994,-4.9958,-4.9591,-4.9994,-5.0435,-5.0859,-5.1646,-5.2234,-5.2637,-5.3041,-5.3203,-5.3203,-5.3203,-5.3203,-5.3203,-5.3203,-5.3203,-5.3203,-5.3203,-5.3203,-5.3203,-5.3203,-5.3203,-5.3203,-5.3203,-5.3203,-5.3203,-5.3203,-5.3203,-5.3203,-5.3203,-5.3203,-5.3203,-5.3203,-5.3203,-5.3078,-5.2674,-5.2931,-5.3203,-5.3203,-5.2858,-5.2454,-5.205,-5.1336,-5.0528,-4.9721,-4.9243,-4.8783,-4.8343,-4.8306,-4.8306,-4.8306,-4.8306,-4.8306,-4.8306,-4.8306,-4.8306,-4.8306,-4.8306,-4.8306,-4.8306,-4.8306,-4.8306,-4.8306,-4.8306,-4.8306,-4.8306,-4.8306,-4.8306,-4.6094,-4.5447,-4.5471,-4.5646,-4.5836,-4.5928,0.0,0.0,0.0,-4.5523,-4.4982,-4.4547,-4.4547,-4.4393,-4.4586,-4.5479,-4.6201,-4.6964,-4.7913,-4.8631,-4.942,-5.0308,-4.9663,-4.974,-5.1269,-5.1423,-5.148,-5.1627,-5.0808,-5.0065,-4.9509,-4.8731,-4.8306,-4.8306,-4.8306,-4.8306,-4.8306,-4.8306,-4.8306,-4.8306,-4.9003,-4.8967,-4.8343,-4.9003,-4.8967,-4.8343,-4.904,-4.9463,-4.9721,-5.1006,-5.161,-5.1867,-5.2821,-5.3203,-5.3203,-5.3203,-5.3203,-5.3203,-5.3203,-5.3203,-5.3203,-5.3203,-5.3203,-5.3203,-5.3203,-5.3203,-5.3203,-5.3203,-5.3203,-5.3203,-5.3203,-5.3203,-5.3203,-5.3203,-5.3203,-5.3203,-5.3203,-5.3203,-5.2968,-5.216,-5.2527,-5.2931,-5.2763,-5.2344,-5.1867,-5.1593,-5.0418,-4.9537,-4.939,-4.8746,-4.8306,-4.8306,-4.8306,-4.8306,-4.8306,-4.8306,-4.8306,-4.8306,-4.8306,-4.8306,-4.8306,-4.8306,-4.8306,-4.8306,-4.8306,-4.8306,-4.8306,-4.8306,-4.8306,-4.8306,-4.8306,-4.8306,-4.8716,-4.8401,-4.79,-4.5811,-4.7162,-4.8277,-4.5457,0.0,-4.6009,-4.5284,0.0,-4.5441,-4.5441,0.0,0.0,-4.5479,-4.5671,-4.6056,-4.6929,-4.7122,-4.7554,-4.8474,-4.839,-4.8625,-4.9586,-4.9663,-4.9841,-5.0278,-4.9194,-4.8657,-4.8939,-4.855,-4.8306,-4.8306,-4.8306,-4.8306,-4.8306,-4.8306,-4.8306,-4.8306,-4.8416,-4.8416,-4.8306,-4.8416,-4.8379,-4.8306,-4.8416,-4.8893,-4.961,-4.9794,-5.0288,-5.1096,-5.2637,-5.3203,-5.3203,-5.3203,-5.3203,-5.3203,-5.3203,-5.3203,-5.3203,-5.3203,-5.3203,-5.3203,-5.3203,-5.3203,-5.3203,-5.3203,-5.3203,-5.3203,-5.3203,-5.3203,-5.3203,-5.3203,-5.3203,-5.3203,-5.3203,-5.3203,-5.2968,-5.216,-5.205,-5.1903,-5.1206,-5.1573,-5.1499,-5.0088,-4.9721,-4.9317,-4.8563,-4.8379,-4.8306,-4.8306,-4.8306,-4.8306,-4.8306,-4.8306,-4.8306,-4.8306,-4.8306,-4.8306,-4.8306,-4.8306,-4.8306,-4.8306,-4.8306,-4.8306,-4.8306,-4.8306,-4.8306,-4.8306,-4.8306,-4.8306,-4.7566,-4.7515,-4.7515,-4.5983,-4.6652,-4.7214,-4.5357,-4.5138,-4.5252,-4.5121,0.0,0.0,0.0,0.0,0.0,0.0,-4.5287,-4.5556,-4.5393,-4.5393,-4.6082,-4.7957,-4.7726,-4.774,-4.8548,-4.8663,-4.8624,-4.8586,-4.8337,-4.8221,-4.8207,-4.8274,-4.8306,-4.8306,-4.8306,-4.8306,-4.8306,-4.8306,-4.8306,-4.8306,-4.8306,-4.8306,-4.8306,-4.8306,-4.8306,-4.8306,-4.8306,-4.8526,-4.8893,-4.939,-4.9794,-5.0215,-5.1353,-5.2087,-5.2491,-5.2491,-5.2821,-5.3203,-5.3203,-5.3203,-5.3203,-5.3203,-5.3203,-5.3203,-5.3203,-5.3203,-5.3203,-5.3203,-5.3203,-5.3203,-5.3203,-5.3203,-5.3203,-5.3203,-5.3203,-5.3203,-5.3203,-5.3203,-5.2821,-5.1536,-5.1683,-5.1426,-4.9664,-5.0031,-5.0381,-4.9721,-4.915,-4.871,-4.8343,-4.8306,-4.8306,-4.8306,-4.8306,-4.8306,-4.8306,-4.8306,-4.8306,-4.8306,-4.8306,-4.8306,-4.8306,-4.8306,-4.8306,-4.8306,-4.8306,-4.8306,-4.8306,-4.8306,-4.8306,-4.8306,-4.8306,-4.8306,-4.7721,-4.7682,-4.7736,-4.6287,-4.6226,-4.6281,-4.4999,-4.4744,-4.4759,-4.4776,-4.465,0.0,0.0,0.0,-4.4393,-4.4624,0.0,-4.5094,-4.4701,-4.4432,-4.497,-4.6855,-4.6971,-4.7115,-4.7702,-4.7778,-4.7732,-4.7668,-4.758,-4.7611,-4.7847,-4.7922,-4.8086,-4.8306,-4.8306,-4.8306,-4.8306,-4.8306,-4.8306,-4.8306,-4.8306,-4.8306,-4.8306,-4.8306,-4.8306,-4.8306,-4.8306,-4.8306,-4.8343,-4.8967,-4.9243,-4.9317,-4.9884,-5.0618,-5.1373,-5.1573,-5.2197,-5.2858,-5.2858,-5.3041,-5.3203,-5.3203,-5.3203,-5.3203,-5.3203,-5.3203,-5.3203,-5.3203,-5.3203,-5.3203,-5.3203,-5.3203,-5.3203,-5.3203,-5.3203,-5.3203,-5.3203,-5.3203,-5.2747,-5.1132,-5.1279,-5.0949,-4.871,-4.9003,-4.9537,-4.928,-4.871,-4.8306,-4.8306,-4.8306,-4.8306,-4.8306,-4.8306,-4.8306,-4.8306,-4.8306,-4.8306,-4.8306,-4.8306,-4.8306,-4.8306,-4.8306,-4.8306,-4.8306,-4.8306,-4.8306,-4.8306,-4.8306,-4.8306,-4.8306,-4.8306,-4.8306,-5.0875,-5.0655,-4.9921,-4.6691,-4.6471,-4.6452,-4.4083,-4.4383,-4.4982,-4.4177,-4.5204,-4.597,-4.5241,-4.4653,-4.4586,-4.5441,-4.4855,0.0,0.0,-4.4816,-4.4316,-4.4393,-4.5893,-4.6923,-4.6923,-4.6923,-4.7269,-4.8029,-4.6704,-4.6557,-4.8103,-4.7505,-4.748,-4.8269,-4.8306,-4.8306,-4.8306,-4.8306,-4.8306,-4.8306,-4.8306,-4.8306,-4.8306,-4.8306,-4.8306,-4.8306,-4.8306,-4.8306,-4.8306,-4.8343,-4.8343,-4.8343,-4.8379,-4.8893,-4.9757,-5.0545,-5.1353,-5.205,-5.205,-5.2564,-5.3203,-5.3203,-5.3203,-5.3203,-5.3203,-5.3203,-5.3203,-5.3203,-5.3203,-5.3203,-5.3203,-5.3203,-5.3203,-5.3203,-5.3203,-5.3203,-5.3203,-5.3203,-5.2747,-5.1132,-5.0839,-5.0288,-4.86,-4.9003,-4.9317,-4.8489,-4.8343,-4.8306,-4.8306,-4.8306,-4.8306,-4.8306,-4.8306,-4.8306,-4.8306,-4.8306,-4.8306,-4.8306,-4.8306,-4.8306,-4.8306,-4.8306,-4.8306,-4.8306,-4.8306,-4.8306,-4.8306,-4.8306,-4.8306,-4.8306,-4.8306,-4.8306,-5.0875,-5.1206,-5.0912,-4.8196,-4.7682,-4.7278,-4.4856,-4.4611,-4.4687,-4.4123,-4.4841,-4.5502,-4.5152,-4.4961,-4.5007,-4.553,-4.5364,-4.4902,0.0,-4.3201,-4.2854,-4.3431,-4.4509,-4.5393,-4.597,-4.6047,-4.6163,-4.6432,-4.6238,-4.6278,-4.6585,-4.7175,-4.7515,-4.7498,-4.7993,-4.8306,-4.8306,-4.8306,-4.8306,-4.8306,-4.8306,-4.8306,-4.8306,-4.8306,-4.8306,-4.8306,-4.8306,-4.8306,-4.8306,-4.8306,-4.8306,-4.8306,-4.8306,-4.8489,-4.882,-4.9664,-5.0839,-5.2087,-5.2601,-5.2637,-5.2491,-5.3041,-5.3203,-5.3203,-5.3203,-5.2821,-5.2527,-5.3078,-5.2821,-5.2527,-5.3078,-5.3203,-5.3203,-5.3203,-5.3203,-5.3203,-5.3203,-5.3203,-5.2747,-5.1132,-5.0802,-5.0288,-4.86,-4.8214,-4.8042,-4.7752,-4.8055,-4.8134,-4.7756,-4.8055,-4.8306,-4.8306,-4.8306,-4.8306,-4.8306,-4.8306,-4.8306,-4.8306,-4.8306,-4.8306,-4.8306,-4.8306,-4.8306,-4.8306,-4.8306,-4.8306,-4.8306,-4.8306,-4.8306,-4.8306,-4.8306,-4.8306,-5.1316,-5.161,-5.1463,-4.9297,-4.8746,-4.8122,-4.57,-4.5369,-4.5294,-4.4441,-4.4782,-4.5253,-4.5506,-4.5299,-4.5256,-4.5764,-4.5724,-4.5017,0.0,-4.2854,-4.2777,-4.3085,-4.3816,-4.4624,-4.5518,-4.5325,-4.5287,-4.5594,-4.5492,-4.5527,-4.5792,-4.6704,-4.7211,-4.7095,-4.7883,-4.8306,-4.8306,-4.8306,-4.8306,-4.8306,-4.8306,-4.8306,-4.8306,-4.8306,-4.8306,-4.8306,-4.8306,-4.8306,-4.8306,-4.8306,-4.8306,-4.8306,-4.8306,-4.8306,-4.8379,-4.893,-5.0014,-5.1242,-5.2087,-5.2013,-5.1646,-5.2197,-5.2527,-5.2711,-5.2454,-5.2197,-5.2087,-5.2637,-5.2417,-5.2197,-5.3004,-5.3203,-5.3203,-5.3203,-5.3203,-5.3203,-5.3203,-5.3004,-5.238,-5.1059,-5.0582,-4.9861,-4.8254,-4.7674,-4.7406,-4.7406,-4.7533,-4.7554,-4.7428,-4.7736,-4.8055,-4.8287,-4.8306,-4.8306,-4.8306,-4.8306,-4.8306,-4.8306,-4.8306,-4.8306,-4.8306,-4.8306,-4.8306,-4.8306,-4.8306,-4.8173,-4.7995,-4.7995,-4.7995,-4.7995,-4.7995,-4.7849]},{"header":{"parameterUnit":"m.s-1","parameterCategory":1,"la1":30.6,"la2":29.2853,"lo1":-89.7004,"lo2":-87.6739,"dy":0.0162,"dx":0.0183,"nx":112,"ny":82,"refTime":"2025-05-19T18:00:00:Z","depth":0,"parameterNumber":3,"parameterNumberName":"V-component_of_WINDS"},"data":[0.0,0.0,0.0,0.0,0.0,0.0,0.0,0.0,0.0,0.0,0.0,0.0,0.0,0.0,0.0,0.0,0.0,0.0,0.0,0.0,0.0,0.0,0.0,0.0,0.0,0.0,0.0,0.0,0.0,0.0,0.0,0.0,0.0,0.0,0.0,0.0,0.0,0.0,0.0,0.0,0.0,0.0,0.0,0.0,0.0,0.0,0.0,0.0,0.0,0.0,0.0,0.0,0.0,0.0,0.0,0.0,0.0,0.0,0.0,0.0,0.0,0.0,0.0,0.0,0.0,0.0,0.0,0.0,0.0,0.0,0.0,0.0,0.0,0.0,0.0,0.0,0.0,0.0,0.0,0.0,0.0,0.0,0.0,0.0,0.0,0.0,0.0,0.0,0.0,0.0,0.0,0.0,0.0,0.0,0.0,-0.2909,-0.4506,-0.4009,0.0,0.0,0.0,0.0,0.0,0.0,0.0,0.0,0.0,0.0,0.0,0.0,0.0,0.0,0.0,0.0,0.0,0.0,0.0,0.0,0.0,0.0,0.0,0.0,0.0,0.0,0.0,0.0,0.0,0.0,0.0,0.0,0.0,0.0,0.0,0.0,0.0,0.0,0.0,0.0,0.0,0.0,0.0,0.0,0.0,0.0,0.0,0.0,0.0,0.0,0.0,0.0,0.0,0.0,0.0,0.0,0.0,0.0,0.0,0.0,0.0,0.0,0.0,0.0,0.0,0.0,0.0,0.0,0.0,0.0,0.0,0.0,0.0,0.0,0.0,0.0,0.0,0.0,0.0,0.0,0.0,0.0,0.0,0.0,0.0,0.0,0.0,0.0,0.0,0.0,0.0,0.0,0.0,0.0,0.0,0.0,0.0,0.0,0.0,0.0,0.0,0.0,0.0,0.0,0.0,0.0,0.0,0.0,0.0,-0.177,-0.3204,-0.3948,0.0,0.0,0.0,0.0,0.0,0.0,0.0,0.0,0.0,0.0,0.0,0.0,0.0,0.0,0.0,0.0,0.0,0.0,0.0,0.0,0.0,0.0,0.0,0.0,0.0,0.0,0.0,0.0,0.0,0.0,0.0,0.0,0.0,0.0,0.0,0.0,0.0,0.0,0.0,0.0,0.0,0.0,0.0,0.0,0.0,0.0,0.0,0.0,0.0,0.0,0.0,0.0,0.0,0.0,0.0,0.0,0.0,0.0,0.0,0.0,0.0,0.0,0.0,0.0,0.0,0.0,0.0,0.0,0.0,0.0,0.0,0.0,0.0,0.0,0.0,0.0,0.0,0.0,0.0,0.0,0.0,0.0,0.0,0.0,0.0,0.0,0.0,0.0,0.0,0.0,0.0,0.0,0.0,0.0,0.0,0.0,0.0,0.0,0.0,0.0,0.0,0.0,0.0,-0.069,0.0,0.0,0.0,0.0,0.0,-0.1563,-0.2935,-0.3957,-0.6116,0.0,0.0,0.0,0.0,0.0,0.0,0.0,0.0,0.0,0.0,0.0,0.0,0.0,0.0,0.0,0.0,0.0,0.0,0.0,0.0,0.0,0.0,0.0,0.0,0.0,0.0,0.0,0.0,0.0,0.0,0.0,0.0,0.0,0.0,0.0,0.0,0.0,0.0,0.0,0.0,0.0,0.0,0.0,0.0,0.0,0.0,0.0,0.0,0.0,0.0,0.0,0.0,0.0,0.0,0.0,0.0,0.0,0.0,0.0,0.0,0.0,0.0,0.0,0.0,0.0,0.0,0.0,0.0,0.0,0.0,0.0,0.0,0.0,0.0,0.0,0.0,0.0,0.0,0.0,0.0,0.0,0.0,0.0,0.0,0.0,0.0,0.0,0.0,0.0,0.0,0.0,0.0,0.0,0.0,0.0,0.0,0.0,0.0,0.0,0.0,0.0,0.0,0.0,0.0,0.0,0.0,0.0,0.0,-0.141,-0.2823,-0.3911,-0.5177,0.0,0.0,0.0,0.0,0.0,0.0,0.0,0.0,0.0,0.0,0.0,0.0,0.0,0.0,0.0,0.0,0.0,0.0,0.0,0.0,0.0,0.0,0.0,0.0,0.0,0.0,0.0,0.0,0.0,0.0,0.0,0.0,0.0,0.0,0.0,0.0,0.0,0.0,0.0,0.0,0.0,0.0,0.0,0.0,0.0,0.0,0.0,0.0,0.0,0.0,0.0,0.0,0.0,0.0,0.0,0.0,0.0,0.0,0.0,0.0,0.0,0.0,0.0,0.0,0.0,0.0,0.0,0.0,0.0,0.0,0.0,0.0,0.0,0.0,0.0,0.0,0.0,0.0,0.0,0.0,0.0,0.0,0.0,0.0,0.0,0.0,0.0,0.0,0.0,0.0,0.0,0.0,0.0,0.0,0.0,0.0,0.0,0.0,0.0,0.0,0.0,0.0,0.0,0.0,0.0,0.0,0.0,0.0,-0.1112,-0.2463,-0.3899,-0.4898,0.0,0.0,0.0,0.0,0.0,0.0,0.0,0.0,0.0,0.0,0.0,0.0,0.0,0.0,0.0,0.0,0.0,0.0,0.0,0.0,0.0,0.0,0.0,0.0,0.0,0.0,0.0,0.0,0.0,0.0,0.0,0.0,0.0,0.0,0.0,0.0,0.0,0.0,0.0,0.0,0.0,0.0,0.0,0.0,0.0,0.0,0.0,0.0,0.0,0.0,0.0,0.0,0.0,0.0,0.0,0.0,0.0,0.0,0.0,0.0,0.0,0.0,0.0,0.0,0.0,0.0,0.0,0.0,0.0,0.0,0.0,0.0,0.0,0.0,0.0,0.0,0.0,0.0,0.0,0.0,0.0,0.0,0.0,0.0,0.0,0.0,0.0,0.0,0.0,0.0,0.0,0.0,0.0,0.0,0.0,0.0,0.0,0.0,0.0,0.0,0.0,0.0,0.0,0.0,0.0,0.0,0.0,0.0,-0.0434,-0.1597,-0.3734,0.0,0.0,0.0,0.0,0.0,0.0,0.0,0.0,0.0,0.0,0.0,0.0,0.0,0.0,0.0,0.0,0.0,0.0,0.0,0.0,0.0,0.0,0.0,0.0,0.0,0.0,0.0,0.0,0.0,0.0,0.0,0.0,0.0,0.0,0.0,0.0,0.0,0.0,0.0,0.0,0.0,0.0,0.0,0.0,0.0,0.0,0.0,0.0,0.0,0.0,0.0,0.0,0.0,0.0,0.0,0.0,0.0,0.0,0.0,0.0,0.0,0.0,0.0,0.0,0.0,0.0,0.0,0.0,0.0,0.0,0.0,0.0,0.0,0.0,0.0,0.0,0.0,0.0,0.0,0.0,0.0,0.0,0.0,0.0,0.0,0.0,0.0,0.0,0.0,0.0,0.0,0.0,0.0,0.0,0.0,0.0,0.0,0.0,0.0,0.0,0.0,0.0,-0.022,0.0,0.0,0.0,0.0,0.0,0.0,-0.0364,-0.1502,-0.3605,0.0,0.0,0.0,0.0,0.0,0.0,0.0,0.0,0.0,0.0,0.0,0.0,0.0,0.0,0.0,0.0,0.0,0.0,0.0,0.0,0.0,0.0,0.0,0.0,0.0,0.0,0.0,0.0,0.0,0.0,0.0,0.0,0.0,0.0,0.0,0.0,0.0,0.0,0.0,0.0,0.0,0.0,0.0,0.0,0.0,0.0,0.0,0.0,0.0,0.0,0.0,0.0,0.0,0.0,0.0,0.0,0.0,0.0,0.0,0.0,0.0,0.0,0.0,0.0,0.0,0.0,0.0,0.0,0.0,0.0,0.0,0.0,0.0,0.0,0.0,0.0,0.0,0.0,0.0,0.0,0.0,0.0,0.0,0.0,0.0,0.0,0.0,0.0,0.0,0.0,0.0,0.0,0.0,0.0,0.0,0.0,0.0,0.0,0.0,0.0,0.0,0.0,-0.0163,0.0,0.0,0.0,0.0,0.0,0.0,-0.109,-0.2311,0.0,0.0,0.0,0.0,0.0,0.0,0.0,0.0,0.0,0.0,0.0,0.0,0.0,0.0,0.0,0.0,0.0,0.0,0.0,0.0,0.0,0.0,0.0,0.0,0.0,0.0,0.0,0.0,0.0,0.0,0.0,0.0,0.0,0.0,0.0,0.0,0.0,0.0,0.0,0.0,0.0,0.0,0.0,0.0,0.0,0.0,0.0,0.0,0.0,0.0,0.0,0.0,0.0,0.0,0.0,0.0,0.0,0.0,0.0,0.0,0.0,0.0,0.0,0.0,0.0,0.0,0.0,0.0,0.0,0.0,0.0,0.0,0.0,0.0,0.0,0.0,0.0,0.0,0.0,0.0,0.0,0.0,0.0,0.0,0.0,0.0,0.0,0.0,0.0,0.0,0.0,0.0,0.0,0.0,0.0,0.0,0.0,0.0,0.0,0.0,0.0,0.0,0.0,-0.016,0.0,0.0,0.0,0.0,0.0,0.0,-0.0346,-0.103,-0.2241,0.0,0.0,0.0,0.0,0.0,0.0,0.0,0.0,0.0,0.0,0.0,0.0,0.0,0.0,0.0,0.0,0.0,0.0,0.0,0.0,0.0,0.0,0.0,0.0,0.0,0.0,0.0,0.0,0.0,0.0,0.0,0.0,0.0,0.0,0.0,0.0,0.0,0.0,0.0,0.0,0.0,0.0,0.0,0.0,0.0,0.0,0.0,0.0,0.0,0.0,0.0,0.0,0.0,0.0,0.0,0.0,0.0,0.0,0.0,0.0,0.0,0.0,0.0,0.0,0.0,0.0,0.0,0.0,0.0,0.0,0.0,0.0,0.0,0.0,0.0,0.0,0.0,0.0,0.0,0.0,0.0,0.0,0.0,0.0,0.0,0.0,0.0,0.0,0.0,0.0,0.0,0.0,0.0,0.0,0.0,0.0,0.0,0.0,0.0,0.0,0.0,0.0,-0.0105,0.0,0.0,0.0,0.0,0.0,0.0,0.0,-0.0485,-0.1652,0.0,0.0,0.0,0.0,0.0,0.0,0.0,0.0,0.0,0.0,0.0,0.0,0.0,0.0,0.0,0.0,0.0,0.0,0.0,0.0,0.0,0.0,0.0,0.0,0.0,0.0,0.0,0.0,0.0,0.0,0.0,0.0,0.0,0.0,0.0,0.0,0.0,0.0,0.0,0.0,0.0,0.0,0.0,0.0,0.0,0.0,0.0,0.0,0.0,0.0,0.0,0.0,0.0,0.0,0.0,0.0,0.0,0.0,0.0,0.0,0.0,0.0,0.0,0.0,0.0,0.0,0.0,0.0,0.0,0.0,0.0,0.0,0.0,0.0,0.0,0.0,0.0,0.0,0.0,0.0,0.0,0.0,0.0,0.0,0.0,0.0,0.0,0.0,0.0,0.0,0.0,0.0,0.0,0.0,0.0,0.0,0.0,0.0,0.0,0.0,0.0,0.0,0.0,0.0,0.0,0.0,0.0,0.0,0.0,0.0,-0.0424,-0.1383,0.0,0.0,0.0,0.0,0.0,0.0,0.0,0.0,0.0,0.0,0.0,0.0,0.0,0.0,0.0,0.0,0.0,0.0,0.0,0.0,0.0,0.0,0.0,0.0,0.0,0.0,0.0,0.0,0.0,0.0,0.0,0.0,0.0,0.0,0.0,0.0,0.0,0.0,0.0,0.0,0.0,0.0,0.0,0.0,0.0,0.0,0.0,0.0,0.0,0.0,0.0,0.0,0.0,0.0,0.0,0.0,0.0,0.0,0.0,0.0,0.1837,0.1086,0.0,0.0,0.0,0.0,0.0,0.0,0.0,0.0,0.0,0.0,0.0,0.0,0.0,0.0,0.0,0.0,0.0,0.0,0.0,0.0,0.0,0.0,0.0,0.0,0.0,0.0,0.0,0.0,0.0,0.0,0.0,0.0,0.0,0.0,0.0,0.0,0.0,0.0,0.0,0.0,0.0,0.0,0.0,0.0,0.0,0.0,0.0,0.0,-0.0105,-0.0302,-0.0328,0.0,0.0,0.0,0.0,0.0,0.0,0.0,0.0,0.0,0.0,0.0,0.0,0.0,0.0,0.0,0.0,0.0,0.0,0.0,0.0,0.0,0.0,0.0,0.0,0.0,0.0,0.0,0.0,0.0,0.0,0.0,0.0,0.0,0.0,0.0,0.0,0.0,0.0,0.0,0.0,0.0,0.0,0.0,0.0,0.0,0.0,0.0,0.0,0.0,0.0,0.0,0.0,0.0,0.0,0.0,0.0,0.0,0.0,0.0,0.1879,0.0691,0.0,0.0,0.0,0.0,0.0,0.0,0.0,0.0,0.0,0.0,0.0,0.0,0.0,0.0,0.0,0.0,0.0,0.0,0.0,0.0,0.0,0.0,0.0,0.0,0.0,0.0,0.0,0.0,0.0,0.0,0.0,0.0,0.0,0.0,0.0,0.0,0.0,0.0,0.0,0.0,0.0,0.0,0.0,0.0,0.0,0.0,0.0,0.0,0.0,0.0,0.0,0.0,0.0,0.0,0.0,0.0,0.0,0.0,0.0,0.0,0.0,0.0,0.0,0.0,0.0,0.0,0.0,0.0,0.0,0.0,0.0,0.0,0.0,0.0,0.0,0.0,0.0,0.0,0.0,0.0,0.0,0.0,0.0,0.0,0.0,0.0,0.0,0.0,0.0,0.0,0.0,0.0,0.0,0.0,0.0,0.0,0.0,0.0,0.0,0.0,0.0,0.0,0.0,0.0,1.0046,1.0053,1.0053,0.9741,0.8084,0.5347,0.2304,0.0618,0.0,0.0,0.0,0.0,0.0,0.0,0.0,0.0,0.0,0.0,0.0,0.0,0.0,0.0,0.0,0.0,0.0,0.0,0.0,0.0,0.0,0.0,0.0,0.0,0.0,0.0,0.0,0.0,0.0,0.0,0.0,0.0,0.0,0.0,0.0,0.0,0.0,0.0,0.0,0.0,0.0,0.0,0.0,0.0,0.0,0.0,0.0,0.0,0.0,0.0,0.0,0.0,0.0,0.0,0.0,0.0,0.0,0.0,0.0,0.0,0.0,0.0,0.0,0.0,0.0,0.0,0.0,0.0,0.0,0.0,0.0,0.0,0.0,0.0,0.0,0.0,0.0,0.0,0.0,0.0,0.0,0.0,0.0,0.0,1.8486,1.7236,0.0,0.0,0.0,0.0,0.0,0.0,0.0,0.0,0.0,0.0,0.0,0.0,0.0,1.0324,1.0595,1.0664,1.0732,1.0732,1.0928,1.0989,1.0982,0.9404,0.8397,0.7709,0.5725,0.0,0.0,0.0,0.0,0.0,0.0,0.0,0.0,0.0,0.0,0.0,0.0,0.0,0.0,0.0,0.0,0.0,0.0,0.0,0.0,0.0,0.0,0.0,0.0,0.0,0.0,0.0,0.0,0.0,0.0,0.0,0.0,0.0,0.0,0.0,0.0,0.0,0.0,0.0,0.0,0.0,0.0,0.0,0.0,0.0,0.0,0.0,0.0,0.0,0.0,0.0,0.0,0.0,0.0,0.0,0.0,0.0,0.0,0.0,0.0,0.0,0.0,0.0,0.0,0.0,0.0,0.0,0.0,0.0,0.0,0.0,0.0,0.0,0.0,0.0,0.0,0.0,0.0,0.0,0.0,0.0,0.0,0.0,0.0,1.8596,1.8459,1.797,1.6429,1.4646,0.0,0.0,0.0,0.0,0.0,0.0,0.0,0.0,0.0,1.0643,1.0656,1.0758,1.0968,1.1036,1.107,1.107,1.1131,1.1234,1.1165,1.0392,0.9417,0.8272,0.7451,0.5577,0.2933,0.1963,0.1536,0.1432,0.0,0.0,0.0,0.0,0.0,0.0,0.0,0.0,0.0,0.0,0.0,0.0,0.0,0.0,0.0,0.0,0.0,0.0,0.0,0.0,0.0,0.0,0.0,0.0,0.0,0.0,0.0,0.0,0.0,0.0,0.0,0.0,0.0,0.0,0.0,0.0,0.0,0.0,0.0,0.0,0.0,0.0,0.0,0.0,0.0,0.0,0.0,0.0,0.0,0.0,-0.0181,0.0,0.0,0.0,0.0,0.0,0.0,0.0,0.0,0.0,0.0,0.0,0.0,0.0,0.0,0.0,0.0,0.0,0.0,0.0,0.0,0.0,0.0,0.0,0.0,0.0,0.0,0.0,0.0,1.8867,1.8776,1.8704,1.753,1.5843,0.0,0.0,0.0,0.0,0.0,0.0,1.0555,1.0704,1.09,1.1096,1.1069,1.1192,1.1335,1.1301,1.128,1.128,1.128,1.128,1.128,1.128,1.0474,0.9069,0.9069,0.8168,0.6552,0.3851,0.2676,0.255,0.0736,0.0,0.0,0.0,0.0,0.0,0.0,0.0,0.0,0.0,0.0,0.0,0.0,0.0,0.0,0.0,0.0,0.0,0.0,0.0,0.0,0.0,0.0,0.0,0.0,0.0,0.0,0.0,0.0,0.0,0.0,0.0,0.0,0.0,0.0,0.0,0.0,0.0,0.0,0.0,0.0,0.0,0.0,0.0,0.0,0.0,0.0,0.0,0.0,0.0,0.0,0.0,0.0,0.0,0.0,0.0,0.0,0.0,0.0,0.0,0.0,0.0,0.0,0.0,0.0,0.0,0.0,0.0,0.0,0.0,0.0,0.0,0.0,0.0,0.0,0.0,0.0,0.0,0.0,0.0,0.0,2.0903,1.9822,0.0,0.0,0.0,0.0,1.0802,1.0941,1.1172,1.1328,1.1477,1.1633,1.1782,1.1653,1.1653,1.1796,1.166,1.1599,1.1599,1.1599,1.1599,1.1599,1.1599,1.1366,1.1082,1.1082,1.0853,1.0035,0.4813,0.2732,0.2499,0.0696,0.0,0.0,0.0,0.0,0.0,0.0,0.0,0.0,0.0,0.0,0.0,0.0,0.0,0.0,0.0,0.0,0.0,0.0,0.0,0.0,0.0,0.0,0.0,0.0,0.0,0.0,0.0,0.0,0.0,0.0,0.0,0.0,0.0,0.0,0.0,0.0,0.0,0.0,0.0,0.0,0.0,0.0,0.0,0.0,0.0,0.0,0.0,0.0,0.0,0.0,0.0,-0.0045,0.0,0.0,0.0,0.0,0.0,0.0,0.0,0.0,0.0,0.0,0.0,0.0,0.0,0.0,0.0,0.0,0.0,0.0,0.0,0.0,0.0,0.0,0.0,0.0,0.0,0.0,0.0,0.0,2.1911,2.1908,0.0,1.7021,1.6187,1.4587,1.1503,1.1484,1.1619,1.1674,1.1823,1.1925,1.1979,1.183,1.1782,1.183,1.1687,1.1619,1.1619,1.1619,1.1619,1.1619,1.1619,1.145,1.1234,1.1234,1.0995,1.0445,0.7389,0.5436,0.4226,0.2434,0.1043,0.0,0.0,0.0,0.0,0.0,0.0,0.0,0.0,0.0,0.0,0.0,0.0,0.0,0.0,0.0,0.0,0.0,0.0,0.0,0.0,0.0,0.0,0.0,0.0,0.0,0.0,0.0,0.0,0.0,0.0,0.0,0.0,0.0,0.0,0.0,0.0,0.0,0.0,0.0,0.0,0.0,0.0,0.0,0.0,0.0,0.0,0.0,0.0,0.0,0.0,0.0,0.0,0.0,0.0,0.0,0.0,0.0,0.0,0.0,0.0,0.0,0.0,0.0,0.0,0.0,0.0,0.0,0.0,0.0,0.0,0.0,0.0,0.0,0.0,0.0,0.0,0.0,2.1309,2.2098,2.2378,2.3046,2.184,1.7662,1.7359,1.5866,1.2129,1.1932,1.2006,1.2054,1.2155,1.221,1.221,1.2013,1.1911,1.1911,1.1714,1.1619,1.1619,1.1619,1.1619,1.1619,1.1619,1.145,1.1234,1.1234,1.0995,1.0585,0.9377,0.7902,0.603,0.3622,0.1603,0.0,0.0,0.0,0.0,0.0,0.0,0.0,0.0,0.0,0.0,0.0,0.0,0.0,0.0,0.0,0.0,0.0,0.0,0.0,0.0,0.0,0.0,0.0,0.0,0.0,0.0,0.0,0.0,0.0,0.0,0.0,0.0,0.0,0.0,0.0,0.0,0.0,0.0,0.0,0.0,0.0,0.0,0.0,0.0,0.0,0.0,0.0,0.0,0.0,0.0,0.0,0.0,0.0,0.0,0.0,0.0,0.0,0.0,0.0,0.0,0.0,0.0,0.0,0.0,0.0,0.0,0.0,0.0,0.0,0.0,0.0,0.0,0.0,0.0,0.0,0.0,2.0722,2.1483,2.2138,2.2432,2.326,2.2153,1.7919,1.7804,1.6333,1.2588,1.2298,1.2359,1.2494,1.2501,1.2501,1.2501,1.2216,1.2135,1.2135,1.1769,1.1619,1.1619,1.1619,1.1619,1.1619,1.1619,1.145,1.1234,1.1234,1.0995,1.0717,1.0717,0.9643,0.7631,0.4155,0.168,0.0067,0.0,0.0,0.0,0.0,0.0,0.0,0.0,0.0,0.0,0.0,0.0,0.0,0.0,0.0,0.0,0.0,0.0,0.0,0.0,0.0,0.0,0.0,0.0,0.0,0.0,0.0,0.0,0.0,0.0,0.0,0.0,0.0,0.0,0.0,0.0,0.0,0.0,0.0,0.0,0.0,0.0,0.0,0.0,0.0,0.0,0.0,0.0,0.0,0.0,0.0,0.0,0.0,0.0,0.0,0.0,0.0,0.0,0.0,0.0,0.0,0.0,0.0,0.0,0.0,0.0,0.0,0.0,0.0,0.0,0.0,0.0,0.0,0.0,2.0944,2.1456,2.1884,2.2525,2.314,2.3647,2.4115,2.2793,1.8833,1.8451,1.6821,1.2908,1.2508,1.2461,1.2501,1.2501,1.2501,1.2501,1.2216,1.2135,1.2135,1.1769,1.1619,1.1619,1.1619,1.1619,1.1619,1.1619,1.145,1.1234,1.1234,1.0995,1.0717,1.0717,0.9643,0.7764,0.5563,0.3555,0.1814,0.0471,0.0,0.0,0.0,0.0,0.0,0.0,0.0,0.0,0.0,0.0,0.0,0.0,0.0,0.0,0.0,0.0,0.0,0.0,0.0,0.0,0.0,0.0,0.0,0.0,0.0,0.0,0.0,0.0,0.0,0.0,0.0,0.0,0.0,0.0,0.0,0.0,0.0,0.0,0.0,0.0,0.0,0.0,0.0,0.0,0.0,0.0,0.0,0.0,0.0,0.0,0.0,0.0,0.0,0.0,0.0,0.0,0.0,0.0,0.0,0.0,0.0,0.0,0.0,0.0,0.0,0.0,0.0,0.0,0.0,0.0,0.0,0.0,2.1724,2.2352,2.306,2.3367,2.3688,2.4142,2.4569,2.3204,1.9203,1.8785,1.7079,1.3033,1.2589,1.2501,1.2501,1.2501,1.2501,1.2501,1.2216,1.2135,1.2135,1.1769,1.1619,1.1619,1.1619,1.1619,1.1619,1.1619,1.145,1.1234,1.1234,1.0995,1.0717,1.0717,1.0047,0.8972,0.0,0.0,0.0,0.0,0.0672,0.0,0.0,0.0,0.0,0.0,0.0,0.0,0.0,0.0,0.0,0.0,0.0,0.0,0.0,0.0,0.0,0.0,0.0,0.0,0.0,0.0,0.0,0.0,0.0,0.0,0.0,0.0,0.0,0.0,0.0,0.0,0.0,0.0,0.0,0.0,0.0,0.0,0.0,0.0,0.0,0.0,0.0,0.0,0.0,0.0,0.0,0.0,0.0,0.0,0.0,0.0,0.0,0.0,0.0,0.0,0.0,0.0,0.0,0.0,0.0,0.0,0.0,0.0,0.0,0.0,0.0,0.0,0.0,0.0,0.0,0.0,2.2579,2.326,2.4088,2.4008,2.3968,2.4222,2.4481,2.3127,1.9244,1.8685,1.6984,1.3068,1.2617,1.2522,1.2501,1.2501,0.0,0.0,0.0,1.2135,1.2135,1.1769,1.1619,1.1619,1.1619,1.1619,1.1619,1.1619,1.145,1.1234,1.1234,1.0995,1.0717,1.0717,1.0717,1.0518,0.8701,0.6965,0.5162,0.3354,0.168,0.0269,0.0067,0.0,0.0,0.0,0.0,0.0,0.0,0.0,0.0,0.0,0.0,0.0,0.0,0.0,0.0,0.0,0.0,0.0,0.0,0.0,0.0,0.0,0.0,0.0,0.0,0.0,0.0,0.0,0.0,0.0,0.0,0.0,0.0,0.0,0.0,0.0,0.0,0.0,0.0,0.0,0.0,0.0,0.0,0.0,0.0,0.0,0.0,0.0,0.0,0.0,0.0,0.0,0.0,0.0,0.0,0.0,0.0,0.0,0.0,0.0,0.0,0.0,0.0,0.0,0.0,0.0,0.0,0.0,0.0,2.2592,2.3193,2.3741,2.4142,2.4356,2.4489,2.4543,2.3203,2.1371,1.9206,1.7377,1.5425,1.3148,1.2773,1.263,1.2508,1.2501,1.2501,1.2501,1.2216,1.2135,1.2135,1.1769,1.1619,1.1619,1.1619,0.0,1.1619,1.1619,1.145,1.1234,1.1234,1.0995,1.0717,1.0717,1.0717,1.0518,0.8701,0.6965,0.5162,0.3354,0.2484,0.1947,0.0538,0.0,0.0,0.0,0.0,0.0,0.0,0.0,0.0,0.0,0.0,0.0,0.0,0.0,0.0,0.0,0.0,0.0,0.0,0.0,0.0,0.0,0.0,0.0,0.0,0.0,0.0,0.0,0.0,0.0,0.0,0.0,0.0,0.0,0.0,0.0,0.0,0.0,0.0,0.0,0.0,0.0,0.0,0.0,0.0,0.0,0.0,0.0,0.0,0.0,0.0,0.0,0.0,0.0,0.0,0.0,0.0,0.0,0.0,0.0,0.0,0.0,0.0,0.0,0.0,1.5044,1.6425,0.0,2.1653,2.3293,2.3915,2.4302,2.4596,2.477,2.4796,2.4649,2.293,2.1094,1.9189,1.7093,1.5128,1.3189,1.2745,1.2583,1.2508,1.2501,1.2501,1.2501,1.2216,1.2135,1.2135,1.1769,1.1619,1.1619,1.1619,1.1619,1.1619,1.1538,1.1382,1.1158,1.1084,1.0928,1.0717,1.0717,1.0717,1.0585,0.9709,0.8235,0.6564,0.5693,0.4225,0.2551,0.168,0.0726,0.0,0.0,0.0,0.0,0.0,0.0,0.0,0.0,0.0,0.0,0.0,0.0,0.0,0.0,0.0,0.0,0.0,0.0,0.0,0.0,0.0,0.0,0.0,0.0,0.0,0.0,0.0,0.0,0.0,0.0,0.0,0.0,0.0,0.0,0.0,0.0,0.0,0.0,0.0,0.0,0.0,0.0,0.0,0.0,0.0,0.0,0.0,0.0,0.0,0.0,0.0,0.0,0.0,0.0,0.0,0.0,0.0,0.0,0.0,1.0256,1.0493,1.0636,1.2406,1.4614,1.6615,1.8883,2.1186,2.331,2.4235,2.4823,2.5117,2.5117,2.4834,2.4136,2.2428,2.0539,1.8592,1.6529,1.472,1.3068,1.2684,1.2535,1.2501,1.2501,1.2501,1.2501,1.2216,1.2135,1.2135,1.1769,1.1619,1.1619,1.1619,1.1619,1.1613,1.1463,1.1307,1.122,1.0982,1.0766,1.0717,1.0717,1.0717,1.0717,1.0717,0.9775,0.8501,0.8097,0.616,0.3622,0.2954,0.1715,0.0452,0.0129,0.0,0.0,0.0,0.0,0.0062,0.037,0.0494,0.0555,0.0863,0.0724,0.0471,0.0471,0.023,0.0,0.0,0.0,0.0,0.0,0.0,0.0,0.0,0.0,0.0,0.0,0.0,0.0,0.0,0.0,0.0,0.0,0.0,0.0,0.0,0.0,0.0,0.0,0.0,0.0,0.0,0.0,0.0,0.0,0.0,0.0,0.0,0.0,0.0,0.0,0.0,0.0,1.0017,0.995,0.9997,1.0195,1.0324,1.0487,0.0,1.0948,1.1111,1.126,1.309,1.4707,1.4966,1.8321,2.1299,2.1805,2.3678,2.513,2.5424,2.5237,2.4373,2.2473,2.0309,1.8237,1.6303,1.4289,1.2968,1.2752,1.2725,1.2644,1.2508,1.2501,1.2501,1.2501,1.2216,1.2135,1.2135,1.1769,1.1619,1.1619,1.1619,1.1619,1.1613,1.1463,1.1307,1.1145,1.0867,1.0738,1.0717,1.0717,1.0717,1.0717,1.0717,1.0585,1.018,0.8568,0.7764,0.696,0.3823,0.257,0.2123,0.0516,0.0,0.0,0.0,0.0,0.0308,0.1787,0.2216,0.2524,0.3996,0.3307,0.2232,0.2232,0.109,0.0,0.0,0.0,0.0,0.0,0.0,0.0,0.0,0.0,0.0,0.0,0.0,0.0,0.0,0.0,0.0,0.0,0.0,0.0,0.0,0.0,0.0,0.0,0.0,0.0,0.0,0.0,0.0,0.0,0.0,0.0,0.0,0.0,0.0,0.0,0.0,0.0,1.0446,1.0442,1.0523,1.0656,1.0778,1.0914,1.1043,1.126,1.145,1.1511,1.2481,1.3647,1.481,1.7624,2.0164,2.1627,2.382,2.5438,2.5732,2.5518,2.415,2.0957,1.9396,1.7826,1.5966,1.3886,1.263,1.2725,1.2651,1.2569,1.2508,1.2501,1.2501,1.2501,1.2216,1.2135,1.2135,1.1769,1.1619,1.1619,1.1619,1.1572,1.1484,1.1328,1.1131,1.09,1.0772,1.0717,1.0717,1.0717,1.0717,1.0717,1.0717,1.0717,1.0585,0.9842,0.89,0.7764,0.6293,0.5063,0.3984,0.3215,0.2902,0.2831,0.2831,0.2831,0.3016,0.3689,0.3873,0.4049,0.4619,0.4294,0.3747,0.3709,0.3127,0.2628,0.2628,0.2628,0.2628,0.2628,0.1902,0.1274,0.1285,0.0586,0.0,0.0,0.0,0.0,0.0,0.0,0.0,0.0,0.0,0.0,0.0,0.0,0.0,0.0,0.0,0.0,0.0,0.0,0.0,0.0,0.0,0.0,0.0,0.0,0.0,0.0,0.0,0.0,1.0744,1.0799,1.0887,1.0995,1.1151,1.1274,1.1233,1.1491,1.1728,1.1687,1.1972,1.267,1.4145,1.6232,1.827,2.0081,2.2737,2.4778,2.514,2.5359,2.4175,2.0723,1.9305,1.7873,1.5889,1.3789,1.2549,1.2657,1.2562,1.2501,1.2501,1.2501,1.2481,1.2447,1.2196,1.204,1.1999,1.1748,1.1619,1.1619,1.1619,1.1558,1.145,1.1253,1.1002,1.0717,1.0717,1.0717,1.0717,1.0717,1.0717,1.0717,1.0717,1.0717,1.0717,1.0717,0.9842,0.8701,0.8163,0.7033,0.5778,0.5262,0.5035,0.4916,0.4916,0.4916,0.4977,0.5468,0.559,0.5693,0.5966,0.5692,0.5311,0.5165,0.4803,0.4526,0.4526,0.4526,0.4526,0.4526,0.3575,0.2709,0.2299,0.133,0.0474,0.0051,0.0,0.0,0.0,0.0,0.0,0.0,0.0,0.0,0.0,0.0,0.0,0.0,0.0,0.0,0.0,0.0,0.0,0.0,0.0,0.0,0.0,0.0,0.0,0.0,0.0,0.0,1.0833,1.088,1.0982,1.1124,1.1382,1.1565,1.1416,1.1728,1.2006,1.1857,1.1952,1.2142,1.2216,1.3964,1.5539,1.6061,1.9786,2.2697,2.3138,2.4518,2.4726,2.2686,2.0146,1.7815,1.5701,1.3645,1.2501,1.2508,1.2501,1.2501,1.2501,1.2501,1.244,1.2298,1.2142,1.1986,1.1837,1.1694,1.1619,1.1619,1.1619,1.1619,1.1599,1.1301,1.1002,1.0717,1.0717,1.0717,1.0717,1.0717,1.0717,1.0717,1.0717,1.0717,1.0717,1.0717,1.0651,1.0379,0.8634,0.7888,0.7444,0.565,0.5035,0.4916,0.4916,0.4916,0.5223,0.6869,0.7301,0.7641,0.9102,0.8243,0.7,0.6888,0.5652,0.4526,0.4526,0.4526,0.4526,0.4526,0.447,0.3981,0.2459,0.218,0.163,0.0203,0.0,0.0,0.0,0.0,0.0,0.0,0.0,0.0,0.0,0.0,0.0,0.0,0.0,0.0,0.0,0.0,0.0,0.0,0.0,0.0,0.0,0.0,0.0,0.0,0.0,0.0,1.0867,1.1096,1.1402,1.1457,1.1694,1.187,1.1721,1.1877,1.202,1.1864,1.187,1.1911,1.1911,1.3618,1.5163,1.5615,1.8239,2.0802,2.2721,2.3369,2.2877,2.0745,1.9506,1.7434,1.3883,1.2881,1.2501,1.2501,1.2501,1.2501,1.2501,1.2501,1.2433,1.2298,1.2142,1.1986,1.183,1.1687,1.1619,1.1619,1.1416,1.1314,1.1307,1.1009,1.0812,1.0717,1.0717,1.0717,1.0717,1.0717,1.0717,1.0717,1.0717,1.0717,1.0717,1.0717,1.0717,1.0585,0.9981,0.9667,0.9373,0.873,0.8369,0.816,0.816,0.816,0.8282,0.8836,0.9019,0.909,0.9399,0.9065,0.8557,0.8276,0.7794,0.7426,0.7426,0.7426,0.7426,0.7426,0.6644,0.5469,0.4003,0.2868,0.1681,0.0203,0.0,0.0,0.0,0.0,0.0,0.0,0.0,0.0,0.0,0.0,0.0,0.0,0.0,0.0,0.0,0.0,0.0404,0.1309,0.1309,0.1309,0.1309,0.1309,0.0857,0.0,0.0,0.0,1.1089,1.1436,1.1708,1.1762,1.1965,1.2088,1.1877,1.1952,1.1986,1.1728,1.1674,1.1653,1.1599,1.2696,1.3801,1.4215,1.6308,1.8735,2.139,2.228,2.2222,2.0787,1.9704,1.7622,1.4059,1.3042,1.2562,1.2508,1.2501,1.2501,1.2501,1.2454,1.2359,1.221,1.206,1.1904,1.1755,1.1667,1.1619,1.1613,1.1362,1.1212,1.122,1.0914,1.0772,1.0717,1.0717,1.0717,1.0717,1.0717,1.0717,1.0717,1.0717,1.0717,1.0717,1.0717,1.0717,1.0717,1.0717,1.0527,1.0283,1.0283,1.0073,0.9822,0.9822,0.9822,0.9822,0.9822,0.9822,0.9754,0.9456,0.9381,0.9306,0.8952,0.8885,0.8885,0.8885,0.8885,0.8885,0.8885,0.8152,0.6848,0.4858,0.2785,0.1088,0.0152,0.0,0.0,0.0,0.0,0.0,0.0,0.0,0.0,0.0,0.0454,0.0706,0.0706,0.1159,0.141,0.141,0.141,0.1813,0.2714,0.2714,0.2714,0.2714,0.2714,0.2012,0.0706,0.0706,0.0454,1.1473,1.1742,1.1891,1.204,1.2182,1.221,1.1911,1.1945,1.1918,1.1484,1.1382,1.1321,1.1165,1.1274,1.1525,1.1959,1.4096,1.6516,1.9145,2.1173,2.237,2.2359,2.0405,1.8143,1.5844,1.3897,1.2664,1.2515,1.2501,1.2501,1.2501,1.2366,1.2223,1.2067,1.1911,1.1762,1.1619,1.1619,1.1613,1.1606,1.145,1.1301,1.1145,1.1002,1.0793,1.0717,1.0717,1.0717,1.0717,1.0717,1.0717,1.0717,1.0717,1.0717,1.0717,1.0717,1.0717,1.0717,1.0717,1.0527,1.0283,1.0283,1.0073,0.9822,0.9822,0.9822,0.9822,0.9822,0.9822,0.9754,0.9456,0.9381,0.9306,0.8952,0.8885,0.8885,0.8885,0.883,0.8774,0.8774,0.865,0.767,0.4961,0.2014,0.0,0.0,0.0,0.0,0.0,0.0,0.005,0.0101,0.0101,0.0151,0.0202,0.136,0.2113,0.2113,0.3316,0.4014,0.4014,0.4014,0.4017,0.4114,0.4114,0.4114,0.4114,0.4114,0.3416,0.2113,0.2113,0.141,1.1286,1.1972,1.2182,1.2223,1.2264,1.2237,1.2047,1.1864,1.1667,1.1436,1.1212,1.1016,1.086,1.1043,1.1294,1.1525,1.2536,1.4237,1.6739,1.7682,1.8142,1.7994,1.7458,1.6182,1.3769,1.304,1.2664,1.2515,1.2501,1.2501,1.2501,1.2366,1.2223,1.2067,1.1911,1.1762,1.1619,1.1619,1.1558,1.145,1.1294,1.1145,1.0995,1.0846,1.0758,1.0717,1.0717,1.0717,1.0717,1.0717,1.0717,1.0717,1.0717,1.0717,1.0717,1.0717,1.0717,1.0717,1.0717,1.0527,1.0283,1.0283,1.0073,0.9822,0.9822,0.9822,0.9822,0.9822,0.9822,0.9754,0.9456,0.9381,0.9306,0.8952,0.8885,0.8885,0.8885,0.8042,0.726,0.726,0.5473,0.4032,0.4422,0.1983,0.0,0.0,0.0,0.0,0.0,0.0,0.0404,0.136,0.1511,0.1912,0.2914,0.3316,0.3466,0.3466,0.3817,0.4014,0.4014,0.4014,0.4468,0.5477,0.5477,0.5477,0.5477,0.5477,0.4822,0.3466,0.3466,0.3316,1.1466,1.2203,1.2386,1.2386,1.2338,1.223,1.2013,1.1782,1.1518,1.1165,1.0962,1.0785,1.0568,1.0717,1.0962,1.1246,1.1809,1.3108,1.5747,1.6381,1.652,1.6503,1.6503,1.5554,1.3092,1.2834,1.2739,1.2515,1.2501,1.2474,1.2413,1.2271,1.2121,1.1965,1.1816,1.1701,1.1619,1.1619,1.1545,1.1389,1.124,1.109,1.0873,1.0792,1.0717,1.0717,1.0717,1.0717,1.0717,1.0717,1.0717,1.0717,1.0717,1.0717,1.0717,1.0717,1.0717,1.0711,1.0643,1.0473,1.0283,1.0283,1.0073,0.9822,0.9822,0.9822,0.9822,0.9822,0.9822,0.9754,0.9456,0.9381,0.9306,0.8952,0.8885,0.8885,0.8885,0.7765,0.67,0.67,0.4244,0.2665,0.425,0.2543,0.0939,0.087,0.1428,0.183,0.1764,0.126,0.141,0.2714,0.2864,0.3165,0.3917,0.4518,0.4872,0.4872,0.5422,0.5772,0.5772,0.5772,0.6126,0.688,0.688,0.688,0.688,0.688,0.6176,0.4872,0.4872,0.4568,1.12,1.2016,1.2185,1.2424,1.2366,1.2162,1.1891,1.166,1.1348,1.0826,1.069,1.0582,1.0331,1.0412,1.0663,1.1159,1.1538,1.2695,1.5143,1.5797,1.6015,1.6106,1.6123,1.5357,1.3224,1.2942,1.2813,1.2522,1.2481,1.242,1.2298,1.2142,1.1979,1.1809,1.1681,1.1619,1.1619,1.1599,1.1511,1.1362,1.1206,1.1056,1.0847,1.0778,1.0717,1.0717,1.0717,1.0717,1.0717,1.0717,1.0717,1.0717,1.0717,1.0717,1.0717,1.0717,1.0717,1.0704,1.0568,1.0419,1.0276,1.0256,1.0053,0.9822,0.9822,0.9822,0.9822,0.9822,0.9822,0.9754,0.9483,0.9395,0.9313,0.9035,0.8898,0.883,0.8657,0.7426,0.6422,0.6422,0.4306,0.3007,0.4524,0.3498,0.249,0.2342,0.3414,0.4208,0.4293,0.312,0.2766,0.4117,0.4268,0.4318,0.4518,0.5572,0.6282,0.6282,0.7335,0.7988,0.7988,0.7988,0.7988,0.7988,0.7988,0.7988,0.7988,0.7988,0.7385,0.6282,0.6282,0.5622,0.8852,0.9904,1.0314,1.203,1.2203,1.1898,1.1843,1.1335,1.0846,1.0744,1.0527,1.0337,1.029,1.05,1.0785,1.1111,1.1538,1.2141,1.3007,1.3354,1.3608,1.3757,1.3771,1.3545,1.3056,1.2847,1.2698,1.2515,1.2393,1.2318,1.2291,1.2142,1.1938,1.1667,1.1633,1.1619,1.1619,1.1497,1.1355,1.1199,1.1056,1.0907,1.0758,1.0731,1.0717,1.0717,1.0717,1.0717,1.0717,1.0717,1.0717,1.0717,1.0717,1.0717,1.0717,1.0717,1.0717,1.0717,1.069,1.0507,1.0256,1.0134,0.9964,0.9822,0.9822,0.9822,0.9822,0.9822,0.9822,0.9781,0.9612,0.9476,0.934,0.9214,0.9022,0.8546,0.7371,0.5922,0.486,0.486,0.446,0.4598,0.6058,0.5106,0.4098,0.4077,0.4119,0.4589,0.5751,0.456,0.4168,0.5527,0.5677,0.6126,0.7229,0.7534,0.7633,0.7633,0.7889,0.7988,0.7988,0.7988,0.7988,0.7988,0.7988,0.7988,0.7988,0.7988,0.7889,0.7633,0.7633,0.7534,0.8256,0.9376,0.992,1.1953,1.2162,1.1809,1.1735,1.1199,1.0677,1.0521,1.0317,1.0134,1.0053,1.029,1.0561,1.0778,1.1192,1.1667,1.2196,1.2467,1.2725,1.3024,1.3064,1.3003,1.2854,1.2773,1.2664,1.2515,1.2372,1.2257,1.2176,1.1959,1.1769,1.1626,1.1619,1.1619,1.1619,1.147,1.1314,1.1227,1.1016,1.0799,1.0717,1.0717,1.0717,1.0717,1.0717,1.0717,1.0717,1.0717,1.0717,1.0717,1.0717,1.0717,1.0717,1.0717,1.0717,1.0711,1.0629,1.046,1.0256,1.01,0.9883,0.9822,0.9822,0.9822,0.9822,0.9822,0.9822,0.9788,0.9646,0.9496,0.934,0.9248,0.9042,0.8491,0.7038,0.6144,0.5644,0.5644,0.5027,0.496,0.6463,0.6124,0.5595,0.5553,0.6032,0.6676,0.7289,0.6603,0.6326,0.698,0.7036,0.7285,0.7939,0.7988,0.7988,0.7988,0.7988,0.7988,0.7988,0.7988,0.7988,0.7988,0.7988,0.7988,0.7988,0.7988,0.7988,0.7988,0.8126,0.816,0.7061,0.842,0.9211,1.129,1.174,1.1748,1.1606,1.1077,1.0561,1.0331,1.0134,0.9909,0.9883,1.0066,1.0297,1.0507,1.0839,1.128,1.1884,1.2128,1.24,1.2813,1.2895,1.2861,1.2745,1.2698,1.2617,1.2467,1.2291,1.2142,1.202,1.1762,1.1619,1.1619,1.1619,1.1606,1.1572,1.1416,1.1267,1.1118,1.0968,1.0766,1.0717,1.0717,1.0717,1.0717,1.0717,1.0717,1.0717,1.0717,1.0717,1.0717,1.0717,1.0717,1.0717,1.0717,1.0717,1.0704,1.0582,1.0426,1.0263,1.0141,0.9971,0.9822,0.9822,0.9822,0.9822,0.9822,0.9822,0.9795,0.9686,0.9544,0.9381,0.9255,0.8818,0.8097,0.6927,0.67,0.67,0.67,0.6033,0.581,0.6982,0.7149,0.7116,0.7018,0.7874,0.8492,0.8377,0.8228,0.8083,0.8083,0.8029,0.7988,0.7988,0.7988,0.7988,0.7988,0.7988,0.7988,0.7988,0.7988,0.7988,0.7988,0.7988,0.8008,0.8042,0.8042,0.8056,0.8089,0.8262,0.8368,0.3074,0.5122,0.7092,0.9014,1.0539,1.1599,1.145,1.0846,1.0317,1.0283,1.0046,0.9883,0.9943,0.999,1.0145,1.0629,1.0738,1.0968,1.1572,1.1904,1.2196,1.2508,1.2664,1.2745,1.2732,1.2603,1.2461,1.2318,1.204,1.1864,1.185,1.1701,1.1619,1.1619,1.1619,1.1552,1.1416,1.126,1.1111,1.09,1.0812,1.0731,1.0717,1.0717,1.0717,1.0717,1.0717,1.0717,1.0717,1.0717,1.0717,1.0717,1.0717,1.0717,1.0717,1.0717,1.0717,1.0717,1.0704,1.0514,1.0276,1.0263,1.0059,0.9822,0.9822,0.9822,0.9822,0.9822,0.9822,0.9815,0.9802,0.9693,0.9517,0.9282,0.8021,0.6866,0.67,0.67,0.67,0.67,0.7648,0.8546,0.8657,0.8712,0.8712,0.8699,0.8675,0.8682,0.8669,0.8533,0.8438,0.8438,0.8201,0.7988,0.7988,0.7988,0.7988,0.7988,0.7988,0.7988,0.7988,0.7988,0.7988,0.7988,0.7988,0.8106,0.8248,0.8248,0.8316,0.8438,0.8459,0.8465,0.25,0.4678,0.6795,0.8679,1.0447,1.1579,1.1423,1.0812,1.0283,1.0283,1.0032,0.9842,0.9897,0.9923,1.0078,1.0412,0.0,1.0758,1.1274,1.1443,1.1701,1.2182,1.2291,1.24,1.2576,1.2535,1.2406,1.2169,1.1952,1.1796,1.1708,1.1647,1.1619,1.1619,1.1531,1.145,1.1389,1.1151,1.1002,1.088,1.0725,1.0717,1.0717,1.0717,1.0717,1.0717,1.0717,1.0717,1.0717,1.0717,1.0717,1.0717,1.0717,1.0717,1.0717,1.0717,1.0717,1.0717,1.0717,1.0527,1.0283,1.0283,1.0073,0.9822,0.9822,0.9822,0.9822,0.9822,0.9822,0.9822,0.9822,0.9713,0.953,0.9282,0.8708,0.8196,0.806,0.8042,0.8042,0.8042,0.8491,0.8885,0.8885,0.8885,0.8885,0.8885,0.8811,0.871,0.871,0.8574,0.8479,0.8479,0.8377,0.8303,0.8303,0.8303,0.8303,0.8303,0.8228,0.818,0.818,0.8042,0.8035,0.8174,0.818,0.8248,0.8397,0.8397,0.8425,0.8486,0.8574,0.8621,0.1782,0.4153,0.6561,0.7822,0.9917,1.1511,1.1355,1.0785,1.0283,1.0283,1.0032,0.9822,0.9822,0.9849,0.997,0.0,0.0,1.0568,1.0975,1.1111,1.1335,1.1809,1.1904,1.2047,1.2345,1.2372,1.2264,1.2013,1.1857,1.1728,1.1626,1.1579,1.1552,1.1552,1.145,1.1348,1.126,1.105,1.086,1.0813,1.0772,1.0717,1.0717,1.0717,1.0717,1.0717,1.0717,1.0717,1.0717,1.0717,1.0717,1.0717,1.0717,1.0717,1.0717,1.0717,1.0717,1.0717,1.0717,1.0555,1.0337,1.0297,1.01,0.9883,0.9836,0.9822,0.9822,0.9822,0.9822,0.9822,0.9822,0.9713,0.9557,0.934,0.9309,0.9234,0.9035,0.9001,0.8988,0.8892,0.8885,0.8885,0.8885,0.8885,0.8885,0.8885,0.8845,0.8777,0.8777,0.8682,0.8615,0.8615,0.8615,0.8581,0.8486,0.8479,0.8479,0.8479,0.8391,0.8381,0.8381,0.8228,0.8221,0.833,0.8381,0.8404,0.8547,0.8547,0.8574,0.8621,0.873,0.8777,0.0,0.2965,0.6012,0.5867,0.8636,1.1355,1.1199,1.0704,1.0283,1.0283,1.0032,0.9822,0.9822,0.9822,0.9876,0.9963,0.0,0.0,1.0683,1.0975,1.1219,1.1382,1.1531,1.1742,1.204,1.2067,1.1999,1.1843,1.1701,1.1619,1.1619,1.1477,1.1396,1.1396,1.1389,1.1246,1.0887,1.088,1.0806,1.0724,1.0717,1.0717,1.0717,1.0717,1.0717,1.0717,1.0717,1.0717,1.0717,1.0717,1.0717,1.0717,1.0717,1.0717,1.0717,1.0717,1.0717,1.0717,1.0717,1.0616,1.0466,1.0324,1.0175,0.9957,0.9869,0.9822,0.9822,0.9822,0.9822,0.9822,0.9822,0.9713,0.9612,0.9605,0.949,0.934,0.9241,0.9207,0.9166,0.8967,0.8885,0.8885,0.8885,0.8885,0.8885,0.8885,0.8885,0.8885,0.8885,0.8878,0.8878,0.8878,0.8878,0.8811,0.8506,0.8479,0.8479,0.8479,0.8479,0.8479,0.8479,0.8479,0.8479,0.8479,0.8479,0.8554,0.871,0.871,0.8784,0.8878,0.8878,0.8885,0.0,0.2849,0.5856,0.5709,0.8474,1.1172,1.0921,1.0561,1.0249,1.0141,0.9964,0.9822,0.9822,0.9822,0.9903,1.0168,1.0249,0.0,1.0677,1.0894,1.1111,1.1362,1.1708,1.1959,1.2054,1.1965,1.1884,1.1837,1.1701,1.1572,1.147,1.1416,1.1389,1.1389,1.1192,1.1043,1.088,1.0779,1.0765,1.0717,1.0717,1.0717,1.0717,1.0717,1.0717,1.0717,1.0717,1.0717,1.0717,1.0717,1.0717,1.0717,1.0717,1.0717,1.0717,1.0717,1.0717,1.0717,1.0717,1.0622,1.0466,1.0324,1.0175,0.9957,0.9869,0.9822,0.9822,0.9822,0.9822,0.9822,0.9822,0.9788,0.9727,0.9632,0.9571,0.9469,0.9268,0.9207,0.9166,0.8912,0.8885,0.8885,0.8885,0.8885,0.8885,0.8885,0.8885,0.8885,0.8885,0.8885,0.8885,0.8885,0.8885,0.8844,0.8804,0.8798,0.8798,0.8798,0.8696,0.8635,0.8635,0.854,0.8533,0.8635,0.8635,0.8716,0.8811,0.8811,0.8838,0.8885,0.8885,0.8885,0.0,0.2774,0.5712,0.5594,0.8306,1.0948,1.0765,1.0446,1.0168,1.0004,0.9869,0.9822,0.9822,0.9329,0.9136,0.9948,0.969,0.9627,1.0462,1.0778,1.1036,1.1274,1.1653,1.187,1.1816,1.1823,1.1809,1.1755,1.1613,1.1491,1.1396,1.1287,1.1226,1.1226,1.1043,1.0853,1.086,1.0765,1.0717,1.0717,1.0717,1.0717,1.0717,1.0717,1.0717,1.0717,1.0717,1.0717,0.0,1.0717,1.0717,1.0717,1.0717,1.0717,1.0717,1.0717,1.0717,1.0717,1.0717,1.0622,1.0466,1.0324,1.0134,0.9883,0.9849,0.9822,0.9822,0.9822,0.9822,0.9822,0.9822,0.9822,0.9795,0.9707,0.9686,0.9605,0.9364,0.9296,0.9178,0.8925,0.8885,0.8885,0.8885,0.8885,0.8885,0.8885,0.8885,0.8885,0.8885,0.8885,0.8885,0.8885,0.8885,0.8885,0.8885,0.8885,0.8885,0.8885,0.8852,0.8798,0.8798,0.8703,0.8703,0.8798,0.8798,0.8845,0.8885,0.8885,0.8885,0.8885,0.8885,0.8885,0.0,0.2793,0.5619,0.5681,0.8225,1.0683,1.0677,1.0287,0.0,0.997,0.9856,0.9822,0.9836,0.8593,0.8044,0.9605,0.8762,0.8539,1.0099,1.0683,1.1023,1.1179,1.1443,1.1565,1.1423,1.1653,1.1755,1.1613,1.147,1.1382,1.1362,1.1097,1.0873,1.0867,1.0867,1.0799,1.0724,1.0717,1.0717,1.0717,1.0717,1.0717,1.0717,1.0717,1.0717,1.0717,1.0717,1.0717,1.0717,1.0717,1.0717,1.0717,1.0717,1.0717,1.0717,1.0717,1.0717,1.0717,1.0717,1.0629,1.048,1.0331,1.0073,0.9822,0.9822,0.9822,0.9822,0.9822,0.9822,0.9822,0.9822,0.9822,0.9822,0.9822,0.9822,0.9741,0.9456,0.9395,0.9313,0.9008,0.8898,0.8898,0.8885,0.8885,0.8885,0.8885,0.8885,0.8885,0.8885,0.8885,0.8885,0.8885,0.8885,0.8885,0.8885,0.8885,0.8885,0.8885,0.8885,0.8885,0.8885,0.8885,0.8885,0.8885,0.8885,0.8885,0.8885,0.8885,0.8885,0.8885,0.8885,0.8885,0.1532,0.0,0.5552,0.6781,0.8788,1.0351,0.0,1.0065,0.9957,0.9897,0.9842,0.9856,0.9909,0.959,0.9461,1.0071,0.9912,0.9864,1.0361,1.0826,1.1212,1.1484,1.1572,1.1606,1.1565,1.1626,1.1606,1.1457,1.1409,1.1294,1.0995,1.0921,1.0826,1.0778,1.0772,1.0758,1.0717,1.0717,1.0717,1.0717,1.0717,1.0717,1.0717,1.0717,1.0717,1.0717,1.0717,1.0717,1.0717,1.0717,1.0717,1.0717,1.0717,1.0717,1.0717,1.0717,1.0717,1.0717,1.0717,1.0697,1.0622,1.0365,1.0073,0.9822,0.9822,0.9822,0.9822,0.9822,0.9822,0.9822,0.9822,0.9822,0.9822,0.9822,0.9822,0.9774,0.9591,0.9557,0.9462,0.9164,0.9103,0.9069,0.8905,0.8885,0.8885,0.8885,0.8885,0.8885,0.8885,0.8885,0.8885,0.8885,0.8885,0.8885,0.8885,0.8885,0.8885,0.8885,0.8885,0.8885,0.8885,0.8885,0.8885,0.8885,0.8885,0.8885,0.8885,0.8885,0.8885,0.8885,0.8885,0.8885,0.3178,0.4383,0.563,0.7252,0.8979,1.0256,1.0175,0.9998,0.9822,0.9741,0.9666,0.9666,0.9822,0.9214,0.9026,1.0009,0.964,0.9617,1.0691,1.1009,1.1274,1.1586,1.1619,1.1619,1.1619,1.1558,1.1484,1.1396,1.1267,1.1118,1.0887,1.0813,1.0739,1.0724,1.0717,1.0717,1.0717,1.0717,1.0717,1.0717,1.0717,1.0717,1.0717,1.0717,1.0717,1.0717,1.0717,1.0717,1.0717,1.0717,1.0717,1.0717,1.0717,1.0717,1.0717,1.0717,1.0717,1.0717,1.0717,1.0629,1.0466,1.0168,0.9958,0.9822,0.9822,0.9822,0.9822,0.9822,0.9822,0.9822,0.9822,0.9822,0.9822,0.9822,0.9822,0.9781,0.9639,0.9612,0.9537,0.9306,0.9255,0.9187,0.9049,0.8981,0.8885,0.8885,0.8885,0.8885,0.8885,0.8885,0.8885,0.8885,0.8885,0.8885,0.8885,0.8885,0.8885,0.8885,0.8885,0.8885,0.8885,0.8885,0.8885,0.8885,0.8885,0.8885,0.8885,0.8885,0.8885,0.8885,0.8885,0.8885,0.4438,0.5143,0.5816,0.7672,0.9218,1.0243,1.0215,0.9917,0.9639,0.9639,0.9537,0.9496,0.9646,0.8672,0.829,0.981,0.9084,0.9048,1.096,1.1234,1.1274,1.1586,1.1599,1.1586,1.1586,1.1443,1.1348,1.1328,1.109,1.0873,1.0847,1.0792,1.0717,1.0717,1.0717,1.0717,1.0717,1.0717,1.0717,1.0717,1.0717,1.0717,1.0717,1.0717,1.0717,1.0717,1.0717,0.0,1.0717,1.0717,1.0717,1.0717,1.0717,1.0717,1.0717,1.0717,1.0717,1.0717,1.0697,1.0507,1.0236,0.9951,0.9842,0.9822,0.9822,0.9822,0.9822,0.9822,0.9822,0.9822,0.9822,0.9822,0.9822,0.9822,0.9822,0.9788,0.9666,0.9639,0.9598,0.9449,0.9313,0.9262,0.9221,0.9049,0.8905,0.8885,0.8885,0.8885,0.8885,0.8885,0.8885,0.8885,0.8885,0.8885,0.8885,0.8885,0.8885,0.8885,0.8885,0.8885,0.8885,0.8885,0.8885,0.8885,0.8885,0.8885,0.8885,0.8885,0.8885,0.8885,0.8885,0.8885,0.4244,0.5206,0.6081,0.8797,0.9757,0.999,0.9924,0.9836,0.9788,0.9788,0.9768,0.9802,0.9889,0.9751,0.9748,1.0152,1.0186,1.0379,1.1097,1.1234,1.1274,1.1586,1.1504,1.1423,1.1423,1.1287,1.1145,1.0954,1.0907,1.0826,1.0765,1.0731,1.0717,1.0717,1.0717,1.0717,1.0717,1.0717,1.0717,1.0717,1.0717,1.0717,1.0717,1.0717,1.0717,1.0717,0.0,1.0717,1.0717,1.0717,1.0717,1.0717,1.0717,1.0717,1.0717,1.0717,1.0717,1.0704,1.0575,1.0419,1.0249,1.0011,0.9862,0.9822,0.9822,0.9822,0.9822,0.9822,0.9822,0.9822,0.9822,0.9822,0.9822,0.9822,0.9822,0.9815,0.9795,0.9788,0.9747,0.9605,0.9557,0.9456,0.9255,0.9193,0.9076,0.8898,0.8885,0.8885,0.8885,0.8885,0.8885,0.8885,0.8885,0.8885,0.8885,0.8885,0.8885,0.8885,0.8885,0.8885,0.8885,0.8885,0.8885,0.8885,0.8885,0.8885,0.8885,0.8885,0.8885,0.8885,0.8885,0.8885,0.4224,0.5702,0.7117,0.9239,1.0059,1.027,1.0202,1.0059,0.9862,0.9836,0.9761,0.9727,0.9802,0.9883,1.0092,1.0466,1.0575,1.0717,1.1009,1.105,1.1131,1.1348,1.1307,1.1267,1.1267,1.1131,1.1023,1.0887,1.0806,1.0792,1.0724,1.0717,1.0717,1.0717,1.0717,1.0717,1.0717,1.0717,1.0717,1.0717,1.0717,1.0717,1.0717,1.0717,1.0717,1.0717,0.0,1.0717,1.0717,1.0717,1.0717,1.0717,1.0717,1.0717,1.0717,1.0717,1.0717,1.0697,1.0548,1.0453,1.0358,1.0058,0.9936,0.9869,0.9842,0.9822,0.9822,0.9822,0.9822,0.9822,0.9822,0.9822,0.9822,0.9822,0.9822,0.9822,0.9822,0.9822,0.9802,0.9734,0.9659,0.9564,0.9422,0.9316,0.9187,0.9062,0.8988,0.8885,0.8885,0.8885,0.8885,0.8885,0.8885,0.8885,0.8885,0.8885,0.8885,0.8885,0.8885,0.8885,0.8885,0.8885,0.8885,0.8885,0.8885,0.8885,0.8885,0.8885,0.8885,0.8885,0.8885,0.8885,0.4222,0.5827,0.7453,0.9323,1.008,1.0351,1.0426,1.0209,0.9923,0.9937,0.9842,0.9768,0.9768,0.9978,1.0276,1.0656,1.0717,1.0772,1.086,1.088,1.1002,1.1214,1.1131,1.1111,1.1111,1.0982,1.0826,1.0826,1.0785,1.0717,1.0717,1.0717,1.0717,1.0717,1.0717,1.0717,1.0717,1.0717,1.0717,1.0717,1.0717,1.0717,1.0717,1.0717,1.0717,1.0717,1.0717,1.0717,1.0717,1.0717,1.0717,1.0717,1.0717,1.0717,1.0717,1.0717,1.0717,1.0697,1.0548,1.0493,1.0439,1.0085,0.9984,0.9957,0.9869,0.9822,0.9822,0.9822,0.9822,0.9822,0.9822,0.9822,0.9822,0.9822,0.9822,0.9822,0.9822,0.9822,0.9822,0.9822,0.9734,0.9646,0.9612,0.9415,0.9296,0.9221,0.9062,0.8974,0.8885,0.8885,0.8885,0.8885,0.8885,0.8885,0.8885,0.8885,0.8885,0.8885,0.8885,0.8885,0.8885,0.8885,0.8885,0.8885,0.8885,0.8885,0.8885,0.8885,0.8885,0.8885,0.8885,0.8885,0.4035,0.4983,0.585,0.8987,0.9842,0.9944,1.0229,1.0059,0.9917,1.0188,1.0243,1.0236,1.0236,1.0358,1.0514,1.069,1.0717,1.0772,1.086,1.088,1.1002,1.1214,1.1043,1.0894,1.0894,1.0826,1.0738,1.0738,1.0724,1.0717,1.0717,1.0717,1.0717,1.0717,1.0717,1.0717,1.0717,1.0717,1.0717,1.0717,1.0717,1.0717,1.0717,1.0717,1.0717,1.0717,1.0717,1.0717,1.0717,1.0717,1.0717,1.0717,1.0717,1.0717,1.0717,1.0717,1.0717,1.0697,1.0548,1.0493,1.0439,1.0085,0.9984,0.9957,0.9869,0.9822,0.9822,0.9822,0.9822,0.9822,0.9822,0.9822,0.9822,0.9822,0.9822,0.9822,0.9822,0.9822,0.9822,0.9822,0.9815,0.9768,0.9632,0.9591,0.9483,0.9255,0.92,0.9089,0.8898,0.8885,0.8885,0.8885,0.8885,0.8885,0.8885,0.8885,0.8885,0.8885,0.8885,0.8885,0.8885,0.8885,0.8885,0.8885,0.8885,0.8885,0.8885,0.8885,0.8885,0.8885,0.8885,0.8885,0.4053,0.5506,0.6971,0.9127,0.9829,1.0019,1.0236,1.0256,1.027,1.0385,1.0412,1.0412,1.0412,1.0453,1.0541,1.0697,1.0717,1.0744,1.0799,1.0806,1.0826,1.088,1.0839,1.0806,1.0806,1.1733,1.1894,1.0784,1.1696,1.1828,1.0784,1.0717,1.0717,1.0717,1.0717,1.0717,1.0717,1.0717,1.0717,1.0717,1.0717,1.0717,1.0717,1.0717,1.0717,1.0717,1.0717,1.0717,1.0717,1.0717,1.0717,1.0717,1.0717,1.0717,1.0717,1.0717,1.0717,1.0711,1.0656,1.0636,1.0602,1.0392,1.0263,1.0168,0.995,0.9897,0.9822,0.9822,0.9822,0.9822,0.9822,0.9822,0.9822,0.9822,0.9822,0.9822,0.9822,0.9822,0.9822,0.9822,0.9822,0.9802,0.9747,0.9666,0.9571,0.9456,0.933,0.9187,0.9083,0.8994,0.8885,0.8885,0.8885,0.8885,0.8885,0.8885,0.8885,0.8885,0.8885,0.8885,0.8885,0.8885,0.8885,0.8885,0.8885,0.8885,0.8885,0.8885,0.8885,0.8885,0.8885,0.8885,0.3986,0.5475,0.6995,0.9103,0.9761,0.9978,1.0222,1.0358,1.0453,1.0548,1.0561,1.0561,1.0561,1.0561,1.0602,1.0704,1.0717,1.0717,1.0717,1.0717,1.0717,1.0717,1.0717,1.0717,1.0717,1.2281,1.261,1.085,1.2281,1.2545,1.0784,1.0717,1.0717,1.0717,1.0717,1.0717,1.0717,1.0717,1.0717,1.0717,1.0717,1.0717,1.0717,1.0717,1.0717,1.0717,1.0717,1.0717,1.0717,1.0717,1.0717,1.0717,1.0717,1.0717,1.0717,1.0717,1.0717,1.0717,1.0717,1.0717,1.0697,1.0541,1.0399,1.0249,1.0031,0.9883,0.9822,0.9822,0.9822,0.9822,0.9822,0.9822,0.9822,0.9822,0.9822,0.9822,0.9822,0.9822,0.9822,0.9822,0.9822,0.9822,0.9822,0.9741,0.9659,0.9618,0.9429,0.9316,0.9221,0.9069,0.8988,0.8892,0.8885,0.8885,0.8885,0.8885,0.8885,0.8885,0.8885,0.8885,0.8885,0.8885,0.8885,0.8885,0.8885,0.8885,0.8885,0.8885,0.8885,0.8885,0.8885,0.8885,0.3869,0.4634,0.536,0.8757,0.9612,0.9734,1.0181,1.0283,1.0365,1.0663,1.0717,1.0717,1.0717,1.0717,1.0717,1.0717,1.0717,1.0717,1.0717,1.0717,1.0717,1.0717,1.0717,1.0717,1.0717,1.2281,1.261,1.085,1.2347,1.2545,1.085,1.0717,1.0717,1.0717,1.0717,1.0717,1.0717,1.0717,1.0717,1.0717,1.0717,1.0717,1.0717,1.0717,1.0717,1.0717,1.0717,1.0717,1.0717,1.0717,1.0717,1.0717,1.0717,1.0717,1.0717,1.0717,1.0717,1.0717,1.0717,1.0717,1.0697,1.0541,1.0399,1.0249,1.0031,0.9883,0.9822,0.9822,0.9822,0.9822,0.9822,0.9822,0.9822,0.9822,0.9822,0.9822,0.9822,0.9822,0.9822,0.9822,0.9822,0.9822,0.9822,0.9822,0.9774,0.9632,0.9612,0.9496,0.9248,0.9207,0.9096,0.8898,0.8885,0.8885,0.8885,0.8885,0.8885,0.8885,0.8885,0.8885,0.8885,0.8885,0.8885,0.8885,0.8885,0.8885,0.8885,0.8885,0.8885,0.8885,0.8885,0.8885,0.4278,0.6311,0.8301,0.9347,0.9924,1.0263,1.0399,1.0426,1.0487,1.0677,1.0717,1.0717,1.0717,1.0717,1.0717,1.0717,1.0717,1.0717,1.0717,1.0717,1.0717,1.0717,1.0717,1.0717,1.0717,1.339,1.4428,1.2676,1.4166,1.4362,1.261,1.1372,1.0717,1.0717,1.1894,1.2545,1.2545,1.3774,1.3709,1.2545,1.2545,1.1894,1.0717,1.0717,1.0717,1.0717,1.0717,1.0717,1.0717,1.0717,1.0717,1.0717,1.0717,1.0717,1.0717,1.0717,1.0717,1.0717,1.0717,1.0717,1.0697,1.0541,1.0399,1.0249,1.0031,0.9883,0.9822,0.9822,0.9822,0.9822,0.9822,0.9822,0.9822,0.9822,0.9822,0.9822,0.9822,0.9822,0.9822,0.9822,0.9822,0.9822,0.9822,0.9822,0.9808,0.9768,0.9673,0.9496,0.9248,0.9207,0.9096,0.8898,0.8885,0.8885,0.8885,0.8885,0.8885,0.8885,0.8885,0.8885,0.8885,0.8885,0.8885,0.8885,0.8885,0.8885,0.8885,0.8885,0.8885,0.8885,0.8885,0.8885,0.4488,0.6579,0.8803,0.9646,1.0148,1.0439,1.0555,1.0582,1.0609,1.0704,1.0717,1.0717,1.0717,1.0717,1.0717,1.0717,1.0717,1.0717,1.0717,1.0717,1.0717,1.0717,1.0717,1.0717,1.0717,1.384,1.52,1.3456,1.5589,1.5848,1.3456,1.2281,1.1439,1.0717,1.2413,1.3325,1.3325,1.5005,1.5394,1.4362,1.4362,1.3413,1.1599,1.1021,1.0717,1.0717,1.0717,1.0717,1.0717,1.0717,1.0717,1.0717,1.0717,1.0717,1.0717,1.0717,1.0717,1.0717,1.0717,1.0677,1.0616,1.0521,1.0351,1.0175,1.0017,0.9883,0.9822,0.9822,0.9822,0.9822,0.9822,0.9822,0.9822,0.9822,0.9822,0.9822,0.9822,0.9822,0.9822,0.9822,0.9822,0.9822,0.9822,0.9822,0.9822,0.9822,0.97,0.9523,0.933,0.9248,0.9096,0.8898,0.8885,0.8885,0.8885,0.8885,0.8885,0.8885,0.8885,0.8885,0.8885,0.8885,0.8885,0.8885,0.8885,0.8885,0.8885,0.8885,0.8885,0.8885,0.8885,0.8885,0.4421,0.6103,0.7829,0.9784,1.0297,1.0392,1.0656,1.0717,1.0717,1.0717,1.0717,1.0717,1.0717,1.0717,1.0717,1.0717,1.0585,1.0452,1.0452,1.0313,1.0253,1.0452,1.0452,1.0518,1.0651,1.384,1.5265,1.3643,1.6625,1.7141,1.397,1.3447,1.2668,1.1153,1.2652,1.3544,1.3657,1.54,1.6175,1.6046,1.6046,1.4981,1.302,1.1599,1.0822,1.0677,1.0677,1.0677,1.0677,1.0677,1.069,1.0697,1.0697,1.0711,1.0717,1.0717,1.0717,1.0717,1.0717,1.0622,1.0487,1.0473,1.0283,0.9984,0.997,0.9869,0.9822,0.9822,0.9822,0.9822,0.9822,0.9822,0.9822,0.9822,0.9822,0.9822,0.9822,0.9822,0.9822,0.9822,0.9822,0.9822,0.9822,0.9822,0.9822,0.9822,0.9713,0.9571,0.9401,0.9316,0.9117,0.8898,0.8885,0.8885,0.8885,0.9051,0.9099,0.9099,0.921,0.932,0.932,0.9044,0.894,0.9099,0.9099,0.9154,0.932,0.932,0.932,0.932,0.932,0.921,0.475,0.6937,0.9293,1.0105,1.0453,1.0643,1.0704,1.0717,1.0717,1.0717,1.0717,1.0717,1.0717,1.0717,1.0717,1.0717,0.951,0.8568,0.8568,0.7431,0.7031,0.8435,0.8568,0.9172,1.0585,1.384,1.5719,1.5394,1.7269,1.818,1.7409,1.4819,1.3648,1.4455,1.483,1.558,1.6648,1.8408,1.8593,1.7219,1.7219,1.568,1.2771,1.2636,1.1751,1.0378,1.0378,1.0378,1.0378,1.0378,1.0439,1.0541,1.0541,1.0616,1.0717,1.0717,1.0717,1.0717,1.0717,1.0622,1.0473,1.0365,1.0202,0.9963,0.9849,0.9849,0.9822,0.9822,0.9822,0.9822,0.9822,0.9822,0.9822,0.9822,0.9822,0.9822,0.9822,0.9822,0.9822,0.9822,0.9822,0.9822,0.9822,0.9822,0.9822,0.9822,0.9795,0.968,0.9415,0.9354,0.9232,0.8912,0.8885,0.8885,0.8885,0.9966,1.0617,1.0617,1.1701,1.2354,1.2354,1.0131,0.9423,1.0617,1.0617,1.121,1.2354,1.2354,1.2354,1.2354,1.2354,1.1755,0.4987,0.7237,0.9836,1.0358,1.0609,1.0717,1.0717,1.0717,1.0717,1.0717,1.0717,1.0717,1.0717,1.0717,1.0452,0.9576,0.8634,0.7698,0.6898,0.5964,0.5763,0.6631,0.7498,0.8347,0.9222,1.3172,1.5647,1.56,1.7885,1.8962,1.8136,1.6361,1.5359,1.5239,1.6055,1.6874,1.7614,1.9351,1.9728,1.8863,1.8863,1.7054,1.3747,1.2392,1.1232,1.0283,1.0283,1.0283,1.0283,1.0283,1.0324,1.0392,1.0392,1.048,1.0609,1.0609,1.0656,1.0711,1.0636,1.0514,1.0365,1.0215,1.0066,0.9862,0.9842,0.9822,0.9822,0.9822,0.9822,0.9822,0.9822,0.9822,0.9822,0.9822,0.9822,0.9822,0.9822,0.9822,0.9822,0.9822,0.9822,0.9822,0.9822,0.9822,0.9822,0.9822,0.9822,0.9741,0.9517,0.949,0.9374,0.9076,0.9642,0.9994,0.9974,1.1319,1.2136,1.2136,1.2886,1.3318,1.3318,1.181,1.1374,1.2136,1.2136,1.2507,1.3318,1.3318,1.3318,1.3318,1.3318,1.2886,0.5411,0.746,0.9992,1.0541,1.0704,1.0717,1.0717,1.0717,1.0711,1.0683,1.0704,1.0711,1.0683,1.0683,1.0069,0.8244,0.771,0.6912,0.5192,0.4669,0.4612,0.4875,0.6473,0.7568,0.7752,1.2475,1.5385,1.5328,1.8362,1.9546,1.8117,1.7737,1.7038,1.5885,1.6931,1.7655,1.7924,1.9344,2.008,2.008,1.9779,1.8106,1.5235,1.2366,1.0762,1.0202,1.051,1.0636,1.0636,1.0636,1.0657,1.0615,1.0369,1.0331,1.0453,1.0453,1.0534,1.0629,1.05,1.0365,1.0222,1.0031,0.9883,0.9822,0.9822,0.9822,0.9822,0.9822,0.9822,0.9822,0.9822,0.9822,0.9822,0.9822,0.9822,0.9822,0.9822,0.9822,0.9822,0.9822,0.9822,0.9822,0.9822,0.9822,0.9822,0.9822,0.9822,0.9768,0.9625,0.9612,0.9621,0.9617,1.0698,1.1475,1.1597,1.291,1.3759,1.3759,1.3932,1.4019,1.4019,1.4019,1.4019,1.4019,1.3804,1.3804,1.4019,1.4019,1.4019,1.4019,1.4019,1.3911,0.6418,0.816,1.0038,1.0439,1.0622,1.0717,1.0717,1.0717,1.0683,1.0548,1.0629,1.0677,1.0548,1.0521,0.9954,0.8151,0.652,0.4907,0.3297,0.1701,0.132,0.2899,0.4475,0.6112,0.7677,1.2361,1.5349,1.5318,1.8362,2.0106,1.9863,1.8423,1.807,1.9125,1.7901,1.7852,1.9128,1.9362,1.9479,1.9479,1.8093,1.7174,1.6667,1.4849,1.2474,0.9944,1.1331,1.193,1.193,1.193,1.202,1.1982,1.0571,1.0175,1.031,1.031,1.0324,1.0337,1.0317,1.0209,1.0011,0.9997,0.9883,0.9822,0.9822,0.9822,0.9822,0.9822,0.9822,0.9822,0.9822,0.9822,0.9822,0.9822,0.9822,0.9822,0.9822,0.9822,0.9822,0.9822,0.9822,0.9822,0.9822,0.9822,0.9822,0.9822,0.9822,0.9768,0.9625,0.9612,1.0068,1.1315,1.1634,1.2293,1.3605,1.4823,1.5534,1.5534,1.6464,1.7041,1.7041,1.7041,1.7041,1.7041,1.5796,1.5743,1.7041,1.7041,1.7041,1.7041,1.7041,1.634,0.8042,0.8968,0.9897,1.0276,1.0426,1.0473,1.0473,1.0473,1.0453,1.0385,1.0426,1.0453,1.0385,1.0371,0.9505,0.6746,0.565,0.4176,0.1546,0.0519,0.0326,0.1106,0.3505,0.5361,0.6085,1.0691,1.4043,1.4842,1.7063,1.883,1.9687,1.9022,1.8898,1.9559,1.8828,1.8718,1.9372,1.943,1.943,1.9372,1.8706,1.7864,1.6962,1.6256,1.4648,1.2517,1.3228,1.3526,1.3467,1.2577,1.2207,1.2162,1.0523,1.0012,1.0148,1.0148,1.0209,1.027,1.0181,1.0044,0.997,0.9889,0.9876,0.9822,0.9822,0.9822,0.9822,0.9822,0.9822,0.9822,0.9822,1.0482,1.114,1.114,1.1856,1.2217,1.1322,1.0422,0.9822,0.9822,0.9822,0.9822,0.9822,0.9822,0.9822,0.9822,0.9822,0.9795,0.9734,1.0501,1.126,1.1837,1.3423,1.4639,1.5044,1.632,1.7025,1.6848,1.7331,1.7582,1.7582,1.7582,1.7582,1.7582,1.6988,1.6935,1.7582,1.7582,1.7582,1.7582,1.7582,1.7252,0.8981,0.9266,0.949,0.9937,1.0107,1.0175,1.0215,1.0249,1.027,1.0229,1.0222,1.0209,1.0168,1.0195,0.9121,0.559,0.508,0.3878,0.0447,0.0,0.0,0.0,0.3005,0.502,0.49,0.9409,1.2968,1.45,1.6079,1.7689,1.9301,1.943,1.943,1.943,1.943,1.943,1.943,1.943,1.943,1.943,1.943,1.8765,1.763,1.763,1.6973,1.5795,1.537,1.5192,1.5133,1.3885,1.3168,1.2637,1.102,1.0196,0.993,0.993,1.0066,1.0148,0.997,0.993,0.9909,0.9856,0.9822,0.9822,0.9822,1.0058,1.0422,1.0422,1.0717,1.102,1.102,1.1916,1.2808,1.2808,1.3706,1.4183,1.2569,1.0959,0.9822,0.9822,0.9822,0.9822,0.9822,0.9822,0.9822,0.9822,1.0179,1.0422,1.0422,1.1796,1.2934,1.3243,1.5268,1.6698,1.6752,1.7621,1.8063,1.7822,1.7662,1.7582,1.7582,1.7582,1.7582,1.7582,1.7582,1.7582,1.7582,1.7582,1.7582,1.7582,1.7582,1.7582,0.8438,0.8642,0.8866,0.9313,0.9639,0.9883,0.9963,1.0175,1.0243,1.0031,0.9997,0.9957,0.9869,0.9903,0.8889,0.5494,0.493,0.3761,0.0433,0.0,0.0,0.0,0.2896,0.49,0.4896,0.9319,1.2886,1.448,1.6079,1.7689,1.9301,1.943,1.943,1.943,1.943,1.943,1.943,1.943,1.943,1.943,1.943,1.9372,1.9301,1.9301,1.9243,1.9068,1.756,1.6903,1.6844,1.6786,1.5843,1.4302,1.2689,1.114,0.9836,0.9836,0.9836,0.9842,0.9836,0.9836,0.9829,0.9822,0.9822,0.9822,0.9822,1.0899,1.2097,1.2097,1.3168,1.4361,1.4361,1.4421,1.448,1.448,1.454,1.4183,1.2569,1.0959,0.9822,0.9822,0.9822,0.9822,0.9822,0.9822,0.9822,0.9822,1.108,1.2097,1.2097,1.3467,1.5074,1.6586,1.6891,1.7594,1.9061,1.8784,1.8464,1.8437,1.7903,1.7582,1.7582,1.7582,1.7582,1.7582,1.7582,1.7582,1.7582,1.7582,1.7582,1.7582,1.7582,1.7582,0.8397,0.852,0.8648,0.9008,0.9245,0.9408,0.9462,0.9591,0.9713,0.9754,0.9686,0.9632,0.968,0.9802,0.9142,0.6879,0.559,0.4119,0.191,0.0681,0.0,0.0,0.2915,0.4892,0.4892,0.8421,1.1322,1.2928,1.454,1.6138,1.7747,1.8823,1.943,1.943,1.943,1.943,1.943,1.943,1.943,1.943,1.943,1.943,1.943,1.943,1.943,1.9372,1.8765,1.8519,1.846,1.7443,1.6668,1.5902,1.3228,1.2457,1.2749,1.1736,1.1314,1.1495,1.2517,1.2217,1.1495,1.2569,1.2868,1.2868,1.2868,1.3287,1.3765,1.3765,1.4183,1.4599,1.4599,1.537,1.6385,1.7455,1.6915,1.5961,1.5419,1.3228,1.1675,1.2689,1.2037,1.1675,1.2689,1.2868,1.2868,1.2868,1.3347,1.3765,1.3765,1.5133,1.6374,1.6962,1.7923,1.8687,1.9048,1.8718,1.841,1.8223,1.7809,1.7582,1.7582,1.7582,1.7582,1.7582,1.7582,1.7582,1.7582,1.7582,1.7582,1.7582,1.7582,1.7582,0.8282,0.8336,0.8404,0.871,0.8859,0.9023,0.9173,0.9289,0.9347,0.9503,0.9449,0.9415,0.9517,0.9612,0.914,0.7543,0.5912,0.4276,0.2706,0.1048,0.0185,0.0802,0.3262,0.51,0.5712,0.8221,1.0482,1.2097,1.3706,1.5311,1.6903,1.8519,1.9319,1.9225,1.9118,1.9118,1.9212,1.9225,1.9265,1.943,1.943,1.943,1.943,1.943,1.943,1.943,1.943,1.943,1.9301,1.8227,1.7501,1.6786,1.4648,1.4123,1.448,1.3407,1.2988,1.3168,1.4242,1.3885,1.3168,1.4242,1.4599,1.4599,1.4599,1.4955,1.5429,1.5429,1.5784,1.6208,1.6208,1.6973,1.8098,1.9127,1.8577,1.7806,1.7806,1.5311,1.3347,1.4361,1.3765,1.3347,1.4421,1.4599,1.4599,1.4599,1.5074,1.5429,1.5429,1.6797,1.7806,1.7806,1.8765,1.9292,1.9092,1.8718,1.841,1.8155,1.7809,1.7582,1.7582,1.7582,1.7582,1.7582,1.7582,1.7582,1.7582,1.7582,1.7582,1.7582,1.7582,1.7582,0.0,0.0,0.0,0.8397,0.8472,0.8587,0.9084,0.9187,0.9234,0.9334,0.9367,0.9361,0.9374,0.9367,0.8884,0.7412,0.5753,0.4222,0.276,0.1108,0.0616,0.2274,0.3932,0.5586,0.723,0.883,1.0422,1.2037,1.3646,1.5252,1.6844,1.8519,1.9225,1.8918,1.8637,1.8624,1.8905,1.8905,1.9065,1.9417,1.9417,1.9417,1.943,1.943,1.943,1.943,1.943,1.943,1.943,1.943,1.846,1.7079,1.7032,1.6079,1.4718,1.4658,1.4658,1.4658,1.4728,1.4718,1.4658,1.4728,1.4718,1.4718,1.4718,1.5843,1.7079,1.7079,1.8227,1.943,1.943,1.943,1.943,1.943,1.943,1.943,1.943,1.6973,1.4718,1.4718,1.4718,1.4658,1.4718,1.4718,1.4718,1.4718,1.6079,1.7079,1.7079,1.8389,1.9359,1.9345,1.9345,1.9345,1.9345,1.8811,1.8477,1.8477,1.7916,1.7582,1.7582,1.7582,1.7582,1.7582,1.7582,1.7582,1.7582,1.7582,1.7582,1.7582,1.7582,1.7582,0.7988,0.0,0.0,0.0,0.0,0.0,0.8538,0.8647,0.8743,0.9008,0.8974,0.896,0.9234,0.913,0.8934,0.8673,0.6439,0.4552,0.4157,0.1727,0.0597,0.2083,0.3842,0.5497,0.7065,0.8781,0.9997,1.0422,1.3048,1.4777,1.5252,1.7679,1.8918,1.8624,1.8531,1.8531,1.8611,1.8611,1.8758,1.9052,1.9052,1.9158,1.943,1.943,1.943,1.943,1.943,1.943,1.943,1.943,1.9127,1.8648,1.7443,1.7443,1.7935,1.6797,1.6315,1.6492,1.7689,1.7337,1.655,1.7689,1.8052,1.8052,1.8052,1.8402,1.8765,1.8765,1.9068,1.943,1.943,1.943,1.943,1.943,1.943,1.943,1.943,1.8706,1.8052,1.8052,1.7149,1.6738,1.7877,1.8052,1.8052,1.8052,1.8473,1.8629,1.8422,1.8753,1.8971,1.8758,1.8731,1.8731,1.8731,1.8384,1.8115,1.8115,1.7796,1.7582,1.7582,1.7582,1.7582,1.7582,1.7582,1.7582,1.7582,1.7582,1.7582,1.7582,1.7582,1.7582,0.8008,0.7988,0.8008,0.8119,0.0,0.0,0.833,0.8377,0.8459,0.8703,0.8676,0.8669,0.8893,0.8804,0.8798,0.8947,0.7006,0.5268,0.4794,0.2524,0.147,0.3052,0.4729,0.6373,0.7974,0.9074,0.9754,0.9815,1.2749,1.5091,1.6355,1.7742,1.8422,1.8303,1.8183,1.817,1.8303,1.8303,1.845,1.8744,1.8865,1.8945,1.9011,1.9132,1.9118,1.9011,1.9132,1.9185,1.9199,1.9319,1.943,1.9301,1.8344,1.859,1.9301,1.8344,1.7981,1.8169,1.9068,1.8765,1.8169,1.9127,1.943,1.943,1.943,1.943,1.943,1.943,1.943,1.943,1.943,1.943,1.943,1.943,1.943,1.943,1.943,1.943,1.943,1.943,1.8648,1.8286,1.9243,1.943,1.943,1.943,1.9265,1.9118,1.8945,1.8824,1.8677,1.8504,1.849,1.849,1.849,1.8223,1.7995,1.7995,1.7756,1.7582,1.7582,1.7582,1.7582,1.7582,1.7582,1.7582,1.7582,1.7582,1.7582,1.7582,1.7582,1.7582,0.8299,0.8258,0.8292,0.8468,0.8268,0.0,0.8384,0.835,0.8354,0.8431,0.8459,0.8465,0.8479,0.8479,0.8526,0.8662,0.7444,0.6083,0.4868,0.3386,0.3036,0.449,0.6013,0.7582,0.9367,0.9571,0.9639,0.9761,1.2746,1.5784,1.8668,1.8275,1.7969,1.7942,1.7729,1.7716,1.7942,1.7942,1.8143,1.845,1.8704,1.8704,1.8504,1.8758,1.8731,1.8504,1.8771,1.8891,1.8945,1.9212,1.939,1.943,1.943,1.943,1.943,1.943,1.943,1.943,1.943,1.943,1.943,1.943,1.943,1.943,1.943,1.943,1.943,1.943,1.943,1.943,1.943,1.943,1.943,1.943,1.943,1.943,1.943,1.943,1.943,1.943,1.943,1.943,1.943,1.943,1.9417,1.9319,1.9092,1.8905,1.8838,1.8597,1.8424,1.8397,1.8384,1.8384,1.8384,1.8143,1.7942,1.7942,1.7729,1.7582,1.7582,1.7582,1.7582,1.7582,1.7582,1.7582,1.7582,1.7582,1.7582,1.7582,1.7582,1.7582,0.9809,0.976,0.9736,0.9689,0.9048,0.0,0.8167,0.8201,0.8327,0.8354,0.8361,0.8343,0.8459,0.8479,0.8492,0.852,0.7386,0.6037,0.4722,0.4233,0.4177,0.4514,0.593,0.7532,0.9124,0.9354,0.9435,0.9462,1.2281,1.5276,1.8005,1.8035,1.7916,1.7675,1.7609,1.7609,1.7675,1.7675,1.7822,1.8075,1.8129,1.8317,1.849,1.8544,1.8544,1.849,1.8557,1.8704,1.8931,1.8985,1.9158,1.943,1.943,1.943,1.943,1.943,1.943,1.943,1.943,1.943,1.943,1.943,1.943,1.943,1.943,1.943,1.943,1.943,1.943,1.943,1.943,1.943,1.943,1.943,1.943,1.943,1.943,1.943,1.943,1.943,1.943,1.943,1.943,1.943,1.9292,1.9052,1.8958,1.8701,1.8222,1.8115,1.7982,1.7782,1.7756,1.7756,1.7756,1.7702,1.7675,1.7675,1.7609,1.7582,1.7582,1.7582,1.7582,1.7582,1.7582,1.7582,1.7582,1.7582,1.7582,1.7582,1.7582,1.7582,1.0984,1.1064,1.1073,1.1173,1.0205,0.0,0.0,0.865,0.8153,0.8153,0.8092,0.8065,0.8133,0.8147,0.8174,0.8248,0.7761,0.6934,0.5593,0.5431,0.5533,0.5579,0.6922,0.8146,0.908,0.9282,0.9982,1.1544,1.2928,1.4944,1.7833,1.7889,1.7729,1.7582,1.7582,1.7582,1.7582,1.7582,1.7662,1.7822,1.7916,1.8036,1.805,1.8196,1.8183,1.805,1.8196,1.8357,1.8448,1.8798,1.9011,1.9158,1.9305,1.943,1.943,1.943,1.943,1.943,1.943,1.943,1.943,1.943,1.943,1.943,1.943,1.943,1.943,1.943,1.943,1.943,1.943,1.943,1.943,1.943,1.943,1.943,1.943,1.943,1.9319,1.9172,1.9265,1.943,1.943,1.9239,1.9092,1.8945,1.8621,1.8328,1.8035,1.7862,1.7756,1.7595,1.7582,1.7582,1.7582,1.7582,1.7582,1.7582,1.7582,1.7582,1.7582,1.7582,1.7582,1.7582,1.7582,1.7582,1.7582,1.7582,1.7582,1.7582,1.7582,1.7582,1.2405,1.255,1.261,1.2712,1.1694,1.0656,0.0,0.0,0.0,0.8386,0.8083,0.7855,0.7855,0.7828,0.7862,0.7968,0.8147,0.7859,0.684,0.6781,0.6781,0.6623,0.781,0.8771,0.9098,0.9125,1.0298,1.3172,1.3377,1.4593,1.735,1.7556,1.7582,1.7582,1.7582,1.7582,1.7582,1.7582,1.7582,1.7582,1.7836,1.7822,1.7595,1.7836,1.7822,1.7595,1.7849,1.7942,1.8035,1.8502,1.8784,1.8878,1.9225,1.943,1.943,1.943,1.943,1.943,1.943,1.943,1.943,1.943,1.943,1.943,1.943,1.943,1.943,1.943,1.943,1.943,1.943,1.943,1.943,1.943,1.943,1.943,1.943,1.943,1.9279,1.8985,1.9118,1.9265,1.9269,1.9052,1.8878,1.8715,1.8288,1.7969,1.7916,1.7742,1.7582,1.7582,1.7582,1.7582,1.7582,1.7582,1.7582,1.7582,1.7582,1.7582,1.7582,1.7582,1.7582,1.7582,1.7582,1.7582,1.7582,1.7582,1.7582,1.7582,1.7582,1.7582,1.501,1.4971,1.4873,1.4225,1.3523,1.271,1.1915,0.0,0.9937,0.978,0.0,0.7961,0.7961,0.0,0.0,0.7968,0.8002,0.8069,0.8064,0.8097,0.7638,0.6489,0.761,0.8574,0.8743,0.8757,0.9519,1.1261,1.2437,1.3837,1.5607,1.6895,1.7582,1.7582,1.7582,1.7582,1.7582,1.7582,1.7582,1.7582,1.7622,1.7622,1.7582,1.7622,1.7609,1.7582,1.7622,1.7796,1.7995,1.8062,1.8303,1.8597,1.9158,1.943,1.943,1.943,1.943,1.943,1.943,1.943,1.943,1.943,1.943,1.943,1.943,1.943,1.943,1.943,1.943,1.943,1.943,1.943,1.943,1.943,1.943,1.943,1.943,1.943,1.9279,1.8985,1.8945,1.8891,1.8637,1.8771,1.8744,1.8169,1.8035,1.7889,1.7675,1.7609,1.7582,1.7582,1.7582,1.7582,1.7582,1.7582,1.7582,1.7582,1.7582,1.7582,1.7582,1.7582,1.7582,1.7582,1.7582,1.7582,1.7582,1.7582,1.7582,1.7582,1.7582,1.7582,1.6031,1.6303,1.6303,1.5833,1.4934,1.4041,1.3435,1.22,1.0969,1.0158,0.0,0.0,0.0,0.0,0.0,0.0,0.7934,0.7982,0.8004,0.8004,0.7918,0.7596,0.804,0.8418,0.856,0.8581,0.9231,1.0771,1.2164,1.3656,1.52,1.674,1.7582,1.7582,1.7582,1.7582,1.7582,1.7582,1.7582,1.7582,1.7582,1.7582,1.7582,1.7582,1.7582,1.7582,1.7582,1.7662,1.7796,1.7916,1.8062,1.8277,1.8691,1.8958,1.9105,1.9105,1.9225,1.943,1.943,1.943,1.943,1.943,1.943,1.943,1.943,1.943,1.943,1.943,1.943,1.943,1.943,1.943,1.943,1.943,1.943,1.943,1.943,1.943,1.9225,1.8758,1.8811,1.8718,1.8076,1.821,1.8275,1.8035,1.7889,1.7729,1.7595,1.7582,1.7582,1.7582,1.7582,1.7582,1.7582,1.7582,1.7582,1.7582,1.7582,1.7582,1.7582,1.7582,1.7582,1.7582,1.7582,1.7582,1.7582,1.7582,1.7582,1.7582,1.7582,1.7582,1.7016,1.7355,1.7434,1.6847,1.6086,1.5317,1.4839,1.3573,1.2255,1.1268,1.0462,0.0,0.0,0.0,0.7828,0.7868,0.0,0.7901,0.7882,0.7834,0.7929,0.8262,0.8282,0.8361,0.8411,0.8425,0.89,1.0024,1.1808,1.3372,1.4514,1.6442,1.7502,1.7582,1.7582,1.7582,1.7582,1.7582,1.7582,1.7582,1.7582,1.7582,1.7582,1.7582,1.7582,1.7582,1.7582,1.7582,1.7595,1.7822,1.7862,1.7889,1.8156,1.8424,1.8635,1.8771,1.8998,1.9239,1.9239,1.9305,1.943,1.943,1.943,1.943,1.943,1.943,1.943,1.943,1.943,1.943,1.943,1.943,1.943,1.943,1.943,1.943,1.943,1.943,1.9199,1.8611,1.8664,1.8544,1.7729,1.7836,1.7969,1.7876,1.7729,1.7582,1.7582,1.7582,1.7582,1.7582,1.7582,1.7582,1.7582,1.7582,1.7582,1.7582,1.7582,1.7582,1.7582,1.7582,1.7582,1.7582,1.7582,1.7582,1.7582,1.7582,1.7582,1.7582,1.7582,1.7582,1.8517,1.8437,1.817,1.6994,1.6914,1.685,1.5936,1.4958,1.4129,1.3823,1.1954,1.0297,0.9978,0.8781,0.7862,0.7961,0.7909,0.0,0.0,0.7902,0.7814,0.7828,0.8092,0.8327,0.8327,0.8327,0.8388,0.8577,1.0943,1.2638,1.3058,1.5722,1.734,1.7569,1.7582,1.7582,1.7582,1.7582,1.7582,1.7582,1.7582,1.7582,1.7582,1.7582,1.7582,1.7582,1.7582,1.7582,1.7582,1.7595,1.7595,1.7595,1.7609,1.7796,1.8049,1.8397,1.8691,1.8945,1.8945,1.9132,1.943,1.943,1.943,1.943,1.943,1.943,1.943,1.943,1.943,1.943,1.943,1.943,1.943,1.943,1.943,1.943,1.943,1.943,1.9199,1.8611,1.8504,1.8303,1.7689,1.7836,1.7889,1.7649,1.7595,1.7582,1.7582,1.7582,1.7582,1.7582,1.7582,1.7582,1.7582,1.7582,1.7582,1.7582,1.7582,1.7582,1.7582,1.7582,1.7582,1.7582,1.7582,1.7582,1.7582,1.7582,1.7582,1.7582,1.7582,1.7582,1.8517,1.8637,1.8531,1.7542,1.7355,1.7208,1.6326,1.5852,1.5278,1.4124,1.3389,1.2352,1.0372,0.9608,0.9003,0.8131,0.7948,0.7867,0.0,0.7617,0.7556,0.7658,0.7848,0.8004,0.8106,0.8119,0.814,0.8187,0.9987,1.1539,1.2537,1.4705,1.6303,1.7288,1.7527,1.7582,1.7582,1.7582,1.7582,1.7582,1.7582,1.7582,1.7582,1.7582,1.7582,1.7582,1.7582,1.7582,1.7582,1.7582,1.7582,1.7582,1.7582,1.7649,1.7769,1.8076,1.8504,1.8958,1.9145,1.9158,1.9105,1.9305,1.943,1.943,1.943,1.9225,1.9118,1.9319,1.9225,1.9118,1.9319,1.943,1.943,1.943,1.943,1.943,1.943,1.943,1.9199,1.8611,1.849,1.8303,1.7689,1.8387,1.9045,1.893,1.8146,1.7937,1.8812,1.8146,1.7582,1.7582,1.7582,1.7582,1.7582,1.7582,1.7582,1.7582,1.7582,1.7582,1.7582,1.7582,1.7582,1.7582,1.7582,1.7582,1.7582,1.7582,1.7582,1.7582,1.7582,1.7582,1.8677,1.8784,1.8731,1.7943,1.7742,1.7515,1.6633,1.6513,1.6262,1.5032,1.4497,1.3781,1.2034,1.0771,0.9723,0.8999,0.8371,0.7887,0.0,0.7556,0.7543,0.7597,0.7726,0.7868,0.7975,0.7941,0.7934,0.7988,0.9359,1.0825,1.2324,1.4112,1.5739,1.7141,1.7487,1.7582,1.7582,1.7582,1.7582,1.7582,1.7582,1.7582,1.7582,1.7582,1.7582,1.7582,1.7582,1.7582,1.7582,1.7582,1.7582,1.7582,1.7582,1.7582,1.7609,1.7809,1.8142,1.8651,1.8958,1.8931,1.8798,1.8998,1.9118,1.9185,1.9092,1.8998,1.8958,1.9158,1.9078,1.8998,1.9292,1.943,1.943,1.943,1.943,1.943,1.943,1.9292,1.9065,1.8584,1.841,1.8333,1.8282,1.902,1.9576,1.9576,1.9265,1.9213,1.9524,1.8864,1.8146,1.7635,1.7582,1.7582,1.7582,1.7582,1.7582,1.7582,1.7582,1.7582,1.7582,1.7582,1.7582,1.7582,1.7582,1.7832,1.8304,1.8304,1.8304,1.8304,1.8304,1.8248]}]]